<?xml version="1.0" encoding="UTF-8" standalone="no" ?>
<gpx xmlns="http://www.topografix.com/GPX/1/1" xmlns:xsi="http://www.w3.org/2001/XMLSchema-instance" xsi:schemaLocation="http://www.topografix.com/GPX/1/1 http://www.topografix.com/GPX/1/1/gpx.xsd" version="1.1" creator="VisuGPX - https://www.visugpx.com">
  <metadata>
    <name>VTT-Thouron-Saint-Symphorien-LacStPardoux</name>
    <desc><![CDATA[Des collines à la "mer" c'est du varié !]]></desc>
  </metadata>
  <trk>
    <name><![CDATA[VTTTTTT-07 11:40:35]]></name>
    <trkseg>
      <trkpt lat="45.99806" lon="1.21794">
        <ele>316.41</ele>
        <time>2016-09-07T06:00:14Z</time>
      </trkpt>
      <trkpt lat="45.99803" lon="1.21798">
        <ele>316.41</ele>
        <time>2016-09-07T06:00:33Z</time>
      </trkpt>
      <trkpt lat="45.99802" lon="1.218">
        <ele>316.41</ele>
        <time>2016-09-07T06:00:57Z</time>
      </trkpt>
      <trkpt lat="45.99813" lon="1.21789">
        <ele>316.41</ele>
        <time>2016-09-07T06:01:17Z</time>
      </trkpt>
      <trkpt lat="45.99818" lon="1.21791">
        <ele>317.85</ele>
        <time>2016-09-07T06:01:56Z</time>
      </trkpt>
      <trkpt lat="45.99817" lon="1.21793">
        <ele>318.81</ele>
        <time>2016-09-07T06:02:25Z</time>
      </trkpt>
      <trkpt lat="45.99818" lon="1.21789">
        <ele>319.78</ele>
        <time>2016-09-07T06:02:47Z</time>
      </trkpt>
      <trkpt lat="45.99817" lon="1.21787">
        <ele>319.78</ele>
        <time>2016-09-07T06:02:55Z</time>
      </trkpt>
      <trkpt lat="45.99815" lon="1.21787">
        <ele>320.26</ele>
        <time>2016-09-07T06:03:13Z</time>
      </trkpt>
      <trkpt lat="45.99817" lon="1.21788">
        <ele>321.22</ele>
        <time>2016-09-07T06:03:46Z</time>
      </trkpt>
      <trkpt lat="45.99817" lon="1.21791">
        <ele>322.66</ele>
        <time>2016-09-07T06:04:31Z</time>
      </trkpt>
      <trkpt lat="45.99817" lon="1.21787">
        <ele>324.1</ele>
        <time>2016-09-07T06:05:19Z</time>
      </trkpt>
      <trkpt lat="45.99818" lon="1.21789">
        <ele>324.58</ele>
        <time>2016-09-07T06:05:33Z</time>
      </trkpt>
      <trkpt lat="45.99823" lon="1.21787">
        <ele>324.58</ele>
        <time>2016-09-07T06:05:50Z</time>
      </trkpt>
      <trkpt lat="45.99824" lon="1.21787">
        <ele>324.58</ele>
        <time>2016-09-07T06:05:51Z</time>
      </trkpt>
      <trkpt lat="45.99828" lon="1.21781">
        <ele>324.58</ele>
        <time>2016-09-07T06:05:54Z</time>
      </trkpt>
      <trkpt lat="45.9983" lon="1.21779">
        <ele>324.58</ele>
        <time>2016-09-07T06:05:55Z</time>
      </trkpt>
      <trkpt lat="45.99832" lon="1.21777">
        <ele>324.1</ele>
        <time>2016-09-07T06:05:56Z</time>
      </trkpt>
      <trkpt lat="45.99833" lon="1.21773">
        <ele>324.1</ele>
        <time>2016-09-07T06:05:57Z</time>
      </trkpt>
      <trkpt lat="45.99835" lon="1.2177">
        <ele>323.62</ele>
        <time>2016-09-07T06:05:58Z</time>
      </trkpt>
      <trkpt lat="45.99854" lon="1.21729">
        <ele>320.74</ele>
        <time>2016-09-07T06:06:09Z</time>
      </trkpt>
      <trkpt lat="45.99863" lon="1.21708">
        <ele>320.74</ele>
        <time>2016-09-07T06:06:13Z</time>
      </trkpt>
      <trkpt lat="45.9988" lon="1.21683">
        <ele>319.78</ele>
        <time>2016-09-07T06:06:18Z</time>
      </trkpt>
      <trkpt lat="45.99936" lon="1.21644">
        <ele>319.78</ele>
        <time>2016-09-07T06:06:32Z</time>
      </trkpt>
      <trkpt lat="45.99946" lon="1.21638">
        <ele>319.78</ele>
        <time>2016-09-07T06:06:35Z</time>
      </trkpt>
      <trkpt lat="45.9996" lon="1.21632">
        <ele>319.3</ele>
        <time>2016-09-07T06:06:38Z</time>
      </trkpt>
      <trkpt lat="46.00035" lon="1.21646">
        <ele>317.37</ele>
        <time>2016-09-07T06:06:52Z</time>
      </trkpt>
      <trkpt lat="46.00064" lon="1.21666">
        <ele>316.89</ele>
        <time>2016-09-07T06:06:58Z</time>
      </trkpt>
      <trkpt lat="46.00069" lon="1.21667">
        <ele>316.89</ele>
        <time>2016-09-07T06:06:59Z</time>
      </trkpt>
      <trkpt lat="46.00077" lon="1.21668">
        <ele>316.89</ele>
        <time>2016-09-07T06:07:01Z</time>
      </trkpt>
      <trkpt lat="46.00141" lon="1.21663">
        <ele>315.45</ele>
        <time>2016-09-07T06:07:15Z</time>
      </trkpt>
      <trkpt lat="46.00225" lon="1.21676">
        <ele>312.09</ele>
        <time>2016-09-07T06:07:29Z</time>
      </trkpt>
      <trkpt lat="46.0023" lon="1.21675">
        <ele>312.09</ele>
        <time>2016-09-07T06:07:30Z</time>
      </trkpt>
      <trkpt lat="46.00246" lon="1.2165">
        <ele>312.09</ele>
        <time>2016-09-07T06:07:39Z</time>
      </trkpt>
      <trkpt lat="46.00248" lon="1.21634">
        <ele>312.09</ele>
        <time>2016-09-07T06:07:45Z</time>
      </trkpt>
      <trkpt lat="46.00249" lon="1.21629">
        <ele>312.57</ele>
        <time>2016-09-07T06:07:57Z</time>
      </trkpt>
      <trkpt lat="46.0025" lon="1.21617">
        <ele>313.05</ele>
        <time>2016-09-07T06:08:17Z</time>
      </trkpt>
      <trkpt lat="46.0025" lon="1.21617">
        <ele>313.05</ele>
        <time>2016-09-07T06:08:33Z</time>
      </trkpt>
      <trkpt lat="46.0025" lon="1.21617">
        <ele>313.05</ele>
        <time>2016-09-07T06:08:35Z</time>
      </trkpt>
      <trkpt lat="46.0025" lon="1.21615">
        <ele>313.05</ele>
        <time>2016-09-07T06:08:37Z</time>
      </trkpt>
      <trkpt lat="46.00256" lon="1.216">
        <ele>313.53</ele>
        <time>2016-09-07T06:08:50Z</time>
      </trkpt>
      <trkpt lat="46.00256" lon="1.21599">
        <ele>313.53</ele>
        <time>2016-09-07T06:08:51Z</time>
      </trkpt>
      <trkpt lat="46.00257" lon="1.21595">
        <ele>313.53</ele>
        <time>2016-09-07T06:08:54Z</time>
      </trkpt>
      <trkpt lat="46.00259" lon="1.21592">
        <ele>313.53</ele>
        <time>2016-09-07T06:08:57Z</time>
      </trkpt>
      <trkpt lat="46.00264" lon="1.21592">
        <ele>314.97</ele>
        <time>2016-09-07T06:09:03Z</time>
      </trkpt>
      <trkpt lat="46.00272" lon="1.21581">
        <ele>316.89</ele>
        <time>2016-09-07T06:09:19Z</time>
      </trkpt>
      <trkpt lat="46.00271" lon="1.21573">
        <ele>317.85</ele>
        <time>2016-09-07T06:09:27Z</time>
      </trkpt>
      <trkpt lat="46.00263" lon="1.21553">
        <ele>319.3</ele>
        <time>2016-09-07T06:09:37Z</time>
      </trkpt>
      <trkpt lat="46.00247" lon="1.21526">
        <ele>320.26</ele>
        <time>2016-09-07T06:09:49Z</time>
      </trkpt>
      <trkpt lat="46.00244" lon="1.21487">
        <ele>320.74</ele>
        <time>2016-09-07T06:10:01Z</time>
      </trkpt>
      <trkpt lat="46.00238" lon="1.21456">
        <ele>322.66</ele>
        <time>2016-09-07T06:10:12Z</time>
      </trkpt>
      <trkpt lat="46.00239" lon="1.21406">
        <ele>324.1</ele>
        <time>2016-09-07T06:10:24Z</time>
      </trkpt>
      <trkpt lat="46.00239" lon="1.21402">
        <ele>324.1</ele>
        <time>2016-09-07T06:10:25Z</time>
      </trkpt>
      <trkpt lat="46.0024" lon="1.21376">
        <ele>325.54</ele>
        <time>2016-09-07T06:10:33Z</time>
      </trkpt>
      <trkpt lat="46.0024" lon="1.21373">
        <ele>326.02</ele>
        <time>2016-09-07T06:10:34Z</time>
      </trkpt>
      <trkpt lat="46.00241" lon="1.21369">
        <ele>326.02</ele>
        <time>2016-09-07T06:10:35Z</time>
      </trkpt>
      <trkpt lat="46.00245" lon="1.21337">
        <ele>327.95</ele>
        <time>2016-09-07T06:10:45Z</time>
      </trkpt>
      <trkpt lat="46.00245" lon="1.21333">
        <ele>328.43</ele>
        <time>2016-09-07T06:10:46Z</time>
      </trkpt>
      <trkpt lat="46.00246" lon="1.2133">
        <ele>328.43</ele>
        <time>2016-09-07T06:10:47Z</time>
      </trkpt>
      <trkpt lat="46.00246" lon="1.21326">
        <ele>328.91</ele>
        <time>2016-09-07T06:10:48Z</time>
      </trkpt>
      <trkpt lat="46.00247" lon="1.21323">
        <ele>328.91</ele>
        <time>2016-09-07T06:10:49Z</time>
      </trkpt>
      <trkpt lat="46.00247" lon="1.21321">
        <ele>328.91</ele>
        <time>2016-09-07T06:10:50Z</time>
      </trkpt>
      <trkpt lat="46.00247" lon="1.21318">
        <ele>328.91</ele>
        <time>2016-09-07T06:10:51Z</time>
      </trkpt>
      <trkpt lat="46.00247" lon="1.21315">
        <ele>329.39</ele>
        <time>2016-09-07T06:10:52Z</time>
      </trkpt>
      <trkpt lat="46.00248" lon="1.21308">
        <ele>329.87</ele>
        <time>2016-09-07T06:10:54Z</time>
      </trkpt>
      <trkpt lat="46.00249" lon="1.21305">
        <ele>329.87</ele>
        <time>2016-09-07T06:10:55Z</time>
      </trkpt>
      <trkpt lat="46.00252" lon="1.21288">
        <ele>330.83</ele>
        <time>2016-09-07T06:11:02Z</time>
      </trkpt>
      <trkpt lat="46.00261" lon="1.21241">
        <ele>332.27</ele>
        <time>2016-09-07T06:11:13Z</time>
      </trkpt>
      <trkpt lat="46.0027" lon="1.21186">
        <ele>333.71</ele>
        <time>2016-09-07T06:11:27Z</time>
      </trkpt>
      <trkpt lat="46.00281" lon="1.21134">
        <ele>335.16</ele>
        <time>2016-09-07T06:11:42Z</time>
      </trkpt>
      <trkpt lat="46.00302" lon="1.2107">
        <ele>337.08</ele>
        <time>2016-09-07T06:12:00Z</time>
      </trkpt>
      <trkpt lat="46.00305" lon="1.21057">
        <ele>337.08</ele>
        <time>2016-09-07T06:12:03Z</time>
      </trkpt>
      <trkpt lat="46.00307" lon="1.21053">
        <ele>337.08</ele>
        <time>2016-09-07T06:12:04Z</time>
      </trkpt>
      <trkpt lat="46.00312" lon="1.21043">
        <ele>335.64</ele>
        <time>2016-09-07T06:12:06Z</time>
      </trkpt>
      <trkpt lat="46.00338" lon="1.21003">
        <ele>334.2</ele>
        <time>2016-09-07T06:12:14Z</time>
      </trkpt>
      <trkpt lat="46.00374" lon="1.20967">
        <ele>333.23</ele>
        <time>2016-09-07T06:12:23Z</time>
      </trkpt>
      <trkpt lat="46.00378" lon="1.20962">
        <ele>333.23</ele>
        <time>2016-09-07T06:12:24Z</time>
      </trkpt>
      <trkpt lat="46.00419" lon="1.20914">
        <ele>332.27</ele>
        <time>2016-09-07T06:12:35Z</time>
      </trkpt>
      <trkpt lat="46.00423" lon="1.2091">
        <ele>332.27</ele>
        <time>2016-09-07T06:12:36Z</time>
      </trkpt>
      <trkpt lat="46.00431" lon="1.20901">
        <ele>331.79</ele>
        <time>2016-09-07T06:12:38Z</time>
      </trkpt>
      <trkpt lat="46.00434" lon="1.20896">
        <ele>331.79</ele>
        <time>2016-09-07T06:12:39Z</time>
      </trkpt>
      <trkpt lat="46.00437" lon="1.20891">
        <ele>331.79</ele>
        <time>2016-09-07T06:12:40Z</time>
      </trkpt>
      <trkpt lat="46.00439" lon="1.20886">
        <ele>331.31</ele>
        <time>2016-09-07T06:12:41Z</time>
      </trkpt>
      <trkpt lat="46.00442" lon="1.20881">
        <ele>331.31</ele>
        <time>2016-09-07T06:12:42Z</time>
      </trkpt>
      <trkpt lat="46.00451" lon="1.20855">
        <ele>330.83</ele>
        <time>2016-09-07T06:12:48Z</time>
      </trkpt>
      <trkpt lat="46.00453" lon="1.20853">
        <ele>330.83</ele>
        <time>2016-09-07T06:12:49Z</time>
      </trkpt>
      <trkpt lat="46.00484" lon="1.20823">
        <ele>328.43</ele>
        <time>2016-09-07T06:13:01Z</time>
      </trkpt>
      <trkpt lat="46.00495" lon="1.20804">
        <ele>327.47</ele>
        <time>2016-09-07T06:13:06Z</time>
      </trkpt>
      <trkpt lat="46.00501" lon="1.20788">
        <ele>326.99</ele>
        <time>2016-09-07T06:13:10Z</time>
      </trkpt>
      <trkpt lat="46.00524" lon="1.20743">
        <ele>326.02</ele>
        <time>2016-09-07T06:13:21Z</time>
      </trkpt>
      <trkpt lat="46.00546" lon="1.20707">
        <ele>324.58</ele>
        <time>2016-09-07T06:13:31Z</time>
      </trkpt>
      <trkpt lat="46.00566" lon="1.20675">
        <ele>321.7</ele>
        <time>2016-09-07T06:13:39Z</time>
      </trkpt>
      <trkpt lat="46.00593" lon="1.20636">
        <ele>318.81</ele>
        <time>2016-09-07T06:13:48Z</time>
      </trkpt>
      <trkpt lat="46.0062" lon="1.20606">
        <ele>315.93</ele>
        <time>2016-09-07T06:13:57Z</time>
      </trkpt>
      <trkpt lat="46.00627" lon="1.20598">
        <ele>314.97</ele>
        <time>2016-09-07T06:13:59Z</time>
      </trkpt>
      <trkpt lat="46.0064" lon="1.20575">
        <ele>313.05</ele>
        <time>2016-09-07T06:14:04Z</time>
      </trkpt>
      <trkpt lat="46.00644" lon="1.20567">
        <ele>312.09</ele>
        <time>2016-09-07T06:14:06Z</time>
      </trkpt>
      <trkpt lat="46.00677" lon="1.20548">
        <ele>308.72</ele>
        <time>2016-09-07T06:14:17Z</time>
      </trkpt>
      <trkpt lat="46.00681" lon="1.20546">
        <ele>308.72</ele>
        <time>2016-09-07T06:14:18Z</time>
      </trkpt>
      <trkpt lat="46.00734" lon="1.20501">
        <ele>306.32</ele>
        <time>2016-09-07T06:14:33Z</time>
      </trkpt>
      <trkpt lat="46.00742" lon="1.20489">
        <ele>304.39</ele>
        <time>2016-09-07T06:14:37Z</time>
      </trkpt>
      <trkpt lat="46.00773" lon="1.2046">
        <ele>301.51</ele>
        <time>2016-09-07T06:14:48Z</time>
      </trkpt>
      <trkpt lat="46.008" lon="1.20434">
        <ele>299.59</ele>
        <time>2016-09-07T06:14:56Z</time>
      </trkpt>
      <trkpt lat="46.00805" lon="1.2043">
        <ele>299.59</ele>
        <time>2016-09-07T06:14:57Z</time>
      </trkpt>
      <trkpt lat="46.00867" lon="1.20376">
        <ele>298.15</ele>
        <time>2016-09-07T06:15:11Z</time>
      </trkpt>
      <trkpt lat="46.0089" lon="1.20359">
        <ele>298.15</ele>
        <time>2016-09-07T06:15:17Z</time>
      </trkpt>
      <trkpt lat="46.00913" lon="1.20351">
        <ele>298.63</ele>
        <time>2016-09-07T06:15:23Z</time>
      </trkpt>
      <trkpt lat="46.00918" lon="1.20351">
        <ele>298.63</ele>
        <time>2016-09-07T06:15:24Z</time>
      </trkpt>
      <trkpt lat="46.00922" lon="1.20353">
        <ele>298.63</ele>
        <time>2016-09-07T06:15:25Z</time>
      </trkpt>
      <trkpt lat="46.00935" lon="1.20357">
        <ele>298.63</ele>
        <time>2016-09-07T06:15:28Z</time>
      </trkpt>
      <trkpt lat="46.00939" lon="1.20358">
        <ele>298.63</ele>
        <time>2016-09-07T06:15:29Z</time>
      </trkpt>
      <trkpt lat="46.00989" lon="1.20373">
        <ele>298.63</ele>
        <time>2016-09-07T06:15:43Z</time>
      </trkpt>
      <trkpt lat="46.01027" lon="1.20401">
        <ele>299.11</ele>
        <time>2016-09-07T06:15:57Z</time>
      </trkpt>
      <trkpt lat="46.01055" lon="1.20418">
        <ele>299.59</ele>
        <time>2016-09-07T06:16:09Z</time>
      </trkpt>
      <trkpt lat="46.01079" lon="1.20433">
        <ele>301.03</ele>
        <time>2016-09-07T06:16:21Z</time>
      </trkpt>
      <trkpt lat="46.01119" lon="1.20447">
        <ele>301.03</ele>
        <time>2016-09-07T06:16:34Z</time>
      </trkpt>
      <trkpt lat="46.01156" lon="1.20463">
        <ele>301.51</ele>
        <time>2016-09-07T06:16:47Z</time>
      </trkpt>
      <trkpt lat="46.01207" lon="1.20489">
        <ele>301.51</ele>
        <time>2016-09-07T06:17:04Z</time>
      </trkpt>
      <trkpt lat="46.0124" lon="1.20508">
        <ele>301.03</ele>
        <time>2016-09-07T06:17:18Z</time>
      </trkpt>
      <trkpt lat="46.01241" lon="1.20515">
        <ele>301.03</ele>
        <time>2016-09-07T06:17:20Z</time>
      </trkpt>
      <trkpt lat="46.01237" lon="1.20589">
        <ele>300.55</ele>
        <time>2016-09-07T06:17:33Z</time>
      </trkpt>
      <trkpt lat="46.01236" lon="1.20601">
        <ele>300.55</ele>
        <time>2016-09-07T06:17:35Z</time>
      </trkpt>
      <trkpt lat="46.01237" lon="1.20607">
        <ele>300.55</ele>
        <time>2016-09-07T06:17:36Z</time>
      </trkpt>
      <trkpt lat="46.01238" lon="1.20613">
        <ele>300.55</ele>
        <time>2016-09-07T06:17:37Z</time>
      </trkpt>
      <trkpt lat="46.0124" lon="1.20619">
        <ele>300.55</ele>
        <time>2016-09-07T06:17:38Z</time>
      </trkpt>
      <trkpt lat="46.01242" lon="1.20624">
        <ele>300.55</ele>
        <time>2016-09-07T06:17:39Z</time>
      </trkpt>
      <trkpt lat="46.01244" lon="1.20627">
        <ele>301.03</ele>
        <time>2016-09-07T06:17:40Z</time>
      </trkpt>
      <trkpt lat="46.01248" lon="1.2063">
        <ele>301.03</ele>
        <time>2016-09-07T06:17:41Z</time>
      </trkpt>
      <trkpt lat="46.01251" lon="1.20632">
        <ele>301.99</ele>
        <time>2016-09-07T06:17:42Z</time>
      </trkpt>
      <trkpt lat="46.01284" lon="1.20653">
        <ele>305.36</ele>
        <time>2016-09-07T06:17:55Z</time>
      </trkpt>
      <trkpt lat="46.01323" lon="1.20689">
        <ele>306.32</ele>
        <time>2016-09-07T06:18:10Z</time>
      </trkpt>
      <trkpt lat="46.01333" lon="1.20705">
        <ele>305.84</ele>
        <time>2016-09-07T06:18:13Z</time>
      </trkpt>
      <trkpt lat="46.01335" lon="1.20711">
        <ele>305.84</ele>
        <time>2016-09-07T06:18:14Z</time>
      </trkpt>
      <trkpt lat="46.01337" lon="1.20717">
        <ele>305.84</ele>
        <time>2016-09-07T06:18:15Z</time>
      </trkpt>
      <trkpt lat="46.01338" lon="1.20722">
        <ele>305.36</ele>
        <time>2016-09-07T06:18:16Z</time>
      </trkpt>
      <trkpt lat="46.01339" lon="1.20727">
        <ele>305.36</ele>
        <time>2016-09-07T06:18:17Z</time>
      </trkpt>
      <trkpt lat="46.01339" lon="1.20732">
        <ele>305.36</ele>
        <time>2016-09-07T06:18:18Z</time>
      </trkpt>
      <trkpt lat="46.0134" lon="1.20736">
        <ele>305.36</ele>
        <time>2016-09-07T06:18:19Z</time>
      </trkpt>
      <trkpt lat="46.01342" lon="1.20739">
        <ele>305.36</ele>
        <time>2016-09-07T06:18:20Z</time>
      </trkpt>
      <trkpt lat="46.01344" lon="1.20742">
        <ele>305.36</ele>
        <time>2016-09-07T06:18:21Z</time>
      </trkpt>
      <trkpt lat="46.01346" lon="1.20744">
        <ele>305.36</ele>
        <time>2016-09-07T06:18:22Z</time>
      </trkpt>
      <trkpt lat="46.01349" lon="1.20746">
        <ele>305.36</ele>
        <time>2016-09-07T06:18:23Z</time>
      </trkpt>
      <trkpt lat="46.01352" lon="1.20748">
        <ele>305.36</ele>
        <time>2016-09-07T06:18:24Z</time>
      </trkpt>
      <trkpt lat="46.01356" lon="1.20749">
        <ele>305.36</ele>
        <time>2016-09-07T06:18:25Z</time>
      </trkpt>
      <trkpt lat="46.01359" lon="1.2075">
        <ele>305.36</ele>
        <time>2016-09-07T06:18:26Z</time>
      </trkpt>
      <trkpt lat="46.01361" lon="1.20749">
        <ele>305.36</ele>
        <time>2016-09-07T06:18:27Z</time>
      </trkpt>
      <trkpt lat="46.01364" lon="1.20748">
        <ele>305.84</ele>
        <time>2016-09-07T06:18:28Z</time>
      </trkpt>
      <trkpt lat="46.01366" lon="1.20745">
        <ele>305.84</ele>
        <time>2016-09-07T06:18:29Z</time>
      </trkpt>
      <trkpt lat="46.01368" lon="1.20741">
        <ele>305.84</ele>
        <time>2016-09-07T06:18:30Z</time>
      </trkpt>
      <trkpt lat="46.0137" lon="1.20736">
        <ele>305.84</ele>
        <time>2016-09-07T06:18:31Z</time>
      </trkpt>
      <trkpt lat="46.01377" lon="1.20722">
        <ele>303.91</ele>
        <time>2016-09-07T06:18:34Z</time>
      </trkpt>
      <trkpt lat="46.01413" lon="1.20693">
        <ele>301.03</ele>
        <time>2016-09-07T06:18:45Z</time>
      </trkpt>
      <trkpt lat="46.01455" lon="1.20669">
        <ele>299.59</ele>
        <time>2016-09-07T06:18:55Z</time>
      </trkpt>
      <trkpt lat="46.01465" lon="1.20663">
        <ele>299.11</ele>
        <time>2016-09-07T06:18:57Z</time>
      </trkpt>
      <trkpt lat="46.01469" lon="1.20661">
        <ele>299.11</ele>
        <time>2016-09-07T06:18:58Z</time>
      </trkpt>
      <trkpt lat="46.01491" lon="1.2065">
        <ele>298.63</ele>
        <time>2016-09-07T06:19:03Z</time>
      </trkpt>
      <trkpt lat="46.01494" lon="1.20649">
        <ele>298.63</ele>
        <time>2016-09-07T06:19:04Z</time>
      </trkpt>
      <trkpt lat="46.01497" lon="1.20648">
        <ele>298.63</ele>
        <time>2016-09-07T06:19:05Z</time>
      </trkpt>
      <trkpt lat="46.01501" lon="1.20646">
        <ele>299.11</ele>
        <time>2016-09-07T06:19:06Z</time>
      </trkpt>
      <trkpt lat="46.01503" lon="1.20645">
        <ele>299.11</ele>
        <time>2016-09-07T06:19:07Z</time>
      </trkpt>
      <trkpt lat="46.01546" lon="1.2063">
        <ele>299.11</ele>
        <time>2016-09-07T06:19:18Z</time>
      </trkpt>
      <trkpt lat="46.01596" lon="1.20619">
        <ele>299.11</ele>
        <time>2016-09-07T06:19:32Z</time>
      </trkpt>
      <trkpt lat="46.01621" lon="1.20624">
        <ele>296.22</ele>
        <time>2016-09-07T06:19:41Z</time>
      </trkpt>
      <trkpt lat="46.01624" lon="1.20628">
        <ele>295.74</ele>
        <time>2016-09-07T06:19:42Z</time>
      </trkpt>
      <trkpt lat="46.01625" lon="1.20632">
        <ele>295.26</ele>
        <time>2016-09-07T06:19:43Z</time>
      </trkpt>
      <trkpt lat="46.01626" lon="1.20638">
        <ele>294.3</ele>
        <time>2016-09-07T06:19:44Z</time>
      </trkpt>
      <trkpt lat="46.01627" lon="1.20644">
        <ele>294.3</ele>
        <time>2016-09-07T06:19:45Z</time>
      </trkpt>
      <trkpt lat="46.01633" lon="1.20655">
        <ele>293.82</ele>
        <time>2016-09-07T06:19:47Z</time>
      </trkpt>
      <trkpt lat="46.01638" lon="1.2066">
        <ele>293.34</ele>
        <time>2016-09-07T06:19:48Z</time>
      </trkpt>
      <trkpt lat="46.01642" lon="1.20667">
        <ele>293.34</ele>
        <time>2016-09-07T06:19:49Z</time>
      </trkpt>
      <trkpt lat="46.01646" lon="1.20672">
        <ele>293.34</ele>
        <time>2016-09-07T06:19:50Z</time>
      </trkpt>
      <trkpt lat="46.01651" lon="1.20678">
        <ele>293.34</ele>
        <time>2016-09-07T06:19:51Z</time>
      </trkpt>
      <trkpt lat="46.01691" lon="1.20716">
        <ele>293.34</ele>
        <time>2016-09-07T06:20:03Z</time>
      </trkpt>
      <trkpt lat="46.01721" lon="1.2073">
        <ele>292.86</ele>
        <time>2016-09-07T06:20:14Z</time>
      </trkpt>
      <trkpt lat="46.01767" lon="1.20726">
        <ele>290.46</ele>
        <time>2016-09-07T06:20:29Z</time>
      </trkpt>
      <trkpt lat="46.01787" lon="1.20725">
        <ele>289.01</ele>
        <time>2016-09-07T06:20:40Z</time>
      </trkpt>
      <trkpt lat="46.01788" lon="1.20725">
        <ele>289.01</ele>
        <time>2016-09-07T06:20:46Z</time>
      </trkpt>
      <trkpt lat="46.01809" lon="1.20714">
        <ele>286.13</ele>
        <time>2016-09-07T06:20:55Z</time>
      </trkpt>
      <trkpt lat="46.01819" lon="1.2069">
        <ele>285.17</ele>
        <time>2016-09-07T06:21:02Z</time>
      </trkpt>
      <trkpt lat="46.01823" lon="1.20687">
        <ele>285.17</ele>
        <time>2016-09-07T06:21:03Z</time>
      </trkpt>
      <trkpt lat="46.01843" lon="1.20664">
        <ele>284.69</ele>
        <time>2016-09-07T06:21:11Z</time>
      </trkpt>
      <trkpt lat="46.01851" lon="1.20668">
        <ele>283.73</ele>
        <time>2016-09-07T06:21:16Z</time>
      </trkpt>
      <trkpt lat="46.0185" lon="1.20673">
        <ele>283.25</ele>
        <time>2016-09-07T06:21:17Z</time>
      </trkpt>
      <trkpt lat="46.0185" lon="1.20676">
        <ele>283.25</ele>
        <time>2016-09-07T06:21:18Z</time>
      </trkpt>
      <trkpt lat="46.01849" lon="1.20681">
        <ele>283.25</ele>
        <time>2016-09-07T06:21:19Z</time>
      </trkpt>
      <trkpt lat="46.01855" lon="1.20728">
        <ele>281.8</ele>
        <time>2016-09-07T06:21:27Z</time>
      </trkpt>
      <trkpt lat="46.0187" lon="1.20763">
        <ele>280.36</ele>
        <time>2016-09-07T06:21:33Z</time>
      </trkpt>
      <trkpt lat="46.01881" lon="1.20778">
        <ele>279.88</ele>
        <time>2016-09-07T06:21:36Z</time>
      </trkpt>
      <trkpt lat="46.01888" lon="1.20787">
        <ele>279.4</ele>
        <time>2016-09-07T06:21:38Z</time>
      </trkpt>
      <trkpt lat="46.01891" lon="1.20791">
        <ele>279.88</ele>
        <time>2016-09-07T06:21:39Z</time>
      </trkpt>
      <trkpt lat="46.01894" lon="1.20795">
        <ele>279.88</ele>
        <time>2016-09-07T06:21:40Z</time>
      </trkpt>
      <trkpt lat="46.01907" lon="1.20806">
        <ele>279.4</ele>
        <time>2016-09-07T06:21:46Z</time>
      </trkpt>
      <trkpt lat="46.01908" lon="1.20806">
        <ele>279.4</ele>
        <time>2016-09-07T06:21:47Z</time>
      </trkpt>
      <trkpt lat="46.0191" lon="1.20805">
        <ele>279.4</ele>
        <time>2016-09-07T06:21:48Z</time>
      </trkpt>
      <trkpt lat="46.01911" lon="1.20804">
        <ele>279.4</ele>
        <time>2016-09-07T06:21:49Z</time>
      </trkpt>
      <trkpt lat="46.01912" lon="1.20803">
        <ele>279.4</ele>
        <time>2016-09-07T06:21:50Z</time>
      </trkpt>
      <trkpt lat="46.01912" lon="1.20798">
        <ele>279.88</ele>
        <time>2016-09-07T06:22:00Z</time>
      </trkpt>
      <trkpt lat="46.01912" lon="1.20796">
        <ele>279.88</ele>
        <time>2016-09-07T06:22:01Z</time>
      </trkpt>
      <trkpt lat="46.01916" lon="1.20775">
        <ele>279.88</ele>
        <time>2016-09-07T06:22:09Z</time>
      </trkpt>
      <trkpt lat="46.01919" lon="1.20771">
        <ele>281.32</ele>
        <time>2016-09-07T06:22:13Z</time>
      </trkpt>
      <trkpt lat="46.01926" lon="1.2076">
        <ele>284.69</ele>
        <time>2016-09-07T06:22:22Z</time>
      </trkpt>
      <trkpt lat="46.01928" lon="1.20758">
        <ele>285.17</ele>
        <time>2016-09-07T06:22:24Z</time>
      </trkpt>
      <trkpt lat="46.01937" lon="1.20747">
        <ele>288.05</ele>
        <time>2016-09-07T06:22:37Z</time>
      </trkpt>
      <trkpt lat="46.01943" lon="1.20735">
        <ele>289.49</ele>
        <time>2016-09-07T06:22:48Z</time>
      </trkpt>
      <trkpt lat="46.01947" lon="1.20718">
        <ele>290.94</ele>
        <time>2016-09-07T06:23:03Z</time>
      </trkpt>
      <trkpt lat="46.01955" lon="1.20696">
        <ele>293.82</ele>
        <time>2016-09-07T06:23:18Z</time>
      </trkpt>
      <trkpt lat="46.01962" lon="1.20679">
        <ele>295.26</ele>
        <time>2016-09-07T06:23:28Z</time>
      </trkpt>
      <trkpt lat="46.01974" lon="1.20652">
        <ele>297.67</ele>
        <time>2016-09-07T06:23:43Z</time>
      </trkpt>
      <trkpt lat="46.01975" lon="1.20651">
        <ele>297.67</ele>
        <time>2016-09-07T06:23:44Z</time>
      </trkpt>
      <trkpt lat="46.01977" lon="1.20647">
        <ele>298.15</ele>
        <time>2016-09-07T06:23:46Z</time>
      </trkpt>
      <trkpt lat="46.01995" lon="1.2062">
        <ele>300.55</ele>
        <time>2016-09-07T06:24:01Z</time>
      </trkpt>
      <trkpt lat="46.02018" lon="1.20605">
        <ele>301.99</ele>
        <time>2016-09-07T06:24:15Z</time>
      </trkpt>
      <trkpt lat="46.02039" lon="1.20601">
        <ele>303.91</ele>
        <time>2016-09-07T06:24:26Z</time>
      </trkpt>
      <trkpt lat="46.02052" lon="1.20601">
        <ele>305.36</ele>
        <time>2016-09-07T06:24:34Z</time>
      </trkpt>
      <trkpt lat="46.02076" lon="1.20599">
        <ele>306.8</ele>
        <time>2016-09-07T06:24:48Z</time>
      </trkpt>
      <trkpt lat="46.02102" lon="1.20599">
        <ele>308.72</ele>
        <time>2016-09-07T06:25:04Z</time>
      </trkpt>
      <trkpt lat="46.02123" lon="1.2059">
        <ele>311.6</ele>
        <time>2016-09-07T06:25:16Z</time>
      </trkpt>
      <trkpt lat="46.02139" lon="1.20567">
        <ele>312.09</ele>
        <time>2016-09-07T06:25:26Z</time>
      </trkpt>
      <trkpt lat="46.02153" lon="1.20552">
        <ele>310.64</ele>
        <time>2016-09-07T06:25:32Z</time>
      </trkpt>
      <trkpt lat="46.02173" lon="1.20525">
        <ele>307.76</ele>
        <time>2016-09-07T06:25:39Z</time>
      </trkpt>
      <trkpt lat="46.02176" lon="1.2052">
        <ele>307.28</ele>
        <time>2016-09-07T06:25:40Z</time>
      </trkpt>
      <trkpt lat="46.02183" lon="1.20513">
        <ele>306.8</ele>
        <time>2016-09-07T06:25:42Z</time>
      </trkpt>
      <trkpt lat="46.02231" lon="1.20472">
        <ele>304.88</ele>
        <time>2016-09-07T06:25:55Z</time>
      </trkpt>
      <trkpt lat="46.02243" lon="1.20453">
        <ele>306.32</ele>
        <time>2016-09-07T06:26:02Z</time>
      </trkpt>
      <trkpt lat="46.02265" lon="1.20444">
        <ele>307.76</ele>
        <time>2016-09-07T06:26:13Z</time>
      </trkpt>
      <trkpt lat="46.02288" lon="1.2045">
        <ele>308.24</ele>
        <time>2016-09-07T06:26:25Z</time>
      </trkpt>
      <trkpt lat="46.02322" lon="1.20469">
        <ele>308.24</ele>
        <time>2016-09-07T06:26:37Z</time>
      </trkpt>
      <trkpt lat="46.0235" lon="1.20455">
        <ele>308.24</ele>
        <time>2016-09-07T06:26:46Z</time>
      </trkpt>
      <trkpt lat="46.02381" lon="1.20449">
        <ele>310.16</ele>
        <time>2016-09-07T06:26:58Z</time>
      </trkpt>
      <trkpt lat="46.02422" lon="1.20461">
        <ele>311.12</ele>
        <time>2016-09-07T06:27:12Z</time>
      </trkpt>
      <trkpt lat="46.02451" lon="1.20452">
        <ele>311.12</ele>
        <time>2016-09-07T06:27:21Z</time>
      </trkpt>
      <trkpt lat="46.0245" lon="1.20454">
        <ele>311.12</ele>
        <time>2016-09-07T06:27:26Z</time>
      </trkpt>
      <trkpt lat="46.02451" lon="1.20457">
        <ele>311.12</ele>
        <time>2016-09-07T06:27:28Z</time>
      </trkpt>
      <trkpt lat="46.02461" lon="1.2047">
        <ele>311.6</ele>
        <time>2016-09-07T06:27:38Z</time>
      </trkpt>
      <trkpt lat="46.02463" lon="1.20475">
        <ele>311.6</ele>
        <time>2016-09-07T06:27:40Z</time>
      </trkpt>
      <trkpt lat="46.02466" lon="1.2049">
        <ele>312.09</ele>
        <time>2016-09-07T06:27:45Z</time>
      </trkpt>
      <trkpt lat="46.02488" lon="1.20518">
        <ele>314.49</ele>
        <time>2016-09-07T06:27:59Z</time>
      </trkpt>
      <trkpt lat="46.02498" lon="1.20548">
        <ele>315.45</ele>
        <time>2016-09-07T06:28:10Z</time>
      </trkpt>
      <trkpt lat="46.02502" lon="1.20581">
        <ele>315.93</ele>
        <time>2016-09-07T06:28:20Z</time>
      </trkpt>
      <trkpt lat="46.02503" lon="1.20604">
        <ele>316.89</ele>
        <time>2016-09-07T06:28:28Z</time>
      </trkpt>
      <trkpt lat="46.02502" lon="1.2061">
        <ele>316.89</ele>
        <time>2016-09-07T06:28:30Z</time>
      </trkpt>
      <trkpt lat="46.02492" lon="1.20651">
        <ele>317.37</ele>
        <time>2016-09-07T06:28:43Z</time>
      </trkpt>
      <trkpt lat="46.02489" lon="1.20671">
        <ele>318.33</ele>
        <time>2016-09-07T06:28:48Z</time>
      </trkpt>
      <trkpt lat="46.02489" lon="1.20684">
        <ele>318.81</ele>
        <time>2016-09-07T06:28:52Z</time>
      </trkpt>
      <trkpt lat="46.02487" lon="1.20688">
        <ele>319.3</ele>
        <time>2016-09-07T06:28:53Z</time>
      </trkpt>
      <trkpt lat="46.02474" lon="1.20743">
        <ele>320.74</ele>
        <time>2016-09-07T06:29:05Z</time>
      </trkpt>
      <trkpt lat="46.02472" lon="1.20747">
        <ele>320.74</ele>
        <time>2016-09-07T06:29:06Z</time>
      </trkpt>
      <trkpt lat="46.02462" lon="1.20773">
        <ele>321.7</ele>
        <time>2016-09-07T06:29:10Z</time>
      </trkpt>
      <trkpt lat="46.02447" lon="1.20791">
        <ele>324.1</ele>
        <time>2016-09-07T06:29:20Z</time>
      </trkpt>
      <trkpt lat="46.02443" lon="1.20809">
        <ele>325.54</ele>
        <time>2016-09-07T06:29:29Z</time>
      </trkpt>
      <trkpt lat="46.0244" lon="1.20833">
        <ele>327.47</ele>
        <time>2016-09-07T06:29:39Z</time>
      </trkpt>
      <trkpt lat="46.02434" lon="1.20846">
        <ele>328.91</ele>
        <time>2016-09-07T06:29:44Z</time>
      </trkpt>
      <trkpt lat="46.02418" lon="1.20857">
        <ele>330.35</ele>
        <time>2016-09-07T06:29:52Z</time>
      </trkpt>
      <trkpt lat="46.02402" lon="1.2086">
        <ele>332.27</ele>
        <time>2016-09-07T06:30:00Z</time>
      </trkpt>
      <trkpt lat="46.02383" lon="1.20865">
        <ele>335.16</ele>
        <time>2016-09-07T06:30:13Z</time>
      </trkpt>
      <trkpt lat="46.0237" lon="1.20869">
        <ele>336.6</ele>
        <time>2016-09-07T06:30:22Z</time>
      </trkpt>
      <trkpt lat="46.02346" lon="1.20873">
        <ele>339.96</ele>
        <time>2016-09-07T06:30:37Z</time>
      </trkpt>
      <trkpt lat="46.02328" lon="1.20882">
        <ele>342.37</ele>
        <time>2016-09-07T06:30:50Z</time>
      </trkpt>
      <trkpt lat="46.02323" lon="1.20885">
        <ele>342.85</ele>
        <time>2016-09-07T06:30:54Z</time>
      </trkpt>
      <trkpt lat="46.02321" lon="1.20894">
        <ele>344.29</ele>
        <time>2016-09-07T06:30:58Z</time>
      </trkpt>
      <trkpt lat="46.02328" lon="1.20914">
        <ele>345.25</ele>
        <time>2016-09-07T06:31:07Z</time>
      </trkpt>
      <trkpt lat="46.02332" lon="1.20921">
        <ele>346.21</ele>
        <time>2016-09-07T06:31:11Z</time>
      </trkpt>
      <trkpt lat="46.02338" lon="1.20934">
        <ele>346.69</ele>
        <time>2016-09-07T06:31:17Z</time>
      </trkpt>
      <trkpt lat="46.02357" lon="1.20973">
        <ele>349.1</ele>
        <time>2016-09-07T06:31:33Z</time>
      </trkpt>
      <trkpt lat="46.02382" lon="1.21025">
        <ele>351.5</ele>
        <time>2016-09-07T06:31:52Z</time>
      </trkpt>
      <trkpt lat="46.02394" lon="1.21074">
        <ele>353.42</ele>
        <time>2016-09-07T06:32:06Z</time>
      </trkpt>
      <trkpt lat="46.02416" lon="1.21112">
        <ele>355.83</ele>
        <time>2016-09-07T06:32:22Z</time>
      </trkpt>
      <trkpt lat="46.02431" lon="1.21135">
        <ele>356.79</ele>
        <time>2016-09-07T06:32:32Z</time>
      </trkpt>
      <trkpt lat="46.02451" lon="1.21175">
        <ele>358.23</ele>
        <time>2016-09-07T06:32:45Z</time>
      </trkpt>
      <trkpt lat="46.02471" lon="1.21208">
        <ele>360.15</ele>
        <time>2016-09-07T06:32:57Z</time>
      </trkpt>
      <trkpt lat="46.02485" lon="1.21252">
        <ele>360.63</ele>
        <time>2016-09-07T06:33:10Z</time>
      </trkpt>
      <trkpt lat="46.02489" lon="1.213">
        <ele>360.63</ele>
        <time>2016-09-07T06:33:21Z</time>
      </trkpt>
      <trkpt lat="46.02494" lon="1.2134">
        <ele>361.59</ele>
        <time>2016-09-07T06:33:33Z</time>
      </trkpt>
      <trkpt lat="46.02494" lon="1.21342">
        <ele>361.59</ele>
        <time>2016-09-07T06:33:34Z</time>
      </trkpt>
      <trkpt lat="46.02511" lon="1.21344">
        <ele>363.04</ele>
        <time>2016-09-07T06:33:44Z</time>
      </trkpt>
      <trkpt lat="46.02538" lon="1.21349">
        <ele>365.92</ele>
        <time>2016-09-07T06:33:59Z</time>
      </trkpt>
      <trkpt lat="46.02565" lon="1.21354">
        <ele>368.32</ele>
        <time>2016-09-07T06:34:13Z</time>
      </trkpt>
      <trkpt lat="46.02595" lon="1.21379">
        <ele>370.73</ele>
        <time>2016-09-07T06:34:29Z</time>
      </trkpt>
      <trkpt lat="46.02623" lon="1.21399">
        <ele>372.17</ele>
        <time>2016-09-07T06:34:42Z</time>
      </trkpt>
      <trkpt lat="46.02656" lon="1.21427">
        <ele>373.61</ele>
        <time>2016-09-07T06:34:57Z</time>
      </trkpt>
      <trkpt lat="46.0268" lon="1.21452">
        <ele>374.09</ele>
        <time>2016-09-07T06:35:08Z</time>
      </trkpt>
      <trkpt lat="46.02704" lon="1.21446">
        <ele>375.53</ele>
        <time>2016-09-07T06:35:20Z</time>
      </trkpt>
      <trkpt lat="46.02728" lon="1.21403">
        <ele>376.97</ele>
        <time>2016-09-07T06:35:36Z</time>
      </trkpt>
      <trkpt lat="46.0275" lon="1.21351">
        <ele>379.38</ele>
        <time>2016-09-07T06:35:52Z</time>
      </trkpt>
      <trkpt lat="46.02761" lon="1.21297">
        <ele>379.86</ele>
        <time>2016-09-07T06:36:05Z</time>
      </trkpt>
      <trkpt lat="46.02785" lon="1.21237">
        <ele>379.86</ele>
        <time>2016-09-07T06:36:21Z</time>
      </trkpt>
      <trkpt lat="46.02814" lon="1.21187">
        <ele>378.42</ele>
        <time>2016-09-07T06:36:35Z</time>
      </trkpt>
      <trkpt lat="46.02838" lon="1.21195">
        <ele>379.86</ele>
        <time>2016-09-07T06:36:43Z</time>
      </trkpt>
      <trkpt lat="46.02869" lon="1.21211">
        <ele>383.22</ele>
        <time>2016-09-07T06:36:57Z</time>
      </trkpt>
      <trkpt lat="46.029" lon="1.21224">
        <ele>383.7</ele>
        <time>2016-09-07T06:37:09Z</time>
      </trkpt>
      <trkpt lat="46.02936" lon="1.21272">
        <ele>383.7</ele>
        <time>2016-09-07T06:37:23Z</time>
      </trkpt>
      <trkpt lat="46.02963" lon="1.21302">
        <ele>384.18</ele>
        <time>2016-09-07T06:37:34Z</time>
      </trkpt>
      <trkpt lat="46.02986" lon="1.21329">
        <ele>386.59</ele>
        <time>2016-09-07T06:37:47Z</time>
      </trkpt>
      <trkpt lat="46.03014" lon="1.21351">
        <ele>388.99</ele>
        <time>2016-09-07T06:38:01Z</time>
      </trkpt>
      <trkpt lat="46.03041" lon="1.21362">
        <ele>390.43</ele>
        <time>2016-09-07T06:38:14Z</time>
      </trkpt>
      <trkpt lat="46.03072" lon="1.21356">
        <ele>391.87</ele>
        <time>2016-09-07T06:38:27Z</time>
      </trkpt>
      <trkpt lat="46.03078" lon="1.21355">
        <ele>391.87</ele>
        <time>2016-09-07T06:38:29Z</time>
      </trkpt>
      <trkpt lat="46.03101" lon="1.21393">
        <ele>393.32</ele>
        <time>2016-09-07T06:38:41Z</time>
      </trkpt>
      <trkpt lat="46.03106" lon="1.21401">
        <ele>393.32</ele>
        <time>2016-09-07T06:38:44Z</time>
      </trkpt>
      <trkpt lat="46.03117" lon="1.21397">
        <ele>393.32</ele>
        <time>2016-09-07T06:38:48Z</time>
      </trkpt>
      <trkpt lat="46.0314" lon="1.21387">
        <ele>391.87</ele>
        <time>2016-09-07T06:38:56Z</time>
      </trkpt>
      <trkpt lat="46.03155" lon="1.21376">
        <ele>389.47</ele>
        <time>2016-09-07T06:39:01Z</time>
      </trkpt>
      <trkpt lat="46.03172" lon="1.21371">
        <ele>386.59</ele>
        <time>2016-09-07T06:39:06Z</time>
      </trkpt>
      <trkpt lat="46.03194" lon="1.21369">
        <ele>383.22</ele>
        <time>2016-09-07T06:39:11Z</time>
      </trkpt>
      <trkpt lat="46.03198" lon="1.21368">
        <ele>382.26</ele>
        <time>2016-09-07T06:39:12Z</time>
      </trkpt>
      <trkpt lat="46.03228" lon="1.21376">
        <ele>379.38</ele>
        <time>2016-09-07T06:39:21Z</time>
      </trkpt>
      <trkpt lat="46.03246" lon="1.21378">
        <ele>377.94</ele>
        <time>2016-09-07T06:39:27Z</time>
      </trkpt>
      <trkpt lat="46.03265" lon="1.2137">
        <ele>376.01</ele>
        <time>2016-09-07T06:39:33Z</time>
      </trkpt>
      <trkpt lat="46.03275" lon="1.21398">
        <ele>373.61</ele>
        <time>2016-09-07T06:39:40Z</time>
      </trkpt>
      <trkpt lat="46.03279" lon="1.21424">
        <ele>370.73</ele>
        <time>2016-09-07T06:39:45Z</time>
      </trkpt>
      <trkpt lat="46.03279" lon="1.21428">
        <ele>370.73</ele>
        <time>2016-09-07T06:39:46Z</time>
      </trkpt>
      <trkpt lat="46.03278" lon="1.21432">
        <ele>370.73</ele>
        <time>2016-09-07T06:39:47Z</time>
      </trkpt>
      <trkpt lat="46.03276" lon="1.21436">
        <ele>370.73</ele>
        <time>2016-09-07T06:39:48Z</time>
      </trkpt>
      <trkpt lat="46.03261" lon="1.21465">
        <ele>371.69</ele>
        <time>2016-09-07T06:39:56Z</time>
      </trkpt>
      <trkpt lat="46.03231" lon="1.21511">
        <ele>374.57</ele>
        <time>2016-09-07T06:40:09Z</time>
      </trkpt>
      <trkpt lat="46.03199" lon="1.21566">
        <ele>377.94</ele>
        <time>2016-09-07T06:40:25Z</time>
      </trkpt>
      <trkpt lat="46.0318" lon="1.21602">
        <ele>379.38</ele>
        <time>2016-09-07T06:40:37Z</time>
      </trkpt>
      <trkpt lat="46.0317" lon="1.2164">
        <ele>381.78</ele>
        <time>2016-09-07T06:40:49Z</time>
      </trkpt>
      <trkpt lat="46.03169" lon="1.21644">
        <ele>381.78</ele>
        <time>2016-09-07T06:40:50Z</time>
      </trkpt>
      <trkpt lat="46.03169" lon="1.21647">
        <ele>382.26</ele>
        <time>2016-09-07T06:40:51Z</time>
      </trkpt>
      <trkpt lat="46.03167" lon="1.21658">
        <ele>382.26</ele>
        <time>2016-09-07T06:40:54Z</time>
      </trkpt>
      <trkpt lat="46.03168" lon="1.21659">
        <ele>382.26</ele>
        <time>2016-09-07T06:40:55Z</time>
      </trkpt>
      <trkpt lat="46.03169" lon="1.21658">
        <ele>382.26</ele>
        <time>2016-09-07T06:40:56Z</time>
      </trkpt>
      <trkpt lat="46.0317" lon="1.21655">
        <ele>381.78</ele>
        <time>2016-09-07T06:40:57Z</time>
      </trkpt>
      <trkpt lat="46.0317" lon="1.21653">
        <ele>382.26</ele>
        <time>2016-09-07T06:40:58Z</time>
      </trkpt>
      <trkpt lat="46.0317" lon="1.21645">
        <ele>382.26</ele>
        <time>2016-09-07T06:41:01Z</time>
      </trkpt>
      <trkpt lat="46.03168" lon="1.21645">
        <ele>382.26</ele>
        <time>2016-09-07T06:41:02Z</time>
      </trkpt>
      <trkpt lat="46.03166" lon="1.21651">
        <ele>382.26</ele>
        <time>2016-09-07T06:41:15Z</time>
      </trkpt>
      <trkpt lat="46.03165" lon="1.21654">
        <ele>382.26</ele>
        <time>2016-09-07T06:41:16Z</time>
      </trkpt>
      <trkpt lat="46.03165" lon="1.21656">
        <ele>382.26</ele>
        <time>2016-09-07T06:41:17Z</time>
      </trkpt>
      <trkpt lat="46.03164" lon="1.21659">
        <ele>382.26</ele>
        <time>2016-09-07T06:41:18Z</time>
      </trkpt>
      <trkpt lat="46.03164" lon="1.21662">
        <ele>382.26</ele>
        <time>2016-09-07T06:41:19Z</time>
      </trkpt>
      <trkpt lat="46.03163" lon="1.21666">
        <ele>382.26</ele>
        <time>2016-09-07T06:41:20Z</time>
      </trkpt>
      <trkpt lat="46.03163" lon="1.21669">
        <ele>382.74</ele>
        <time>2016-09-07T06:41:21Z</time>
      </trkpt>
      <trkpt lat="46.03163" lon="1.21672">
        <ele>382.74</ele>
        <time>2016-09-07T06:41:22Z</time>
      </trkpt>
      <trkpt lat="46.03163" lon="1.21689">
        <ele>383.22</ele>
        <time>2016-09-07T06:41:27Z</time>
      </trkpt>
      <trkpt lat="46.03165" lon="1.21692">
        <ele>383.22</ele>
        <time>2016-09-07T06:41:28Z</time>
      </trkpt>
      <trkpt lat="46.03166" lon="1.21694">
        <ele>383.22</ele>
        <time>2016-09-07T06:41:29Z</time>
      </trkpt>
      <trkpt lat="46.03194" lon="1.21698">
        <ele>386.59</ele>
        <time>2016-09-07T06:41:42Z</time>
      </trkpt>
      <trkpt lat="46.03218" lon="1.21676">
        <ele>388.03</ele>
        <time>2016-09-07T06:41:55Z</time>
      </trkpt>
      <trkpt lat="46.03234" lon="1.21687">
        <ele>390.91</ele>
        <time>2016-09-07T06:42:05Z</time>
      </trkpt>
      <trkpt lat="46.03255" lon="1.21708">
        <ele>393.8</ele>
        <time>2016-09-07T06:42:19Z</time>
      </trkpt>
      <trkpt lat="46.03284" lon="1.21737">
        <ele>395.72</ele>
        <time>2016-09-07T06:42:33Z</time>
      </trkpt>
      <trkpt lat="46.03315" lon="1.21769">
        <ele>396.2</ele>
        <time>2016-09-07T06:42:46Z</time>
      </trkpt>
      <trkpt lat="46.03345" lon="1.21803">
        <ele>395.24</ele>
        <time>2016-09-07T06:42:57Z</time>
      </trkpt>
      <trkpt lat="46.03348" lon="1.21808">
        <ele>394.76</ele>
        <time>2016-09-07T06:42:58Z</time>
      </trkpt>
      <trkpt lat="46.03355" lon="1.21819">
        <ele>394.28</ele>
        <time>2016-09-07T06:43:00Z</time>
      </trkpt>
      <trkpt lat="46.03371" lon="1.21844">
        <ele>392.36</ele>
        <time>2016-09-07T06:43:05Z</time>
      </trkpt>
      <trkpt lat="46.03391" lon="1.21869">
        <ele>388.51</ele>
        <time>2016-09-07T06:43:10Z</time>
      </trkpt>
      <trkpt lat="46.03403" lon="1.21883">
        <ele>386.59</ele>
        <time>2016-09-07T06:43:13Z</time>
      </trkpt>
      <trkpt lat="46.03407" lon="1.21888">
        <ele>386.11</ele>
        <time>2016-09-07T06:43:14Z</time>
      </trkpt>
      <trkpt lat="46.03411" lon="1.21893">
        <ele>386.11</ele>
        <time>2016-09-07T06:43:15Z</time>
      </trkpt>
      <trkpt lat="46.03448" lon="1.21935">
        <ele>383.7</ele>
        <time>2016-09-07T06:43:25Z</time>
      </trkpt>
      <trkpt lat="46.03452" lon="1.21937">
        <ele>383.7</ele>
        <time>2016-09-07T06:43:26Z</time>
      </trkpt>
      <trkpt lat="46.03497" lon="1.21959">
        <ele>380.34</ele>
        <time>2016-09-07T06:43:36Z</time>
      </trkpt>
      <trkpt lat="46.03532" lon="1.21982">
        <ele>378.42</ele>
        <time>2016-09-07T06:43:46Z</time>
      </trkpt>
      <trkpt lat="46.03555" lon="1.21993">
        <ele>377.45</ele>
        <time>2016-09-07T06:43:51Z</time>
      </trkpt>
      <trkpt lat="46.03559" lon="1.21996">
        <ele>377.45</ele>
        <time>2016-09-07T06:43:52Z</time>
      </trkpt>
      <trkpt lat="46.03562" lon="1.21999">
        <ele>376.49</ele>
        <time>2016-09-07T06:43:53Z</time>
      </trkpt>
      <trkpt lat="46.03566" lon="1.22001">
        <ele>376.49</ele>
        <time>2016-09-07T06:43:54Z</time>
      </trkpt>
      <trkpt lat="46.0357" lon="1.22004">
        <ele>376.01</ele>
        <time>2016-09-07T06:43:55Z</time>
      </trkpt>
      <trkpt lat="46.03575" lon="1.22007">
        <ele>375.53</ele>
        <time>2016-09-07T06:43:56Z</time>
      </trkpt>
      <trkpt lat="46.03579" lon="1.2201">
        <ele>375.53</ele>
        <time>2016-09-07T06:43:57Z</time>
      </trkpt>
      <trkpt lat="46.03583" lon="1.22013">
        <ele>375.53</ele>
        <time>2016-09-07T06:43:58Z</time>
      </trkpt>
      <trkpt lat="46.03587" lon="1.22017">
        <ele>375.05</ele>
        <time>2016-09-07T06:43:59Z</time>
      </trkpt>
      <trkpt lat="46.03591" lon="1.22021">
        <ele>375.05</ele>
        <time>2016-09-07T06:44:00Z</time>
      </trkpt>
      <trkpt lat="46.0361" lon="1.22041">
        <ele>374.09</ele>
        <time>2016-09-07T06:44:05Z</time>
      </trkpt>
      <trkpt lat="46.03618" lon="1.2205">
        <ele>374.09</ele>
        <time>2016-09-07T06:44:07Z</time>
      </trkpt>
      <trkpt lat="46.03627" lon="1.22061">
        <ele>372.65</ele>
        <time>2016-09-07T06:44:09Z</time>
      </trkpt>
      <trkpt lat="46.03641" lon="1.22077">
        <ele>372.65</ele>
        <time>2016-09-07T06:44:12Z</time>
      </trkpt>
      <trkpt lat="46.0365" lon="1.22089">
        <ele>371.69</ele>
        <time>2016-09-07T06:44:14Z</time>
      </trkpt>
      <trkpt lat="46.03654" lon="1.22095">
        <ele>371.69</ele>
        <time>2016-09-07T06:44:15Z</time>
      </trkpt>
      <trkpt lat="46.03657" lon="1.221">
        <ele>371.69</ele>
        <time>2016-09-07T06:44:16Z</time>
      </trkpt>
      <trkpt lat="46.03661" lon="1.22103">
        <ele>370.73</ele>
        <time>2016-09-07T06:44:17Z</time>
      </trkpt>
      <trkpt lat="46.03664" lon="1.22106">
        <ele>370.73</ele>
        <time>2016-09-07T06:44:18Z</time>
      </trkpt>
      <trkpt lat="46.03667" lon="1.22108">
        <ele>370.24</ele>
        <time>2016-09-07T06:44:19Z</time>
      </trkpt>
      <trkpt lat="46.0367" lon="1.22111">
        <ele>370.24</ele>
        <time>2016-09-07T06:44:20Z</time>
      </trkpt>
      <trkpt lat="46.03672" lon="1.22113">
        <ele>369.76</ele>
        <time>2016-09-07T06:44:21Z</time>
      </trkpt>
      <trkpt lat="46.03674" lon="1.22116">
        <ele>369.76</ele>
        <time>2016-09-07T06:44:22Z</time>
      </trkpt>
      <trkpt lat="46.03675" lon="1.2212">
        <ele>369.76</ele>
        <time>2016-09-07T06:44:23Z</time>
      </trkpt>
      <trkpt lat="46.03675" lon="1.22124">
        <ele>369.28</ele>
        <time>2016-09-07T06:44:24Z</time>
      </trkpt>
      <trkpt lat="46.03675" lon="1.22127">
        <ele>369.28</ele>
        <time>2016-09-07T06:44:25Z</time>
      </trkpt>
      <trkpt lat="46.03674" lon="1.2213">
        <ele>369.28</ele>
        <time>2016-09-07T06:44:26Z</time>
      </trkpt>
      <trkpt lat="46.03673" lon="1.22133">
        <ele>369.28</ele>
        <time>2016-09-07T06:44:27Z</time>
      </trkpt>
      <trkpt lat="46.03672" lon="1.22136">
        <ele>369.28</ele>
        <time>2016-09-07T06:44:28Z</time>
      </trkpt>
      <trkpt lat="46.03671" lon="1.22139">
        <ele>369.28</ele>
        <time>2016-09-07T06:44:29Z</time>
      </trkpt>
      <trkpt lat="46.03671" lon="1.22142">
        <ele>370.73</ele>
        <time>2016-09-07T06:44:30Z</time>
      </trkpt>
      <trkpt lat="46.03671" lon="1.22145">
        <ele>370.73</ele>
        <time>2016-09-07T06:44:31Z</time>
      </trkpt>
      <trkpt lat="46.03671" lon="1.22149">
        <ele>370.73</ele>
        <time>2016-09-07T06:44:32Z</time>
      </trkpt>
      <trkpt lat="46.03672" lon="1.22152">
        <ele>371.21</ele>
        <time>2016-09-07T06:44:33Z</time>
      </trkpt>
      <trkpt lat="46.03672" lon="1.22156">
        <ele>371.21</ele>
        <time>2016-09-07T06:44:34Z</time>
      </trkpt>
      <trkpt lat="46.03672" lon="1.2216">
        <ele>371.21</ele>
        <time>2016-09-07T06:44:35Z</time>
      </trkpt>
      <trkpt lat="46.03673" lon="1.22164">
        <ele>371.21</ele>
        <time>2016-09-07T06:44:36Z</time>
      </trkpt>
      <trkpt lat="46.03679" lon="1.22206">
        <ele>373.13</ele>
        <time>2016-09-07T06:44:48Z</time>
      </trkpt>
      <trkpt lat="46.03691" lon="1.22251">
        <ele>375.05</ele>
        <time>2016-09-07T06:45:00Z</time>
      </trkpt>
      <trkpt lat="46.03693" lon="1.22256">
        <ele>375.53</ele>
        <time>2016-09-07T06:45:02Z</time>
      </trkpt>
      <trkpt lat="46.03693" lon="1.22259">
        <ele>375.53</ele>
        <time>2016-09-07T06:45:03Z</time>
      </trkpt>
      <trkpt lat="46.03692" lon="1.22261">
        <ele>376.01</ele>
        <time>2016-09-07T06:45:04Z</time>
      </trkpt>
      <trkpt lat="46.03692" lon="1.22263">
        <ele>376.01</ele>
        <time>2016-09-07T06:45:05Z</time>
      </trkpt>
      <trkpt lat="46.03691" lon="1.22265">
        <ele>376.49</ele>
        <time>2016-09-07T06:45:06Z</time>
      </trkpt>
      <trkpt lat="46.03688" lon="1.22268">
        <ele>376.49</ele>
        <time>2016-09-07T06:45:07Z</time>
      </trkpt>
      <trkpt lat="46.03686" lon="1.22272">
        <ele>376.49</ele>
        <time>2016-09-07T06:45:08Z</time>
      </trkpt>
      <trkpt lat="46.03684" lon="1.22274">
        <ele>376.49</ele>
        <time>2016-09-07T06:45:09Z</time>
      </trkpt>
      <trkpt lat="46.03667" lon="1.22302">
        <ele>378.9</ele>
        <time>2016-09-07T06:45:20Z</time>
      </trkpt>
      <trkpt lat="46.03648" lon="1.2233">
        <ele>381.3</ele>
        <time>2016-09-07T06:45:32Z</time>
      </trkpt>
      <trkpt lat="46.03629" lon="1.22349">
        <ele>382.26</ele>
        <time>2016-09-07T06:45:43Z</time>
      </trkpt>
      <trkpt lat="46.03617" lon="1.2238">
        <ele>384.66</ele>
        <time>2016-09-07T06:45:57Z</time>
      </trkpt>
      <trkpt lat="46.03626" lon="1.22403">
        <ele>387.55</ele>
        <time>2016-09-07T06:46:10Z</time>
      </trkpt>
      <trkpt lat="46.03631" lon="1.22422">
        <ele>390.43</ele>
        <time>2016-09-07T06:46:21Z</time>
      </trkpt>
      <trkpt lat="46.03645" lon="1.22439">
        <ele>392.36</ele>
        <time>2016-09-07T06:46:34Z</time>
      </trkpt>
      <trkpt lat="46.03666" lon="1.22461">
        <ele>394.28</ele>
        <time>2016-09-07T06:46:49Z</time>
      </trkpt>
      <trkpt lat="46.03691" lon="1.22478">
        <ele>395.72</ele>
        <time>2016-09-07T06:47:03Z</time>
      </trkpt>
      <trkpt lat="46.03703" lon="1.22484">
        <ele>396.2</ele>
        <time>2016-09-07T06:47:10Z</time>
      </trkpt>
      <trkpt lat="46.03705" lon="1.22486">
        <ele>396.68</ele>
        <time>2016-09-07T06:47:11Z</time>
      </trkpt>
      <trkpt lat="46.03738" lon="1.2251">
        <ele>398.6</ele>
        <time>2016-09-07T06:47:26Z</time>
      </trkpt>
      <trkpt lat="46.03768" lon="1.22531">
        <ele>401.01</ele>
        <time>2016-09-07T06:47:40Z</time>
      </trkpt>
      <trkpt lat="46.03801" lon="1.22552">
        <ele>403.89</ele>
        <time>2016-09-07T06:47:55Z</time>
      </trkpt>
      <trkpt lat="46.03832" lon="1.22566">
        <ele>406.29</ele>
        <time>2016-09-07T06:48:09Z</time>
      </trkpt>
      <trkpt lat="46.03836" lon="1.22568">
        <ele>406.29</ele>
        <time>2016-09-07T06:48:11Z</time>
      </trkpt>
      <trkpt lat="46.03838" lon="1.22569">
        <ele>406.29</ele>
        <time>2016-09-07T06:48:12Z</time>
      </trkpt>
      <trkpt lat="46.0384" lon="1.22571">
        <ele>406.29</ele>
        <time>2016-09-07T06:48:13Z</time>
      </trkpt>
      <trkpt lat="46.03842" lon="1.22571">
        <ele>407.26</ele>
        <time>2016-09-07T06:48:14Z</time>
      </trkpt>
      <trkpt lat="46.03844" lon="1.22571">
        <ele>407.26</ele>
        <time>2016-09-07T06:48:15Z</time>
      </trkpt>
      <trkpt lat="46.0387" lon="1.22579">
        <ele>409.66</ele>
        <time>2016-09-07T06:48:30Z</time>
      </trkpt>
      <trkpt lat="46.03894" lon="1.22588">
        <ele>412.06</ele>
        <time>2016-09-07T06:48:43Z</time>
      </trkpt>
      <trkpt lat="46.03902" lon="1.22591">
        <ele>412.54</ele>
        <time>2016-09-07T06:48:47Z</time>
      </trkpt>
      <trkpt lat="46.03904" lon="1.22591">
        <ele>412.54</ele>
        <time>2016-09-07T06:48:48Z</time>
      </trkpt>
      <trkpt lat="46.03906" lon="1.22592">
        <ele>413.02</ele>
        <time>2016-09-07T06:48:49Z</time>
      </trkpt>
      <trkpt lat="46.03908" lon="1.22593">
        <ele>413.02</ele>
        <time>2016-09-07T06:48:50Z</time>
      </trkpt>
      <trkpt lat="46.03909" lon="1.22594">
        <ele>413.02</ele>
        <time>2016-09-07T06:48:51Z</time>
      </trkpt>
      <trkpt lat="46.03911" lon="1.22595">
        <ele>413.5</ele>
        <time>2016-09-07T06:48:52Z</time>
      </trkpt>
      <trkpt lat="46.03913" lon="1.22597">
        <ele>413.5</ele>
        <time>2016-09-07T06:48:53Z</time>
      </trkpt>
      <trkpt lat="46.03942" lon="1.22606">
        <ele>415.91</ele>
        <time>2016-09-07T06:49:07Z</time>
      </trkpt>
      <trkpt lat="46.03975" lon="1.22614">
        <ele>418.31</ele>
        <time>2016-09-07T06:49:23Z</time>
      </trkpt>
      <trkpt lat="46.04004" lon="1.22625">
        <ele>419.75</ele>
        <time>2016-09-07T06:49:38Z</time>
      </trkpt>
      <trkpt lat="46.04032" lon="1.22635">
        <ele>420.23</ele>
        <time>2016-09-07T06:49:50Z</time>
      </trkpt>
      <trkpt lat="46.04064" lon="1.2264">
        <ele>420.23</ele>
        <time>2016-09-07T06:50:02Z</time>
      </trkpt>
      <trkpt lat="46.04076" lon="1.22644">
        <ele>420.71</ele>
        <time>2016-09-07T06:50:07Z</time>
      </trkpt>
      <trkpt lat="46.04077" lon="1.22645">
        <ele>420.71</ele>
        <time>2016-09-07T06:50:08Z</time>
      </trkpt>
      <trkpt lat="46.04108" lon="1.22651">
        <ele>420.71</ele>
        <time>2016-09-07T06:50:19Z</time>
      </trkpt>
      <trkpt lat="46.0414" lon="1.22656">
        <ele>419.27</ele>
        <time>2016-09-07T06:50:30Z</time>
      </trkpt>
      <trkpt lat="46.04169" lon="1.2267">
        <ele>418.79</ele>
        <time>2016-09-07T06:50:40Z</time>
      </trkpt>
      <trkpt lat="46.04208" lon="1.22679">
        <ele>417.83</ele>
        <time>2016-09-07T06:50:52Z</time>
      </trkpt>
      <trkpt lat="46.04241" lon="1.22689">
        <ele>416.87</ele>
        <time>2016-09-07T06:51:02Z</time>
      </trkpt>
      <trkpt lat="46.04279" lon="1.22708">
        <ele>415.91</ele>
        <time>2016-09-07T06:51:14Z</time>
      </trkpt>
      <trkpt lat="46.04295" lon="1.22748">
        <ele>415.43</ele>
        <time>2016-09-07T06:51:25Z</time>
      </trkpt>
      <trkpt lat="46.04302" lon="1.22767">
        <ele>414.47</ele>
        <time>2016-09-07T06:51:31Z</time>
      </trkpt>
      <trkpt lat="46.04303" lon="1.22772">
        <ele>413.98</ele>
        <time>2016-09-07T06:51:32Z</time>
      </trkpt>
      <trkpt lat="46.04303" lon="1.22776">
        <ele>413.98</ele>
        <time>2016-09-07T06:51:33Z</time>
      </trkpt>
      <trkpt lat="46.04304" lon="1.22779">
        <ele>413.02</ele>
        <time>2016-09-07T06:51:34Z</time>
      </trkpt>
      <trkpt lat="46.04303" lon="1.22782">
        <ele>413.02</ele>
        <time>2016-09-07T06:51:35Z</time>
      </trkpt>
      <trkpt lat="46.04303" lon="1.22784">
        <ele>413.02</ele>
        <time>2016-09-07T06:51:36Z</time>
      </trkpt>
      <trkpt lat="46.04304" lon="1.2278">
        <ele>413.02</ele>
        <time>2016-09-07T06:51:45Z</time>
      </trkpt>
      <trkpt lat="46.04304" lon="1.22779">
        <ele>413.02</ele>
        <time>2016-09-07T06:51:46Z</time>
      </trkpt>
      <trkpt lat="46.04304" lon="1.22775">
        <ele>413.02</ele>
        <time>2016-09-07T06:51:49Z</time>
      </trkpt>
      <trkpt lat="46.04304" lon="1.2277">
        <ele>413.98</ele>
        <time>2016-09-07T06:51:54Z</time>
      </trkpt>
      <trkpt lat="46.04305" lon="1.2277">
        <ele>413.98</ele>
        <time>2016-09-07T06:51:57Z</time>
      </trkpt>
      <trkpt lat="46.04295" lon="1.22742">
        <ele>415.91</ele>
        <time>2016-09-07T06:52:10Z</time>
      </trkpt>
      <trkpt lat="46.04294" lon="1.22739">
        <ele>415.91</ele>
        <time>2016-09-07T06:52:11Z</time>
      </trkpt>
      <trkpt lat="46.04293" lon="1.22736">
        <ele>416.39</ele>
        <time>2016-09-07T06:52:12Z</time>
      </trkpt>
      <trkpt lat="46.04293" lon="1.22733">
        <ele>416.39</ele>
        <time>2016-09-07T06:52:13Z</time>
      </trkpt>
      <trkpt lat="46.04292" lon="1.2273">
        <ele>416.39</ele>
        <time>2016-09-07T06:52:14Z</time>
      </trkpt>
      <trkpt lat="46.04292" lon="1.22727">
        <ele>416.39</ele>
        <time>2016-09-07T06:52:15Z</time>
      </trkpt>
      <trkpt lat="46.04292" lon="1.22724">
        <ele>416.39</ele>
        <time>2016-09-07T06:52:16Z</time>
      </trkpt>
      <trkpt lat="46.04293" lon="1.22722">
        <ele>416.87</ele>
        <time>2016-09-07T06:52:17Z</time>
      </trkpt>
      <trkpt lat="46.04301" lon="1.22711">
        <ele>416.87</ele>
        <time>2016-09-07T06:52:22Z</time>
      </trkpt>
      <trkpt lat="46.04305" lon="1.22698">
        <ele>416.87</ele>
        <time>2016-09-07T06:52:27Z</time>
      </trkpt>
      <trkpt lat="46.04307" lon="1.22696">
        <ele>416.87</ele>
        <time>2016-09-07T06:52:28Z</time>
      </trkpt>
      <trkpt lat="46.04323" lon="1.22681">
        <ele>415.43</ele>
        <time>2016-09-07T06:52:34Z</time>
      </trkpt>
      <trkpt lat="46.0435" lon="1.2267">
        <ele>413.5</ele>
        <time>2016-09-07T06:52:42Z</time>
      </trkpt>
      <trkpt lat="46.04367" lon="1.2266">
        <ele>411.58</ele>
        <time>2016-09-07T06:52:47Z</time>
      </trkpt>
      <trkpt lat="46.04393" lon="1.22641">
        <ele>408.22</ele>
        <time>2016-09-07T06:52:55Z</time>
      </trkpt>
      <trkpt lat="46.0441" lon="1.22627">
        <ele>404.85</ele>
        <time>2016-09-07T06:53:01Z</time>
      </trkpt>
      <trkpt lat="46.04422" lon="1.22618">
        <ele>402.45</ele>
        <time>2016-09-07T06:53:05Z</time>
      </trkpt>
      <trkpt lat="46.04433" lon="1.22607">
        <ele>399.57</ele>
        <time>2016-09-07T06:53:09Z</time>
      </trkpt>
      <trkpt lat="46.04435" lon="1.22605">
        <ele>399.57</ele>
        <time>2016-09-07T06:53:10Z</time>
      </trkpt>
      <trkpt lat="46.04443" lon="1.22604">
        <ele>398.6</ele>
        <time>2016-09-07T06:53:15Z</time>
      </trkpt>
      <trkpt lat="46.04443" lon="1.22612">
        <ele>398.6</ele>
        <time>2016-09-07T06:53:19Z</time>
      </trkpt>
      <trkpt lat="46.04444" lon="1.22617">
        <ele>399.57</ele>
        <time>2016-09-07T06:53:22Z</time>
      </trkpt>
      <trkpt lat="46.04443" lon="1.22621">
        <ele>401.01</ele>
        <time>2016-09-07T06:53:26Z</time>
      </trkpt>
      <trkpt lat="46.04443" lon="1.2263">
        <ele>401.97</ele>
        <time>2016-09-07T06:53:30Z</time>
      </trkpt>
      <trkpt lat="46.04444" lon="1.22635">
        <ele>402.45</ele>
        <time>2016-09-07T06:53:32Z</time>
      </trkpt>
      <trkpt lat="46.04452" lon="1.22658">
        <ele>404.85</ele>
        <time>2016-09-07T06:53:42Z</time>
      </trkpt>
      <trkpt lat="46.04456" lon="1.22665">
        <ele>405.33</ele>
        <time>2016-09-07T06:53:45Z</time>
      </trkpt>
      <trkpt lat="46.0447" lon="1.22696">
        <ele>406.77</ele>
        <time>2016-09-07T06:53:56Z</time>
      </trkpt>
      <trkpt lat="46.04489" lon="1.2273">
        <ele>407.74</ele>
        <time>2016-09-07T06:54:07Z</time>
      </trkpt>
      <trkpt lat="46.04509" lon="1.22772">
        <ele>410.14</ele>
        <time>2016-09-07T06:54:20Z</time>
      </trkpt>
      <trkpt lat="46.04521" lon="1.22805">
        <ele>409.66</ele>
        <time>2016-09-07T06:54:28Z</time>
      </trkpt>
      <trkpt lat="46.04531" lon="1.22864">
        <ele>408.22</ele>
        <time>2016-09-07T06:54:40Z</time>
      </trkpt>
      <trkpt lat="46.04542" lon="1.22915">
        <ele>408.22</ele>
        <time>2016-09-07T06:54:54Z</time>
      </trkpt>
      <trkpt lat="46.04548" lon="1.22941">
        <ele>409.66</ele>
        <time>2016-09-07T06:55:03Z</time>
      </trkpt>
      <trkpt lat="46.04555" lon="1.2297">
        <ele>412.06</ele>
        <time>2016-09-07T06:55:14Z</time>
      </trkpt>
      <trkpt lat="46.04558" lon="1.2299">
        <ele>413.5</ele>
        <time>2016-09-07T06:55:21Z</time>
      </trkpt>
      <trkpt lat="46.04561" lon="1.23009">
        <ele>415.43</ele>
        <time>2016-09-07T06:55:28Z</time>
      </trkpt>
      <trkpt lat="46.04566" lon="1.23029">
        <ele>416.39</ele>
        <time>2016-09-07T06:55:35Z</time>
      </trkpt>
      <trkpt lat="46.04568" lon="1.2304">
        <ele>417.35</ele>
        <time>2016-09-07T06:55:39Z</time>
      </trkpt>
      <trkpt lat="46.04569" lon="1.23047">
        <ele>418.31</ele>
        <time>2016-09-07T06:55:43Z</time>
      </trkpt>
      <trkpt lat="46.04569" lon="1.23052">
        <ele>418.31</ele>
        <time>2016-09-07T06:55:45Z</time>
      </trkpt>
      <trkpt lat="46.04569" lon="1.23058">
        <ele>419.27</ele>
        <time>2016-09-07T06:55:48Z</time>
      </trkpt>
      <trkpt lat="46.0457" lon="1.23063">
        <ele>419.27</ele>
        <time>2016-09-07T06:55:50Z</time>
      </trkpt>
      <trkpt lat="46.04559" lon="1.23099">
        <ele>419.27</ele>
        <time>2016-09-07T06:56:00Z</time>
      </trkpt>
      <trkpt lat="46.04558" lon="1.23104">
        <ele>419.27</ele>
        <time>2016-09-07T06:56:01Z</time>
      </trkpt>
      <trkpt lat="46.04555" lon="1.23117">
        <ele>419.27</ele>
        <time>2016-09-07T06:56:05Z</time>
      </trkpt>
      <trkpt lat="46.04555" lon="1.23123">
        <ele>419.27</ele>
        <time>2016-09-07T06:56:07Z</time>
      </trkpt>
      <trkpt lat="46.04552" lon="1.23133">
        <ele>417.83</ele>
        <time>2016-09-07T06:56:10Z</time>
      </trkpt>
      <trkpt lat="46.04543" lon="1.23167">
        <ele>416.87</ele>
        <time>2016-09-07T06:56:16Z</time>
      </trkpt>
      <trkpt lat="46.04549" lon="1.23183">
        <ele>416.87</ele>
        <time>2016-09-07T06:56:21Z</time>
      </trkpt>
      <trkpt lat="46.0458" lon="1.23222">
        <ele>416.87</ele>
        <time>2016-09-07T06:56:33Z</time>
      </trkpt>
      <trkpt lat="46.04613" lon="1.23245">
        <ele>415.43</ele>
        <time>2016-09-07T06:56:44Z</time>
      </trkpt>
      <trkpt lat="46.04621" lon="1.23247">
        <ele>414.95</ele>
        <time>2016-09-07T06:56:46Z</time>
      </trkpt>
      <trkpt lat="46.04655" lon="1.23255">
        <ele>412.06</ele>
        <time>2016-09-07T06:56:56Z</time>
      </trkpt>
      <trkpt lat="46.0466" lon="1.23252">
        <ele>411.58</ele>
        <time>2016-09-07T06:56:58Z</time>
      </trkpt>
      <trkpt lat="46.04672" lon="1.23249">
        <ele>411.1</ele>
        <time>2016-09-07T06:57:01Z</time>
      </trkpt>
      <trkpt lat="46.04683" lon="1.23258">
        <ele>409.18</ele>
        <time>2016-09-07T06:57:04Z</time>
      </trkpt>
      <trkpt lat="46.04703" lon="1.23285">
        <ele>407.26</ele>
        <time>2016-09-07T06:57:11Z</time>
      </trkpt>
      <trkpt lat="46.04706" lon="1.23291">
        <ele>407.26</ele>
        <time>2016-09-07T06:57:12Z</time>
      </trkpt>
      <trkpt lat="46.04718" lon="1.23306">
        <ele>406.77</ele>
        <time>2016-09-07T06:57:16Z</time>
      </trkpt>
      <trkpt lat="46.04758" lon="1.2334">
        <ele>407.26</ele>
        <time>2016-09-07T06:57:29Z</time>
      </trkpt>
      <trkpt lat="46.04785" lon="1.23368">
        <ele>407.26</ele>
        <time>2016-09-07T06:57:40Z</time>
      </trkpt>
      <trkpt lat="46.04811" lon="1.23386">
        <ele>407.26</ele>
        <time>2016-09-07T06:57:50Z</time>
      </trkpt>
      <trkpt lat="46.04847" lon="1.234">
        <ele>407.26</ele>
        <time>2016-09-07T06:58:02Z</time>
      </trkpt>
      <trkpt lat="46.04855" lon="1.23403">
        <ele>408.22</ele>
        <time>2016-09-07T06:58:05Z</time>
      </trkpt>
      <trkpt lat="46.04882" lon="1.23411">
        <ele>409.18</ele>
        <time>2016-09-07T06:58:15Z</time>
      </trkpt>
      <trkpt lat="46.0491" lon="1.23415">
        <ele>410.62</ele>
        <time>2016-09-07T06:58:26Z</time>
      </trkpt>
      <trkpt lat="46.04947" lon="1.23421">
        <ele>412.06</ele>
        <time>2016-09-07T06:58:39Z</time>
      </trkpt>
      <trkpt lat="46.04981" lon="1.23414">
        <ele>413.5</ele>
        <time>2016-09-07T06:58:51Z</time>
      </trkpt>
      <trkpt lat="46.04995" lon="1.23395">
        <ele>415.43</ele>
        <time>2016-09-07T06:59:02Z</time>
      </trkpt>
      <trkpt lat="46.04999" lon="1.23386">
        <ele>416.39</ele>
        <time>2016-09-07T06:59:06Z</time>
      </trkpt>
      <trkpt lat="46.04999" lon="1.2338">
        <ele>416.87</ele>
        <time>2016-09-07T06:59:09Z</time>
      </trkpt>
      <trkpt lat="46.05" lon="1.23378">
        <ele>416.87</ele>
        <time>2016-09-07T06:59:10Z</time>
      </trkpt>
      <trkpt lat="46.05002" lon="1.23376">
        <ele>417.35</ele>
        <time>2016-09-07T06:59:11Z</time>
      </trkpt>
      <trkpt lat="46.05002" lon="1.23373">
        <ele>417.35</ele>
        <time>2016-09-07T06:59:12Z</time>
      </trkpt>
      <trkpt lat="46.05003" lon="1.2337">
        <ele>417.35</ele>
        <time>2016-09-07T06:59:13Z</time>
      </trkpt>
      <trkpt lat="46.05003" lon="1.23367">
        <ele>417.35</ele>
        <time>2016-09-07T06:59:14Z</time>
      </trkpt>
      <trkpt lat="46.05004" lon="1.23364">
        <ele>417.35</ele>
        <time>2016-09-07T06:59:15Z</time>
      </trkpt>
      <trkpt lat="46.05006" lon="1.2336">
        <ele>417.83</ele>
        <time>2016-09-07T06:59:16Z</time>
      </trkpt>
      <trkpt lat="46.05007" lon="1.23356">
        <ele>417.83</ele>
        <time>2016-09-07T06:59:17Z</time>
      </trkpt>
      <trkpt lat="46.05008" lon="1.23353">
        <ele>417.83</ele>
        <time>2016-09-07T06:59:18Z</time>
      </trkpt>
      <trkpt lat="46.05008" lon="1.23349">
        <ele>417.83</ele>
        <time>2016-09-07T06:59:19Z</time>
      </trkpt>
      <trkpt lat="46.05014" lon="1.23326">
        <ele>417.83</ele>
        <time>2016-09-07T06:59:25Z</time>
      </trkpt>
      <trkpt lat="46.05015" lon="1.23322">
        <ele>418.31</ele>
        <time>2016-09-07T06:59:26Z</time>
      </trkpt>
      <trkpt lat="46.05015" lon="1.23317">
        <ele>418.31</ele>
        <time>2016-09-07T06:59:27Z</time>
      </trkpt>
      <trkpt lat="46.05015" lon="1.23312">
        <ele>418.31</ele>
        <time>2016-09-07T06:59:28Z</time>
      </trkpt>
      <trkpt lat="46.05016" lon="1.23307">
        <ele>418.31</ele>
        <time>2016-09-07T06:59:29Z</time>
      </trkpt>
      <trkpt lat="46.05017" lon="1.23303">
        <ele>418.31</ele>
        <time>2016-09-07T06:59:30Z</time>
      </trkpt>
      <trkpt lat="46.05017" lon="1.23298">
        <ele>418.31</ele>
        <time>2016-09-07T06:59:31Z</time>
      </trkpt>
      <trkpt lat="46.05025" lon="1.23247">
        <ele>419.27</ele>
        <time>2016-09-07T06:59:44Z</time>
      </trkpt>
      <trkpt lat="46.05029" lon="1.23207">
        <ele>422.64</ele>
        <time>2016-09-07T06:59:56Z</time>
      </trkpt>
      <trkpt lat="46.05047" lon="1.23183">
        <ele>424.56</ele>
        <time>2016-09-07T07:00:09Z</time>
      </trkpt>
      <trkpt lat="46.05075" lon="1.23169">
        <ele>425.04</ele>
        <time>2016-09-07T07:00:20Z</time>
      </trkpt>
      <trkpt lat="46.05118" lon="1.23158">
        <ele>426.48</ele>
        <time>2016-09-07T07:00:36Z</time>
      </trkpt>
      <trkpt lat="46.05165" lon="1.23135">
        <ele>427.44</ele>
        <time>2016-09-07T07:00:52Z</time>
      </trkpt>
      <trkpt lat="46.0518" lon="1.23121">
        <ele>426</ele>
        <time>2016-09-07T07:00:58Z</time>
      </trkpt>
      <trkpt lat="46.052" lon="1.23102">
        <ele>422.64</ele>
        <time>2016-09-07T07:01:07Z</time>
      </trkpt>
      <trkpt lat="46.05224" lon="1.23076">
        <ele>419.27</ele>
        <time>2016-09-07T07:01:15Z</time>
      </trkpt>
      <trkpt lat="46.05243" lon="1.2305">
        <ele>416.39</ele>
        <time>2016-09-07T07:01:23Z</time>
      </trkpt>
      <trkpt lat="46.05246" lon="1.23046">
        <ele>416.39</ele>
        <time>2016-09-07T07:01:24Z</time>
      </trkpt>
      <trkpt lat="46.05264" lon="1.2302">
        <ele>413.5</ele>
        <time>2016-09-07T07:01:31Z</time>
      </trkpt>
      <trkpt lat="46.05309" lon="1.22985">
        <ele>410.14</ele>
        <time>2016-09-07T07:01:42Z</time>
      </trkpt>
      <trkpt lat="46.05323" lon="1.22973">
        <ele>409.66</ele>
        <time>2016-09-07T07:01:45Z</time>
      </trkpt>
      <trkpt lat="46.05326" lon="1.22968">
        <ele>409.18</ele>
        <time>2016-09-07T07:01:46Z</time>
      </trkpt>
      <trkpt lat="46.05328" lon="1.22962">
        <ele>408.7</ele>
        <time>2016-09-07T07:01:47Z</time>
      </trkpt>
      <trkpt lat="46.0533" lon="1.22955">
        <ele>408.22</ele>
        <time>2016-09-07T07:01:48Z</time>
      </trkpt>
      <trkpt lat="46.05331" lon="1.22948">
        <ele>408.22</ele>
        <time>2016-09-07T07:01:49Z</time>
      </trkpt>
      <trkpt lat="46.05332" lon="1.2294">
        <ele>407.26</ele>
        <time>2016-09-07T07:01:50Z</time>
      </trkpt>
      <trkpt lat="46.05331" lon="1.22933">
        <ele>407.26</ele>
        <time>2016-09-07T07:01:51Z</time>
      </trkpt>
      <trkpt lat="46.0533" lon="1.22925">
        <ele>406.77</ele>
        <time>2016-09-07T07:01:52Z</time>
      </trkpt>
      <trkpt lat="46.05323" lon="1.22893">
        <ele>405.81</ele>
        <time>2016-09-07T07:01:56Z</time>
      </trkpt>
      <trkpt lat="46.0532" lon="1.22871">
        <ele>404.85</ele>
        <time>2016-09-07T07:01:59Z</time>
      </trkpt>
      <trkpt lat="46.05318" lon="1.22864">
        <ele>404.37</ele>
        <time>2016-09-07T07:02:00Z</time>
      </trkpt>
      <trkpt lat="46.05316" lon="1.22856">
        <ele>403.89</ele>
        <time>2016-09-07T07:02:01Z</time>
      </trkpt>
      <trkpt lat="46.05311" lon="1.22843">
        <ele>402.93</ele>
        <time>2016-09-07T07:02:03Z</time>
      </trkpt>
      <trkpt lat="46.05288" lon="1.22805">
        <ele>399.57</ele>
        <time>2016-09-07T07:02:09Z</time>
      </trkpt>
      <trkpt lat="46.05246" lon="1.22731">
        <ele>397.16</ele>
        <time>2016-09-07T07:02:21Z</time>
      </trkpt>
      <trkpt lat="46.05232" lon="1.22694">
        <ele>395.72</ele>
        <time>2016-09-07T07:02:27Z</time>
      </trkpt>
      <trkpt lat="46.05226" lon="1.22685">
        <ele>394.76</ele>
        <time>2016-09-07T07:02:29Z</time>
      </trkpt>
      <trkpt lat="46.05191" lon="1.22654">
        <ele>391.39</ele>
        <time>2016-09-07T07:02:39Z</time>
      </trkpt>
      <trkpt lat="46.0516" lon="1.22639">
        <ele>390.43</ele>
        <time>2016-09-07T07:02:48Z</time>
      </trkpt>
      <trkpt lat="46.05119" lon="1.2264">
        <ele>387.55</ele>
        <time>2016-09-07T07:02:59Z</time>
      </trkpt>
      <trkpt lat="46.0511" lon="1.22633">
        <ele>386.11</ele>
        <time>2016-09-07T07:03:02Z</time>
      </trkpt>
      <trkpt lat="46.05116" lon="1.22595">
        <ele>383.7</ele>
        <time>2016-09-07T07:03:10Z</time>
      </trkpt>
      <trkpt lat="46.05139" lon="1.22561">
        <ele>380.34</ele>
        <time>2016-09-07T07:03:19Z</time>
      </trkpt>
      <trkpt lat="46.0517" lon="1.22534">
        <ele>376.97</ele>
        <time>2016-09-07T07:03:26Z</time>
      </trkpt>
      <trkpt lat="46.05173" lon="1.22531">
        <ele>376.49</ele>
        <time>2016-09-07T07:03:27Z</time>
      </trkpt>
      <trkpt lat="46.0518" lon="1.22523">
        <ele>376.49</ele>
        <time>2016-09-07T07:03:29Z</time>
      </trkpt>
      <trkpt lat="46.05183" lon="1.22518">
        <ele>376.01</ele>
        <time>2016-09-07T07:03:30Z</time>
      </trkpt>
      <trkpt lat="46.05187" lon="1.22513">
        <ele>376.01</ele>
        <time>2016-09-07T07:03:31Z</time>
      </trkpt>
      <trkpt lat="46.05191" lon="1.22507">
        <ele>376.01</ele>
        <time>2016-09-07T07:03:32Z</time>
      </trkpt>
      <trkpt lat="46.05194" lon="1.22502">
        <ele>376.01</ele>
        <time>2016-09-07T07:03:33Z</time>
      </trkpt>
      <trkpt lat="46.05196" lon="1.22496">
        <ele>375.53</ele>
        <time>2016-09-07T07:03:34Z</time>
      </trkpt>
      <trkpt lat="46.05207" lon="1.22469">
        <ele>375.05</ele>
        <time>2016-09-07T07:03:44Z</time>
      </trkpt>
      <trkpt lat="46.05208" lon="1.22468">
        <ele>375.05</ele>
        <time>2016-09-07T07:03:46Z</time>
      </trkpt>
      <trkpt lat="46.05209" lon="1.22471">
        <ele>375.05</ele>
        <time>2016-09-07T07:03:48Z</time>
      </trkpt>
      <trkpt lat="46.05209" lon="1.22473">
        <ele>375.05</ele>
        <time>2016-09-07T07:03:49Z</time>
      </trkpt>
      <trkpt lat="46.05209" lon="1.22475">
        <ele>375.05</ele>
        <time>2016-09-07T07:03:50Z</time>
      </trkpt>
      <trkpt lat="46.05209" lon="1.22478">
        <ele>375.05</ele>
        <time>2016-09-07T07:03:51Z</time>
      </trkpt>
      <trkpt lat="46.05209" lon="1.2248">
        <ele>376.01</ele>
        <time>2016-09-07T07:03:52Z</time>
      </trkpt>
      <trkpt lat="46.05208" lon="1.22482">
        <ele>376.01</ele>
        <time>2016-09-07T07:03:53Z</time>
      </trkpt>
      <trkpt lat="46.05208" lon="1.22484">
        <ele>376.01</ele>
        <time>2016-09-07T07:03:54Z</time>
      </trkpt>
      <trkpt lat="46.05208" lon="1.22487">
        <ele>376.01</ele>
        <time>2016-09-07T07:03:55Z</time>
      </trkpt>
      <trkpt lat="46.05208" lon="1.22489">
        <ele>376.97</ele>
        <time>2016-09-07T07:03:56Z</time>
      </trkpt>
      <trkpt lat="46.05213" lon="1.22524">
        <ele>379.38</ele>
        <time>2016-09-07T07:04:11Z</time>
      </trkpt>
      <trkpt lat="46.05214" lon="1.22526">
        <ele>379.86</ele>
        <time>2016-09-07T07:04:12Z</time>
      </trkpt>
      <trkpt lat="46.05215" lon="1.22528">
        <ele>379.86</ele>
        <time>2016-09-07T07:04:13Z</time>
      </trkpt>
      <trkpt lat="46.05215" lon="1.2253">
        <ele>380.34</ele>
        <time>2016-09-07T07:04:14Z</time>
      </trkpt>
      <trkpt lat="46.05216" lon="1.22532">
        <ele>380.34</ele>
        <time>2016-09-07T07:04:15Z</time>
      </trkpt>
      <trkpt lat="46.05216" lon="1.22533">
        <ele>380.82</ele>
        <time>2016-09-07T07:04:16Z</time>
      </trkpt>
      <trkpt lat="46.05216" lon="1.22536">
        <ele>380.82</ele>
        <time>2016-09-07T07:04:17Z</time>
      </trkpt>
      <trkpt lat="46.05217" lon="1.22538">
        <ele>380.82</ele>
        <time>2016-09-07T07:04:18Z</time>
      </trkpt>
      <trkpt lat="46.05226" lon="1.2256">
        <ele>383.7</ele>
        <time>2016-09-07T07:04:31Z</time>
      </trkpt>
      <trkpt lat="46.05226" lon="1.22564">
        <ele>383.7</ele>
        <time>2016-09-07T07:04:33Z</time>
      </trkpt>
      <trkpt lat="46.05228" lon="1.22572">
        <ele>384.18</ele>
        <time>2016-09-07T07:04:37Z</time>
      </trkpt>
      <trkpt lat="46.05231" lon="1.22583">
        <ele>386.11</ele>
        <time>2016-09-07T07:04:45Z</time>
      </trkpt>
      <trkpt lat="46.05232" lon="1.22584">
        <ele>386.59</ele>
        <time>2016-09-07T07:04:46Z</time>
      </trkpt>
      <trkpt lat="46.05233" lon="1.22586">
        <ele>386.59</ele>
        <time>2016-09-07T07:04:47Z</time>
      </trkpt>
      <trkpt lat="46.05239" lon="1.22595">
        <ele>388.51</ele>
        <time>2016-09-07T07:04:54Z</time>
      </trkpt>
      <trkpt lat="46.05241" lon="1.226">
        <ele>388.99</ele>
        <time>2016-09-07T07:04:57Z</time>
      </trkpt>
      <trkpt lat="46.05242" lon="1.22602">
        <ele>388.99</ele>
        <time>2016-09-07T07:04:58Z</time>
      </trkpt>
      <trkpt lat="46.05244" lon="1.22603">
        <ele>389.47</ele>
        <time>2016-09-07T07:04:59Z</time>
      </trkpt>
      <trkpt lat="46.05249" lon="1.22609">
        <ele>390.43</ele>
        <time>2016-09-07T07:05:04Z</time>
      </trkpt>
      <trkpt lat="46.05251" lon="1.2261">
        <ele>390.91</ele>
        <time>2016-09-07T07:05:05Z</time>
      </trkpt>
      <trkpt lat="46.05252" lon="1.22611">
        <ele>390.91</ele>
        <time>2016-09-07T07:05:06Z</time>
      </trkpt>
      <trkpt lat="46.0527" lon="1.22625">
        <ele>393.32</ele>
        <time>2016-09-07T07:05:21Z</time>
      </trkpt>
      <trkpt lat="46.05286" lon="1.2264">
        <ele>394.76</ele>
        <time>2016-09-07T07:05:34Z</time>
      </trkpt>
      <trkpt lat="46.05312" lon="1.22669">
        <ele>397.64</ele>
        <time>2016-09-07T07:05:54Z</time>
      </trkpt>
      <trkpt lat="46.05331" lon="1.22692">
        <ele>399.08</ele>
        <time>2016-09-07T07:06:07Z</time>
      </trkpt>
      <trkpt lat="46.05352" lon="1.2272">
        <ele>401.49</ele>
        <time>2016-09-07T07:06:23Z</time>
      </trkpt>
      <trkpt lat="46.05376" lon="1.22753">
        <ele>402.93</ele>
        <time>2016-09-07T07:06:41Z</time>
      </trkpt>
      <trkpt lat="46.05395" lon="1.22781">
        <ele>405.33</ele>
        <time>2016-09-07T07:06:57Z</time>
      </trkpt>
      <trkpt lat="46.05396" lon="1.22784">
        <ele>405.81</ele>
        <time>2016-09-07T07:06:59Z</time>
      </trkpt>
      <trkpt lat="46.05398" lon="1.22786">
        <ele>405.81</ele>
        <time>2016-09-07T07:07:00Z</time>
      </trkpt>
      <trkpt lat="46.05399" lon="1.22787">
        <ele>405.81</ele>
        <time>2016-09-07T07:07:01Z</time>
      </trkpt>
      <trkpt lat="46.054" lon="1.22789">
        <ele>406.29</ele>
        <time>2016-09-07T07:07:02Z</time>
      </trkpt>
      <trkpt lat="46.05402" lon="1.2279">
        <ele>406.29</ele>
        <time>2016-09-07T07:07:03Z</time>
      </trkpt>
      <trkpt lat="46.05403" lon="1.22791">
        <ele>406.29</ele>
        <time>2016-09-07T07:07:04Z</time>
      </trkpt>
      <trkpt lat="46.05404" lon="1.22793">
        <ele>406.77</ele>
        <time>2016-09-07T07:07:05Z</time>
      </trkpt>
      <trkpt lat="46.05405" lon="1.22795">
        <ele>407.26</ele>
        <time>2016-09-07T07:07:06Z</time>
      </trkpt>
      <trkpt lat="46.05421" lon="1.22819">
        <ele>409.66</ele>
        <time>2016-09-07T07:07:21Z</time>
      </trkpt>
      <trkpt lat="46.05422" lon="1.2282">
        <ele>410.14</ele>
        <time>2016-09-07T07:07:22Z</time>
      </trkpt>
      <trkpt lat="46.05424" lon="1.22822">
        <ele>410.14</ele>
        <time>2016-09-07T07:07:23Z</time>
      </trkpt>
      <trkpt lat="46.05425" lon="1.22823">
        <ele>410.14</ele>
        <time>2016-09-07T07:07:24Z</time>
      </trkpt>
      <trkpt lat="46.05426" lon="1.22825">
        <ele>410.62</ele>
        <time>2016-09-07T07:07:25Z</time>
      </trkpt>
      <trkpt lat="46.05427" lon="1.22827">
        <ele>410.62</ele>
        <time>2016-09-07T07:07:26Z</time>
      </trkpt>
      <trkpt lat="46.05428" lon="1.22829">
        <ele>410.62</ele>
        <time>2016-09-07T07:07:27Z</time>
      </trkpt>
      <trkpt lat="46.05444" lon="1.22852">
        <ele>413.5</ele>
        <time>2016-09-07T07:07:42Z</time>
      </trkpt>
      <trkpt lat="46.05447" lon="1.22857">
        <ele>413.98</ele>
        <time>2016-09-07T07:07:45Z</time>
      </trkpt>
      <trkpt lat="46.05448" lon="1.22858">
        <ele>413.98</ele>
        <time>2016-09-07T07:07:46Z</time>
      </trkpt>
      <trkpt lat="46.05449" lon="1.2286">
        <ele>414.47</ele>
        <time>2016-09-07T07:07:47Z</time>
      </trkpt>
      <trkpt lat="46.0545" lon="1.22862">
        <ele>414.47</ele>
        <time>2016-09-07T07:07:48Z</time>
      </trkpt>
      <trkpt lat="46.05452" lon="1.22864">
        <ele>414.47</ele>
        <time>2016-09-07T07:07:49Z</time>
      </trkpt>
      <trkpt lat="46.05472" lon="1.22888">
        <ele>416.87</ele>
        <time>2016-09-07T07:08:04Z</time>
      </trkpt>
      <trkpt lat="46.05492" lon="1.22908">
        <ele>418.31</ele>
        <time>2016-09-07T07:08:18Z</time>
      </trkpt>
      <trkpt lat="46.05508" lon="1.22937">
        <ele>420.71</ele>
        <time>2016-09-07T07:08:33Z</time>
      </trkpt>
      <trkpt lat="46.05525" lon="1.22966">
        <ele>422.64</ele>
        <time>2016-09-07T07:08:48Z</time>
      </trkpt>
      <trkpt lat="46.05552" lon="1.23002">
        <ele>423.6</ele>
        <time>2016-09-07T07:09:06Z</time>
      </trkpt>
      <trkpt lat="46.05577" lon="1.23042">
        <ele>425.04</ele>
        <time>2016-09-07T07:09:23Z</time>
      </trkpt>
      <trkpt lat="46.05598" lon="1.23081">
        <ele>425.52</ele>
        <time>2016-09-07T07:09:37Z</time>
      </trkpt>
      <trkpt lat="46.05617" lon="1.23126">
        <ele>425.52</ele>
        <time>2016-09-07T07:09:51Z</time>
      </trkpt>
      <trkpt lat="46.05622" lon="1.23127">
        <ele>424.56</ele>
        <time>2016-09-07T07:09:53Z</time>
      </trkpt>
      <trkpt lat="46.0565" lon="1.23129">
        <ele>424.56</ele>
        <time>2016-09-07T07:10:04Z</time>
      </trkpt>
      <trkpt lat="46.05651" lon="1.23125">
        <ele>424.56</ele>
        <time>2016-09-07T07:10:05Z</time>
      </trkpt>
      <trkpt lat="46.05652" lon="1.23122">
        <ele>424.56</ele>
        <time>2016-09-07T07:10:06Z</time>
      </trkpt>
      <trkpt lat="46.05659" lon="1.23076">
        <ele>424.56</ele>
        <time>2016-09-07T07:10:20Z</time>
      </trkpt>
      <trkpt lat="46.05662" lon="1.23076">
        <ele>424.56</ele>
        <time>2016-09-07T07:10:21Z</time>
      </trkpt>
      <trkpt lat="46.05665" lon="1.23076">
        <ele>424.56</ele>
        <time>2016-09-07T07:10:22Z</time>
      </trkpt>
      <trkpt lat="46.0571" lon="1.23081">
        <ele>424.08</ele>
        <time>2016-09-07T07:10:35Z</time>
      </trkpt>
      <trkpt lat="46.05779" lon="1.23093">
        <ele>423.6</ele>
        <time>2016-09-07T07:10:52Z</time>
      </trkpt>
      <trkpt lat="46.05826" lon="1.23135">
        <ele>422.64</ele>
        <time>2016-09-07T07:11:06Z</time>
      </trkpt>
      <trkpt lat="46.05855" lon="1.23163">
        <ele>421.68</ele>
        <time>2016-09-07T07:11:14Z</time>
      </trkpt>
      <trkpt lat="46.05859" lon="1.23168">
        <ele>421.68</ele>
        <time>2016-09-07T07:11:15Z</time>
      </trkpt>
      <trkpt lat="46.05862" lon="1.23173">
        <ele>421.19</ele>
        <time>2016-09-07T07:11:16Z</time>
      </trkpt>
      <trkpt lat="46.05886" lon="1.23209">
        <ele>418.79</ele>
        <time>2016-09-07T07:11:22Z</time>
      </trkpt>
      <trkpt lat="46.059" lon="1.23243">
        <ele>416.39</ele>
        <time>2016-09-07T07:11:27Z</time>
      </trkpt>
      <trkpt lat="46.05922" lon="1.23279">
        <ele>413.02</ele>
        <time>2016-09-07T07:11:32Z</time>
      </trkpt>
      <trkpt lat="46.05941" lon="1.23308">
        <ele>409.66</ele>
        <time>2016-09-07T07:11:37Z</time>
      </trkpt>
      <trkpt lat="46.05943" lon="1.23331">
        <ele>407.74</ele>
        <time>2016-09-07T07:11:42Z</time>
      </trkpt>
      <trkpt lat="46.05941" lon="1.23333">
        <ele>407.74</ele>
        <time>2016-09-07T07:11:43Z</time>
      </trkpt>
      <trkpt lat="46.05938" lon="1.23336">
        <ele>407.26</ele>
        <time>2016-09-07T07:11:44Z</time>
      </trkpt>
      <trkpt lat="46.05936" lon="1.23339">
        <ele>407.26</ele>
        <time>2016-09-07T07:11:45Z</time>
      </trkpt>
      <trkpt lat="46.05934" lon="1.23342">
        <ele>406.77</ele>
        <time>2016-09-07T07:11:46Z</time>
      </trkpt>
      <trkpt lat="46.05923" lon="1.23358">
        <ele>405.81</ele>
        <time>2016-09-07T07:11:50Z</time>
      </trkpt>
      <trkpt lat="46.05891" lon="1.23424">
        <ele>402.45</ele>
        <time>2016-09-07T07:11:59Z</time>
      </trkpt>
      <trkpt lat="46.05867" lon="1.23475">
        <ele>401.01</ele>
        <time>2016-09-07T07:12:06Z</time>
      </trkpt>
      <trkpt lat="46.05864" lon="1.2348">
        <ele>400.53</ele>
        <time>2016-09-07T07:12:07Z</time>
      </trkpt>
      <trkpt lat="46.05858" lon="1.23502">
        <ele>400.05</ele>
        <time>2016-09-07T07:12:12Z</time>
      </trkpt>
      <trkpt lat="46.05859" lon="1.23506">
        <ele>400.05</ele>
        <time>2016-09-07T07:12:13Z</time>
      </trkpt>
      <trkpt lat="46.05861" lon="1.23508">
        <ele>400.05</ele>
        <time>2016-09-07T07:12:14Z</time>
      </trkpt>
      <trkpt lat="46.05864" lon="1.2351">
        <ele>400.05</ele>
        <time>2016-09-07T07:12:15Z</time>
      </trkpt>
      <trkpt lat="46.05867" lon="1.2351">
        <ele>400.05</ele>
        <time>2016-09-07T07:12:16Z</time>
      </trkpt>
      <trkpt lat="46.0587" lon="1.2351">
        <ele>400.05</ele>
        <time>2016-09-07T07:12:17Z</time>
      </trkpt>
      <trkpt lat="46.05874" lon="1.23509">
        <ele>400.05</ele>
        <time>2016-09-07T07:12:18Z</time>
      </trkpt>
      <trkpt lat="46.05944" lon="1.23494">
        <ele>397.16</ele>
        <time>2016-09-07T07:12:31Z</time>
      </trkpt>
      <trkpt lat="46.05958" lon="1.23494">
        <ele>397.16</ele>
        <time>2016-09-07T07:12:33Z</time>
      </trkpt>
      <trkpt lat="46.05964" lon="1.23495">
        <ele>397.16</ele>
        <time>2016-09-07T07:12:34Z</time>
      </trkpt>
      <trkpt lat="46.05979" lon="1.23498">
        <ele>396.2</ele>
        <time>2016-09-07T07:12:36Z</time>
      </trkpt>
      <trkpt lat="46.05986" lon="1.235">
        <ele>396.2</ele>
        <time>2016-09-07T07:12:37Z</time>
      </trkpt>
      <trkpt lat="46.06055" lon="1.23519">
        <ele>393.32</ele>
        <time>2016-09-07T07:12:49Z</time>
      </trkpt>
      <trkpt lat="46.06061" lon="1.23512">
        <ele>393.32</ele>
        <time>2016-09-07T07:12:51Z</time>
      </trkpt>
      <trkpt lat="46.06064" lon="1.23507">
        <ele>393.32</ele>
        <time>2016-09-07T07:12:52Z</time>
      </trkpt>
      <trkpt lat="46.06066" lon="1.23502">
        <ele>393.32</ele>
        <time>2016-09-07T07:12:53Z</time>
      </trkpt>
      <trkpt lat="46.06067" lon="1.23496">
        <ele>393.32</ele>
        <time>2016-09-07T07:12:54Z</time>
      </trkpt>
      <trkpt lat="46.06068" lon="1.2349">
        <ele>393.32</ele>
        <time>2016-09-07T07:12:55Z</time>
      </trkpt>
      <trkpt lat="46.06068" lon="1.23484">
        <ele>393.32</ele>
        <time>2016-09-07T07:12:56Z</time>
      </trkpt>
      <trkpt lat="46.06069" lon="1.23478">
        <ele>394.76</ele>
        <time>2016-09-07T07:12:57Z</time>
      </trkpt>
      <trkpt lat="46.06069" lon="1.23472">
        <ele>394.76</ele>
        <time>2016-09-07T07:12:58Z</time>
      </trkpt>
      <trkpt lat="46.0607" lon="1.23468">
        <ele>394.76</ele>
        <time>2016-09-07T07:12:59Z</time>
      </trkpt>
      <trkpt lat="46.06071" lon="1.23464">
        <ele>395.24</ele>
        <time>2016-09-07T07:13:00Z</time>
      </trkpt>
      <trkpt lat="46.06073" lon="1.23461">
        <ele>395.24</ele>
        <time>2016-09-07T07:13:01Z</time>
      </trkpt>
      <trkpt lat="46.06076" lon="1.23458">
        <ele>395.24</ele>
        <time>2016-09-07T07:13:02Z</time>
      </trkpt>
      <trkpt lat="46.06079" lon="1.23455">
        <ele>395.24</ele>
        <time>2016-09-07T07:13:03Z</time>
      </trkpt>
      <trkpt lat="46.06083" lon="1.2345">
        <ele>395.24</ele>
        <time>2016-09-07T07:13:04Z</time>
      </trkpt>
      <trkpt lat="46.06091" lon="1.23433">
        <ele>392.36</ele>
        <time>2016-09-07T07:13:07Z</time>
      </trkpt>
      <trkpt lat="46.06107" lon="1.23394">
        <ele>389.95</ele>
        <time>2016-09-07T07:13:17Z</time>
      </trkpt>
      <trkpt lat="46.06109" lon="1.23382">
        <ele>389.95</ele>
        <time>2016-09-07T07:13:19Z</time>
      </trkpt>
      <trkpt lat="46.06133" lon="1.23321">
        <ele>388.51</ele>
        <time>2016-09-07T07:13:32Z</time>
      </trkpt>
      <trkpt lat="46.06137" lon="1.23313">
        <ele>388.03</ele>
        <time>2016-09-07T07:13:34Z</time>
      </trkpt>
      <trkpt lat="46.06156" lon="1.2329">
        <ele>387.55</ele>
        <time>2016-09-07T07:13:43Z</time>
      </trkpt>
      <trkpt lat="46.06157" lon="1.23288">
        <ele>387.55</ele>
        <time>2016-09-07T07:13:44Z</time>
      </trkpt>
      <trkpt lat="46.06158" lon="1.23286">
        <ele>387.55</ele>
        <time>2016-09-07T07:13:45Z</time>
      </trkpt>
      <trkpt lat="46.06159" lon="1.23284">
        <ele>387.55</ele>
        <time>2016-09-07T07:13:46Z</time>
      </trkpt>
      <trkpt lat="46.06161" lon="1.23282">
        <ele>388.03</ele>
        <time>2016-09-07T07:13:47Z</time>
      </trkpt>
      <trkpt lat="46.06163" lon="1.23279">
        <ele>388.03</ele>
        <time>2016-09-07T07:13:48Z</time>
      </trkpt>
      <trkpt lat="46.06166" lon="1.23276">
        <ele>388.03</ele>
        <time>2016-09-07T07:13:49Z</time>
      </trkpt>
      <trkpt lat="46.06168" lon="1.23273">
        <ele>388.03</ele>
        <time>2016-09-07T07:13:50Z</time>
      </trkpt>
      <trkpt lat="46.06171" lon="1.2327">
        <ele>388.03</ele>
        <time>2016-09-07T07:13:51Z</time>
      </trkpt>
      <trkpt lat="46.06173" lon="1.23267">
        <ele>388.03</ele>
        <time>2016-09-07T07:13:52Z</time>
      </trkpt>
      <trkpt lat="46.06176" lon="1.23263">
        <ele>388.03</ele>
        <time>2016-09-07T07:13:53Z</time>
      </trkpt>
      <trkpt lat="46.06208" lon="1.23222">
        <ele>387.55</ele>
        <time>2016-09-07T07:14:06Z</time>
      </trkpt>
      <trkpt lat="46.06224" lon="1.23202">
        <ele>387.07</ele>
        <time>2016-09-07T07:14:16Z</time>
      </trkpt>
      <trkpt lat="46.06227" lon="1.23198">
        <ele>387.07</ele>
        <time>2016-09-07T07:14:29Z</time>
      </trkpt>
      <trkpt lat="46.06252" lon="1.2317">
        <ele>387.07</ele>
        <time>2016-09-07T07:14:40Z</time>
      </trkpt>
      <trkpt lat="46.06278" lon="1.23133">
        <ele>386.11</ele>
        <time>2016-09-07T07:14:52Z</time>
      </trkpt>
      <trkpt lat="46.06305" lon="1.23084">
        <ele>384.66</ele>
        <time>2016-09-07T07:15:03Z</time>
      </trkpt>
      <trkpt lat="46.06321" lon="1.23054">
        <ele>382.74</ele>
        <time>2016-09-07T07:15:09Z</time>
      </trkpt>
      <trkpt lat="46.06324" lon="1.23049">
        <ele>382.74</ele>
        <time>2016-09-07T07:15:10Z</time>
      </trkpt>
      <trkpt lat="46.06328" lon="1.23044">
        <ele>382.26</ele>
        <time>2016-09-07T07:15:11Z</time>
      </trkpt>
      <trkpt lat="46.06331" lon="1.23039">
        <ele>382.26</ele>
        <time>2016-09-07T07:15:12Z</time>
      </trkpt>
      <trkpt lat="46.06332" lon="1.23031">
        <ele>381.78</ele>
        <time>2016-09-07T07:15:13Z</time>
      </trkpt>
      <trkpt lat="46.0633" lon="1.23024">
        <ele>381.3</ele>
        <time>2016-09-07T07:15:14Z</time>
      </trkpt>
      <trkpt lat="46.06328" lon="1.23016">
        <ele>380.82</ele>
        <time>2016-09-07T07:15:15Z</time>
      </trkpt>
      <trkpt lat="46.06329" lon="1.23001">
        <ele>380.34</ele>
        <time>2016-09-07T07:15:17Z</time>
      </trkpt>
      <trkpt lat="46.06345" lon="1.22936">
        <ele>379.38</ele>
        <time>2016-09-07T07:15:28Z</time>
      </trkpt>
      <trkpt lat="46.06349" lon="1.22919">
        <ele>380.82</ele>
        <time>2016-09-07T07:15:32Z</time>
      </trkpt>
      <trkpt lat="46.0635" lon="1.22911">
        <ele>381.3</ele>
        <time>2016-09-07T07:15:34Z</time>
      </trkpt>
      <trkpt lat="46.06362" lon="1.22863">
        <ele>383.22</ele>
        <time>2016-09-07T07:15:47Z</time>
      </trkpt>
      <trkpt lat="46.06375" lon="1.22822">
        <ele>385.63</ele>
        <time>2016-09-07T07:15:58Z</time>
      </trkpt>
      <trkpt lat="46.06376" lon="1.22819">
        <ele>385.63</ele>
        <time>2016-09-07T07:15:59Z</time>
      </trkpt>
      <trkpt lat="46.06378" lon="1.22817">
        <ele>386.11</ele>
        <time>2016-09-07T07:16:00Z</time>
      </trkpt>
      <trkpt lat="46.0638" lon="1.22814">
        <ele>386.59</ele>
        <time>2016-09-07T07:16:01Z</time>
      </trkpt>
      <trkpt lat="46.06381" lon="1.22812">
        <ele>386.59</ele>
        <time>2016-09-07T07:16:02Z</time>
      </trkpt>
      <trkpt lat="46.06383" lon="1.2281">
        <ele>386.59</ele>
        <time>2016-09-07T07:16:03Z</time>
      </trkpt>
      <trkpt lat="46.06384" lon="1.22809">
        <ele>387.07</ele>
        <time>2016-09-07T07:16:04Z</time>
      </trkpt>
      <trkpt lat="46.06386" lon="1.22809">
        <ele>387.07</ele>
        <time>2016-09-07T07:16:05Z</time>
      </trkpt>
      <trkpt lat="46.06388" lon="1.22808">
        <ele>387.07</ele>
        <time>2016-09-07T07:16:06Z</time>
      </trkpt>
      <trkpt lat="46.06391" lon="1.22809">
        <ele>388.03</ele>
        <time>2016-09-07T07:16:07Z</time>
      </trkpt>
      <trkpt lat="46.06393" lon="1.22811">
        <ele>388.03</ele>
        <time>2016-09-07T07:16:08Z</time>
      </trkpt>
      <trkpt lat="46.06395" lon="1.22813">
        <ele>388.03</ele>
        <time>2016-09-07T07:16:09Z</time>
      </trkpt>
      <trkpt lat="46.06397" lon="1.22815">
        <ele>388.03</ele>
        <time>2016-09-07T07:16:10Z</time>
      </trkpt>
      <trkpt lat="46.06399" lon="1.22819">
        <ele>388.03</ele>
        <time>2016-09-07T07:16:11Z</time>
      </trkpt>
      <trkpt lat="46.06399" lon="1.22822">
        <ele>388.03</ele>
        <time>2016-09-07T07:16:12Z</time>
      </trkpt>
      <trkpt lat="46.064" lon="1.22826">
        <ele>388.03</ele>
        <time>2016-09-07T07:16:13Z</time>
      </trkpt>
      <trkpt lat="46.064" lon="1.2283">
        <ele>388.03</ele>
        <time>2016-09-07T07:16:14Z</time>
      </trkpt>
      <trkpt lat="46.06401" lon="1.22834">
        <ele>388.03</ele>
        <time>2016-09-07T07:16:15Z</time>
      </trkpt>
      <trkpt lat="46.06407" lon="1.22851">
        <ele>386.59</ele>
        <time>2016-09-07T07:16:19Z</time>
      </trkpt>
      <trkpt lat="46.06426" lon="1.22893">
        <ele>383.22</ele>
        <time>2016-09-07T07:16:28Z</time>
      </trkpt>
      <trkpt lat="46.06429" lon="1.22897">
        <ele>383.22</ele>
        <time>2016-09-07T07:16:29Z</time>
      </trkpt>
      <trkpt lat="46.06432" lon="1.22901">
        <ele>382.26</ele>
        <time>2016-09-07T07:16:30Z</time>
      </trkpt>
      <trkpt lat="46.06451" lon="1.2293">
        <ele>378.9</ele>
        <time>2016-09-07T07:16:37Z</time>
      </trkpt>
      <trkpt lat="46.06468" lon="1.22951">
        <ele>377.45</ele>
        <time>2016-09-07T07:16:42Z</time>
      </trkpt>
      <trkpt lat="46.06519" lon="1.22993">
        <ele>376.49</ele>
        <time>2016-09-07T07:16:56Z</time>
      </trkpt>
      <trkpt lat="46.06564" lon="1.23021">
        <ele>376.01</ele>
        <time>2016-09-07T07:17:08Z</time>
      </trkpt>
      <trkpt lat="46.06611" lon="1.23054">
        <ele>376.49</ele>
        <time>2016-09-07T07:17:21Z</time>
      </trkpt>
      <trkpt lat="46.06645" lon="1.2308">
        <ele>376.49</ele>
        <time>2016-09-07T07:17:31Z</time>
      </trkpt>
      <trkpt lat="46.06651" lon="1.2309">
        <ele>376.49</ele>
        <time>2016-09-07T07:17:33Z</time>
      </trkpt>
      <trkpt lat="46.06653" lon="1.23096">
        <ele>376.49</ele>
        <time>2016-09-07T07:17:34Z</time>
      </trkpt>
      <trkpt lat="46.06655" lon="1.23103">
        <ele>376.49</ele>
        <time>2016-09-07T07:17:35Z</time>
      </trkpt>
      <trkpt lat="46.06657" lon="1.2319">
        <ele>378.9</ele>
        <time>2016-09-07T07:17:50Z</time>
      </trkpt>
      <trkpt lat="46.06649" lon="1.23262">
        <ele>379.38</ele>
        <time>2016-09-07T07:18:04Z</time>
      </trkpt>
      <trkpt lat="46.06648" lon="1.23291">
        <ele>377.94</ele>
        <time>2016-09-07T07:18:10Z</time>
      </trkpt>
      <trkpt lat="46.06671" lon="1.23347">
        <ele>376.01</ele>
        <time>2016-09-07T07:18:20Z</time>
      </trkpt>
      <trkpt lat="46.06674" lon="1.23359">
        <ele>375.53</ele>
        <time>2016-09-07T07:18:22Z</time>
      </trkpt>
      <trkpt lat="46.06681" lon="1.23385">
        <ele>374.57</ele>
        <time>2016-09-07T07:18:26Z</time>
      </trkpt>
      <trkpt lat="46.06714" lon="1.23438">
        <ele>373.13</ele>
        <time>2016-09-07T07:18:37Z</time>
      </trkpt>
      <trkpt lat="46.06718" lon="1.2344">
        <ele>373.13</ele>
        <time>2016-09-07T07:18:38Z</time>
      </trkpt>
      <trkpt lat="46.06723" lon="1.23442">
        <ele>373.13</ele>
        <time>2016-09-07T07:18:39Z</time>
      </trkpt>
      <trkpt lat="46.06728" lon="1.23444">
        <ele>373.13</ele>
        <time>2016-09-07T07:18:40Z</time>
      </trkpt>
      <trkpt lat="46.06733" lon="1.23446">
        <ele>372.65</ele>
        <time>2016-09-07T07:18:41Z</time>
      </trkpt>
      <trkpt lat="46.06804" lon="1.23472">
        <ele>369.28</ele>
        <time>2016-09-07T07:18:53Z</time>
      </trkpt>
      <trkpt lat="46.06861" lon="1.23482">
        <ele>366.88</ele>
        <time>2016-09-07T07:19:01Z</time>
      </trkpt>
      <trkpt lat="46.06883" lon="1.23483">
        <ele>366.4</ele>
        <time>2016-09-07T07:19:04Z</time>
      </trkpt>
      <trkpt lat="46.06891" lon="1.23486">
        <ele>365.92</ele>
        <time>2016-09-07T07:19:05Z</time>
      </trkpt>
      <trkpt lat="46.06899" lon="1.23489">
        <ele>365.44</ele>
        <time>2016-09-07T07:19:06Z</time>
      </trkpt>
      <trkpt lat="46.06906" lon="1.23494">
        <ele>364.96</ele>
        <time>2016-09-07T07:19:07Z</time>
      </trkpt>
      <trkpt lat="46.06914" lon="1.235">
        <ele>364.48</ele>
        <time>2016-09-07T07:19:08Z</time>
      </trkpt>
      <trkpt lat="46.06921" lon="1.23508">
        <ele>364</ele>
        <time>2016-09-07T07:19:09Z</time>
      </trkpt>
      <trkpt lat="46.06935" lon="1.23521">
        <ele>363.04</ele>
        <time>2016-09-07T07:19:11Z</time>
      </trkpt>
      <trkpt lat="46.06966" lon="1.23551">
        <ele>360.63</ele>
        <time>2016-09-07T07:19:19Z</time>
      </trkpt>
      <trkpt lat="46.06968" lon="1.23548">
        <ele>360.15</ele>
        <time>2016-09-07T07:19:20Z</time>
      </trkpt>
      <trkpt lat="46.0697" lon="1.23542">
        <ele>360.15</ele>
        <time>2016-09-07T07:19:22Z</time>
      </trkpt>
      <trkpt lat="46.06969" lon="1.23527">
        <ele>361.11</ele>
        <time>2016-09-07T07:19:26Z</time>
      </trkpt>
      <trkpt lat="46.06961" lon="1.23494">
        <ele>364.48</ele>
        <time>2016-09-07T07:19:39Z</time>
      </trkpt>
      <trkpt lat="46.06957" lon="1.2346">
        <ele>366.88</ele>
        <time>2016-09-07T07:19:53Z</time>
      </trkpt>
      <trkpt lat="46.06962" lon="1.23444">
        <ele>368.32</ele>
        <time>2016-09-07T07:20:01Z</time>
      </trkpt>
      <trkpt lat="46.06973" lon="1.23417">
        <ele>371.21</ele>
        <time>2016-09-07T07:20:15Z</time>
      </trkpt>
      <trkpt lat="46.06988" lon="1.23391">
        <ele>373.61</ele>
        <time>2016-09-07T07:20:30Z</time>
      </trkpt>
      <trkpt lat="46.06989" lon="1.23391">
        <ele>374.09</ele>
        <time>2016-09-07T07:20:31Z</time>
      </trkpt>
      <trkpt lat="46.07015" lon="1.23377">
        <ele>375.53</ele>
        <time>2016-09-07T07:20:41Z</time>
      </trkpt>
      <trkpt lat="46.07043" lon="1.23359">
        <ele>377.45</ele>
        <time>2016-09-07T07:20:55Z</time>
      </trkpt>
      <trkpt lat="46.07054" lon="1.23346">
        <ele>378.9</ele>
        <time>2016-09-07T07:21:03Z</time>
      </trkpt>
      <trkpt lat="46.07073" lon="1.23335">
        <ele>380.34</ele>
        <time>2016-09-07T07:21:16Z</time>
      </trkpt>
      <trkpt lat="46.07101" lon="1.23311">
        <ele>381.3</ele>
        <time>2016-09-07T07:21:31Z</time>
      </trkpt>
      <trkpt lat="46.0712" lon="1.23289">
        <ele>382.26</ele>
        <time>2016-09-07T07:21:43Z</time>
      </trkpt>
      <trkpt lat="46.07126" lon="1.23286">
        <ele>382.26</ele>
        <time>2016-09-07T07:21:55Z</time>
      </trkpt>
      <trkpt lat="46.07133" lon="1.23279">
        <ele>382.26</ele>
        <time>2016-09-07T07:22:22Z</time>
      </trkpt>
      <trkpt lat="46.07131" lon="1.23282">
        <ele>382.26</ele>
        <time>2016-09-07T07:22:52Z</time>
      </trkpt>
      <trkpt lat="46.07133" lon="1.23276">
        <ele>381.3</ele>
        <time>2016-09-07T07:23:07Z</time>
      </trkpt>
      <trkpt lat="46.07137" lon="1.23278">
        <ele>381.3</ele>
        <time>2016-09-07T07:23:49Z</time>
      </trkpt>
      <trkpt lat="46.07139" lon="1.23276">
        <ele>381.3</ele>
        <time>2016-09-07T07:24:08Z</time>
      </trkpt>
      <trkpt lat="46.0714" lon="1.2328">
        <ele>381.3</ele>
        <time>2016-09-07T07:24:42Z</time>
      </trkpt>
      <trkpt lat="46.07139" lon="1.23277">
        <ele>381.3</ele>
        <time>2016-09-07T07:24:44Z</time>
      </trkpt>
      <trkpt lat="46.0714" lon="1.23254">
        <ele>381.3</ele>
        <time>2016-09-07T07:24:54Z</time>
      </trkpt>
      <trkpt lat="46.07135" lon="1.23239">
        <ele>381.3</ele>
        <time>2016-09-07T07:24:59Z</time>
      </trkpt>
      <trkpt lat="46.0714" lon="1.23198">
        <ele>381.3</ele>
        <time>2016-09-07T07:25:11Z</time>
      </trkpt>
      <trkpt lat="46.07147" lon="1.23172">
        <ele>382.74</ele>
        <time>2016-09-07T07:25:19Z</time>
      </trkpt>
      <trkpt lat="46.07153" lon="1.23129">
        <ele>385.15</ele>
        <time>2016-09-07T07:25:30Z</time>
      </trkpt>
      <trkpt lat="46.07159" lon="1.23089">
        <ele>387.07</ele>
        <time>2016-09-07T07:25:42Z</time>
      </trkpt>
      <trkpt lat="46.07154" lon="1.23046">
        <ele>389.95</ele>
        <time>2016-09-07T07:25:54Z</time>
      </trkpt>
      <trkpt lat="46.0714" lon="1.23002">
        <ele>390.91</ele>
        <time>2016-09-07T07:26:07Z</time>
      </trkpt>
      <trkpt lat="46.0712" lon="1.22961">
        <ele>390.91</ele>
        <time>2016-09-07T07:26:19Z</time>
      </trkpt>
      <trkpt lat="46.07101" lon="1.22921">
        <ele>391.39</ele>
        <time>2016-09-07T07:26:31Z</time>
      </trkpt>
      <trkpt lat="46.07095" lon="1.22892">
        <ele>391.87</ele>
        <time>2016-09-07T07:26:40Z</time>
      </trkpt>
      <trkpt lat="46.07093" lon="1.2289">
        <ele>391.87</ele>
        <time>2016-09-07T07:26:41Z</time>
      </trkpt>
      <trkpt lat="46.07082" lon="1.22877">
        <ele>393.32</ele>
        <time>2016-09-07T07:26:51Z</time>
      </trkpt>
      <trkpt lat="46.07081" lon="1.22875">
        <ele>393.8</ele>
        <time>2016-09-07T07:26:52Z</time>
      </trkpt>
      <trkpt lat="46.07067" lon="1.22843">
        <ele>394.28</ele>
        <time>2016-09-07T07:27:03Z</time>
      </trkpt>
      <trkpt lat="46.07066" lon="1.22839">
        <ele>394.28</ele>
        <time>2016-09-07T07:27:04Z</time>
      </trkpt>
      <trkpt lat="46.07062" lon="1.22779">
        <ele>394.28</ele>
        <time>2016-09-07T07:27:18Z</time>
      </trkpt>
      <trkpt lat="46.07064" lon="1.2273">
        <ele>395.24</ele>
        <time>2016-09-07T07:27:29Z</time>
      </trkpt>
      <trkpt lat="46.07055" lon="1.22676">
        <ele>396.2</ele>
        <time>2016-09-07T07:27:42Z</time>
      </trkpt>
      <trkpt lat="46.07056" lon="1.22672">
        <ele>396.2</ele>
        <time>2016-09-07T07:27:54Z</time>
      </trkpt>
      <trkpt lat="46.07055" lon="1.2267">
        <ele>396.2</ele>
        <time>2016-09-07T07:27:55Z</time>
      </trkpt>
      <trkpt lat="46.07042" lon="1.22629">
        <ele>394.76</ele>
        <time>2016-09-07T07:28:05Z</time>
      </trkpt>
      <trkpt lat="46.07029" lon="1.22571">
        <ele>392.36</ele>
        <time>2016-09-07T07:28:16Z</time>
      </trkpt>
      <trkpt lat="46.07027" lon="1.22566">
        <ele>392.36</ele>
        <time>2016-09-07T07:28:17Z</time>
      </trkpt>
      <trkpt lat="46.07024" lon="1.22562">
        <ele>392.36</ele>
        <time>2016-09-07T07:28:18Z</time>
      </trkpt>
      <trkpt lat="46.07021" lon="1.22559">
        <ele>391.87</ele>
        <time>2016-09-07T07:28:19Z</time>
      </trkpt>
      <trkpt lat="46.07019" lon="1.22557">
        <ele>391.87</ele>
        <time>2016-09-07T07:28:20Z</time>
      </trkpt>
      <trkpt lat="46.06991" lon="1.22536">
        <ele>391.39</ele>
        <time>2016-09-07T07:28:31Z</time>
      </trkpt>
      <trkpt lat="46.06964" lon="1.2252">
        <ele>391.39</ele>
        <time>2016-09-07T07:28:42Z</time>
      </trkpt>
      <trkpt lat="46.06963" lon="1.22517">
        <ele>391.39</ele>
        <time>2016-09-07T07:28:43Z</time>
      </trkpt>
      <trkpt lat="46.06964" lon="1.22514">
        <ele>391.39</ele>
        <time>2016-09-07T07:28:44Z</time>
      </trkpt>
      <trkpt lat="46.06965" lon="1.22511">
        <ele>391.39</ele>
        <time>2016-09-07T07:28:45Z</time>
      </trkpt>
      <trkpt lat="46.06967" lon="1.22507">
        <ele>391.39</ele>
        <time>2016-09-07T07:28:46Z</time>
      </trkpt>
      <trkpt lat="46.06967" lon="1.22503">
        <ele>391.39</ele>
        <time>2016-09-07T07:28:47Z</time>
      </trkpt>
      <trkpt lat="46.06967" lon="1.22498">
        <ele>390.91</ele>
        <time>2016-09-07T07:28:48Z</time>
      </trkpt>
      <trkpt lat="46.06966" lon="1.22493">
        <ele>390.91</ele>
        <time>2016-09-07T07:28:49Z</time>
      </trkpt>
      <trkpt lat="46.06967" lon="1.22488">
        <ele>390.91</ele>
        <time>2016-09-07T07:28:50Z</time>
      </trkpt>
      <trkpt lat="46.06971" lon="1.22422">
        <ele>387.07</ele>
        <time>2016-09-07T07:29:01Z</time>
      </trkpt>
      <trkpt lat="46.06974" lon="1.22401">
        <ele>386.59</ele>
        <time>2016-09-07T07:29:04Z</time>
      </trkpt>
      <trkpt lat="46.0698" lon="1.22359">
        <ele>385.63</ele>
        <time>2016-09-07T07:29:10Z</time>
      </trkpt>
      <trkpt lat="46.06986" lon="1.22288">
        <ele>385.15</ele>
        <time>2016-09-07T07:29:22Z</time>
      </trkpt>
      <trkpt lat="46.06996" lon="1.22227">
        <ele>384.18</ele>
        <time>2016-09-07T07:29:33Z</time>
      </trkpt>
      <trkpt lat="46.07002" lon="1.22168">
        <ele>382.26</ele>
        <time>2016-09-07T07:29:43Z</time>
      </trkpt>
      <trkpt lat="46.07017" lon="1.22107">
        <ele>379.38</ele>
        <time>2016-09-07T07:29:54Z</time>
      </trkpt>
      <trkpt lat="46.07022" lon="1.22097">
        <ele>378.9</ele>
        <time>2016-09-07T07:29:56Z</time>
      </trkpt>
      <trkpt lat="46.07025" lon="1.2209">
        <ele>378.42</ele>
        <time>2016-09-07T07:29:57Z</time>
      </trkpt>
      <trkpt lat="46.07026" lon="1.22083">
        <ele>378.42</ele>
        <time>2016-09-07T07:29:58Z</time>
      </trkpt>
      <trkpt lat="46.07046" lon="1.22022">
        <ele>375.53</ele>
        <time>2016-09-07T07:30:09Z</time>
      </trkpt>
      <trkpt lat="46.07054" lon="1.21971">
        <ele>373.61</ele>
        <time>2016-09-07T07:30:18Z</time>
      </trkpt>
      <trkpt lat="46.07055" lon="1.21964">
        <ele>372.65</ele>
        <time>2016-09-07T07:30:19Z</time>
      </trkpt>
      <trkpt lat="46.07056" lon="1.21914">
        <ele>369.28</ele>
        <time>2016-09-07T07:30:29Z</time>
      </trkpt>
      <trkpt lat="46.0705" lon="1.21884">
        <ele>365.92</ele>
        <time>2016-09-07T07:30:37Z</time>
      </trkpt>
      <trkpt lat="46.07047" lon="1.21873">
        <ele>365.44</ele>
        <time>2016-09-07T07:30:40Z</time>
      </trkpt>
      <trkpt lat="46.07043" lon="1.21868">
        <ele>364.96</ele>
        <time>2016-09-07T07:30:41Z</time>
      </trkpt>
      <trkpt lat="46.07041" lon="1.21864">
        <ele>364.48</ele>
        <time>2016-09-07T07:30:42Z</time>
      </trkpt>
      <trkpt lat="46.07035" lon="1.21829">
        <ele>360.63</ele>
        <time>2016-09-07T07:30:50Z</time>
      </trkpt>
      <trkpt lat="46.07026" lon="1.21767">
        <ele>358.23</ele>
        <time>2016-09-07T07:31:01Z</time>
      </trkpt>
      <trkpt lat="46.07013" lon="1.21709">
        <ele>357.75</ele>
        <time>2016-09-07T07:31:12Z</time>
      </trkpt>
      <trkpt lat="46.07004" lon="1.21666">
        <ele>357.75</ele>
        <time>2016-09-07T07:31:22Z</time>
      </trkpt>
      <trkpt lat="46.07002" lon="1.21661">
        <ele>357.75</ele>
        <time>2016-09-07T07:31:35Z</time>
      </trkpt>
      <trkpt lat="46.07" lon="1.21658">
        <ele>358.23</ele>
        <time>2016-09-07T07:32:05Z</time>
      </trkpt>
      <trkpt lat="46.07002" lon="1.21657">
        <ele>358.23</ele>
        <time>2016-09-07T07:32:06Z</time>
      </trkpt>
      <trkpt lat="46.07004" lon="1.21658">
        <ele>358.23</ele>
        <time>2016-09-07T07:32:07Z</time>
      </trkpt>
      <trkpt lat="46.07006" lon="1.21658">
        <ele>358.23</ele>
        <time>2016-09-07T07:32:08Z</time>
      </trkpt>
      <trkpt lat="46.07009" lon="1.21658">
        <ele>358.23</ele>
        <time>2016-09-07T07:32:09Z</time>
      </trkpt>
      <trkpt lat="46.07042" lon="1.21662">
        <ele>359.19</ele>
        <time>2016-09-07T07:32:19Z</time>
      </trkpt>
      <trkpt lat="46.07093" lon="1.21676">
        <ele>360.63</ele>
        <time>2016-09-07T07:32:34Z</time>
      </trkpt>
      <trkpt lat="46.07121" lon="1.21674">
        <ele>362.55</ele>
        <time>2016-09-07T07:32:44Z</time>
      </trkpt>
      <trkpt lat="46.07151" lon="1.21657">
        <ele>364</ele>
        <time>2016-09-07T07:32:56Z</time>
      </trkpt>
      <trkpt lat="46.07151" lon="1.21654">
        <ele>364</ele>
        <time>2016-09-07T07:32:57Z</time>
      </trkpt>
      <trkpt lat="46.07153" lon="1.21649">
        <ele>364.48</ele>
        <time>2016-09-07T07:32:58Z</time>
      </trkpt>
      <trkpt lat="46.07175" lon="1.21588">
        <ele>364.48</ele>
        <time>2016-09-07T07:33:11Z</time>
      </trkpt>
      <trkpt lat="46.07206" lon="1.21532">
        <ele>361.59</ele>
        <time>2016-09-07T07:33:23Z</time>
      </trkpt>
      <trkpt lat="46.07218" lon="1.21523">
        <ele>361.11</ele>
        <time>2016-09-07T07:33:27Z</time>
      </trkpt>
      <trkpt lat="46.07294" lon="1.21503">
        <ele>360.15</ele>
        <time>2016-09-07T07:33:44Z</time>
      </trkpt>
      <trkpt lat="46.07299" lon="1.21503">
        <ele>360.15</ele>
        <time>2016-09-07T07:33:45Z</time>
      </trkpt>
      <trkpt lat="46.07353" lon="1.21516">
        <ele>360.63</ele>
        <time>2016-09-07T07:34:01Z</time>
      </trkpt>
      <trkpt lat="46.07352" lon="1.21516">
        <ele>360.63</ele>
        <time>2016-09-07T07:34:16Z</time>
      </trkpt>
      <trkpt lat="46.07353" lon="1.21514">
        <ele>361.59</ele>
        <time>2016-09-07T07:34:26Z</time>
      </trkpt>
      <trkpt lat="46.07354" lon="1.21514">
        <ele>361.59</ele>
        <time>2016-09-07T07:34:27Z</time>
      </trkpt>
      <trkpt lat="46.07356" lon="1.21514">
        <ele>361.59</ele>
        <time>2016-09-07T07:34:28Z</time>
      </trkpt>
      <trkpt lat="46.07359" lon="1.21514">
        <ele>361.59</ele>
        <time>2016-09-07T07:34:29Z</time>
      </trkpt>
      <trkpt lat="46.07363" lon="1.21516">
        <ele>361.59</ele>
        <time>2016-09-07T07:34:30Z</time>
      </trkpt>
      <trkpt lat="46.0741" lon="1.21525">
        <ele>359.67</ele>
        <time>2016-09-07T07:34:41Z</time>
      </trkpt>
      <trkpt lat="46.07414" lon="1.21523">
        <ele>359.19</ele>
        <time>2016-09-07T07:34:43Z</time>
      </trkpt>
      <trkpt lat="46.07416" lon="1.21522">
        <ele>359.19</ele>
        <time>2016-09-07T07:34:44Z</time>
      </trkpt>
      <trkpt lat="46.07418" lon="1.21521">
        <ele>359.19</ele>
        <time>2016-09-07T07:34:45Z</time>
      </trkpt>
      <trkpt lat="46.0742" lon="1.21518">
        <ele>359.19</ele>
        <time>2016-09-07T07:34:46Z</time>
      </trkpt>
      <trkpt lat="46.07421" lon="1.21515">
        <ele>359.19</ele>
        <time>2016-09-07T07:34:47Z</time>
      </trkpt>
      <trkpt lat="46.07423" lon="1.21512">
        <ele>359.19</ele>
        <time>2016-09-07T07:34:48Z</time>
      </trkpt>
      <trkpt lat="46.07424" lon="1.2151">
        <ele>359.19</ele>
        <time>2016-09-07T07:34:49Z</time>
      </trkpt>
      <trkpt lat="46.07426" lon="1.21507">
        <ele>359.19</ele>
        <time>2016-09-07T07:34:50Z</time>
      </trkpt>
      <trkpt lat="46.07447" lon="1.21453">
        <ele>358.71</ele>
        <time>2016-09-07T07:35:04Z</time>
      </trkpt>
      <trkpt lat="46.07452" lon="1.21442">
        <ele>358.71</ele>
        <time>2016-09-07T07:35:06Z</time>
      </trkpt>
      <trkpt lat="46.07457" lon="1.21433">
        <ele>357.75</ele>
        <time>2016-09-07T07:35:08Z</time>
      </trkpt>
      <trkpt lat="46.0746" lon="1.21429">
        <ele>357.75</ele>
        <time>2016-09-07T07:35:09Z</time>
      </trkpt>
      <trkpt lat="46.07463" lon="1.21426">
        <ele>357.75</ele>
        <time>2016-09-07T07:35:10Z</time>
      </trkpt>
      <trkpt lat="46.07467" lon="1.21423">
        <ele>357.75</ele>
        <time>2016-09-07T07:35:11Z</time>
      </trkpt>
      <trkpt lat="46.07471" lon="1.21421">
        <ele>357.75</ele>
        <time>2016-09-07T07:35:12Z</time>
      </trkpt>
      <trkpt lat="46.07475" lon="1.2142">
        <ele>357.75</ele>
        <time>2016-09-07T07:35:13Z</time>
      </trkpt>
      <trkpt lat="46.07479" lon="1.21418">
        <ele>357.75</ele>
        <time>2016-09-07T07:35:14Z</time>
      </trkpt>
      <trkpt lat="46.07483" lon="1.21418">
        <ele>357.27</ele>
        <time>2016-09-07T07:35:15Z</time>
      </trkpt>
      <trkpt lat="46.07487" lon="1.21417">
        <ele>357.27</ele>
        <time>2016-09-07T07:35:16Z</time>
      </trkpt>
      <trkpt lat="46.07492" lon="1.21418">
        <ele>356.31</ele>
        <time>2016-09-07T07:35:17Z</time>
      </trkpt>
      <trkpt lat="46.07501" lon="1.21421">
        <ele>355.83</ele>
        <time>2016-09-07T07:35:19Z</time>
      </trkpt>
      <trkpt lat="46.0751" lon="1.21427">
        <ele>355.34</ele>
        <time>2016-09-07T07:35:21Z</time>
      </trkpt>
      <trkpt lat="46.07528" lon="1.21441">
        <ele>354.38</ele>
        <time>2016-09-07T07:35:26Z</time>
      </trkpt>
      <trkpt lat="46.07532" lon="1.21444">
        <ele>353.9</ele>
        <time>2016-09-07T07:35:27Z</time>
      </trkpt>
      <trkpt lat="46.07564" lon="1.21475">
        <ele>351.02</ele>
        <time>2016-09-07T07:35:37Z</time>
      </trkpt>
      <trkpt lat="46.07566" lon="1.21479">
        <ele>350.54</ele>
        <time>2016-09-07T07:35:38Z</time>
      </trkpt>
      <trkpt lat="46.0757" lon="1.21483">
        <ele>350.54</ele>
        <time>2016-09-07T07:35:39Z</time>
      </trkpt>
      <trkpt lat="46.07574" lon="1.21486">
        <ele>350.06</ele>
        <time>2016-09-07T07:35:40Z</time>
      </trkpt>
      <trkpt lat="46.07579" lon="1.21489">
        <ele>350.06</ele>
        <time>2016-09-07T07:35:41Z</time>
      </trkpt>
      <trkpt lat="46.07585" lon="1.21491">
        <ele>349.1</ele>
        <time>2016-09-07T07:35:42Z</time>
      </trkpt>
      <trkpt lat="46.07591" lon="1.21492">
        <ele>349.58</ele>
        <time>2016-09-07T07:35:43Z</time>
      </trkpt>
      <trkpt lat="46.07596" lon="1.21494">
        <ele>349.1</ele>
        <time>2016-09-07T07:35:44Z</time>
      </trkpt>
      <trkpt lat="46.07637" lon="1.21504">
        <ele>349.1</ele>
        <time>2016-09-07T07:35:52Z</time>
      </trkpt>
      <trkpt lat="46.0769" lon="1.2152">
        <ele>349.1</ele>
        <time>2016-09-07T07:36:06Z</time>
      </trkpt>
      <trkpt lat="46.07693" lon="1.21527">
        <ele>349.1</ele>
        <time>2016-09-07T07:36:16Z</time>
      </trkpt>
      <trkpt lat="46.07699" lon="1.21554">
        <ele>349.1</ele>
        <time>2016-09-07T07:36:22Z</time>
      </trkpt>
      <trkpt lat="46.07701" lon="1.21561">
        <ele>348.62</ele>
        <time>2016-09-07T07:36:23Z</time>
      </trkpt>
      <trkpt lat="46.07704" lon="1.21574">
        <ele>347.65</ele>
        <time>2016-09-07T07:36:25Z</time>
      </trkpt>
      <trkpt lat="46.07708" lon="1.21581">
        <ele>347.17</ele>
        <time>2016-09-07T07:36:26Z</time>
      </trkpt>
      <trkpt lat="46.07738" lon="1.21646">
        <ele>344.29</ele>
        <time>2016-09-07T07:36:33Z</time>
      </trkpt>
      <trkpt lat="46.07773" lon="1.21723">
        <ele>340.92</ele>
        <time>2016-09-07T07:36:41Z</time>
      </trkpt>
      <trkpt lat="46.07833" lon="1.2179">
        <ele>340.44</ele>
        <time>2016-09-07T07:36:51Z</time>
      </trkpt>
      <trkpt lat="46.07916" lon="1.21878">
        <ele>340.44</ele>
        <time>2016-09-07T07:37:06Z</time>
      </trkpt>
      <trkpt lat="46.07936" lon="1.219">
        <ele>340.44</ele>
        <time>2016-09-07T07:37:10Z</time>
      </trkpt>
      <trkpt lat="46.0794" lon="1.21907">
        <ele>339.96</ele>
        <time>2016-09-07T07:37:11Z</time>
      </trkpt>
      <trkpt lat="46.07944" lon="1.21914">
        <ele>339.96</ele>
        <time>2016-09-07T07:37:12Z</time>
      </trkpt>
      <trkpt lat="46.07947" lon="1.21923">
        <ele>339.48</ele>
        <time>2016-09-07T07:37:13Z</time>
      </trkpt>
      <trkpt lat="46.07949" lon="1.21931">
        <ele>339.48</ele>
        <time>2016-09-07T07:37:14Z</time>
      </trkpt>
      <trkpt lat="46.07951" lon="1.21941">
        <ele>339</ele>
        <time>2016-09-07T07:37:15Z</time>
      </trkpt>
      <trkpt lat="46.07952" lon="1.2195">
        <ele>339</ele>
        <time>2016-09-07T07:37:16Z</time>
      </trkpt>
      <trkpt lat="46.07953" lon="1.2196">
        <ele>339</ele>
        <time>2016-09-07T07:37:17Z</time>
      </trkpt>
      <trkpt lat="46.07953" lon="1.22003">
        <ele>337.56</ele>
        <time>2016-09-07T07:37:21Z</time>
      </trkpt>
      <trkpt lat="46.07951" lon="1.22013">
        <ele>336.6</ele>
        <time>2016-09-07T07:37:22Z</time>
      </trkpt>
      <trkpt lat="46.07949" lon="1.22024">
        <ele>336.12</ele>
        <time>2016-09-07T07:37:23Z</time>
      </trkpt>
      <trkpt lat="46.07946" lon="1.22034">
        <ele>336.12</ele>
        <time>2016-09-07T07:37:24Z</time>
      </trkpt>
      <trkpt lat="46.07943" lon="1.22044">
        <ele>335.64</ele>
        <time>2016-09-07T07:37:25Z</time>
      </trkpt>
      <trkpt lat="46.07913" lon="1.22153">
        <ele>334.68</ele>
        <time>2016-09-07T07:37:38Z</time>
      </trkpt>
      <trkpt lat="46.0791" lon="1.22166">
        <ele>336.12</ele>
        <time>2016-09-07T07:37:41Z</time>
      </trkpt>
      <trkpt lat="46.07911" lon="1.22168">
        <ele>336.12</ele>
        <time>2016-09-07T07:37:42Z</time>
      </trkpt>
      <trkpt lat="46.07913" lon="1.22169">
        <ele>336.6</ele>
        <time>2016-09-07T07:37:55Z</time>
      </trkpt>
      <trkpt lat="46.07944" lon="1.22185">
        <ele>335.16</ele>
        <time>2016-09-07T07:38:06Z</time>
      </trkpt>
      <trkpt lat="46.07948" lon="1.22188">
        <ele>335.16</ele>
        <time>2016-09-07T07:38:07Z</time>
      </trkpt>
      <trkpt lat="46.07997" lon="1.22226">
        <ele>331.79</ele>
        <time>2016-09-07T07:38:18Z</time>
      </trkpt>
      <trkpt lat="46.08002" lon="1.2223">
        <ele>331.79</ele>
        <time>2016-09-07T07:38:19Z</time>
      </trkpt>
      <trkpt lat="46.08038" lon="1.2225">
        <ele>330.35</ele>
        <time>2016-09-07T07:38:25Z</time>
      </trkpt>
      <trkpt lat="46.08071" lon="1.22259">
        <ele>329.39</ele>
        <time>2016-09-07T07:38:31Z</time>
      </trkpt>
      <trkpt lat="46.08075" lon="1.22262">
        <ele>329.87</ele>
        <time>2016-09-07T07:38:32Z</time>
      </trkpt>
      <trkpt lat="46.08079" lon="1.22268">
        <ele>329.39</ele>
        <time>2016-09-07T07:38:33Z</time>
      </trkpt>
      <trkpt lat="46.08081" lon="1.22274">
        <ele>329.39</ele>
        <time>2016-09-07T07:38:34Z</time>
      </trkpt>
      <trkpt lat="46.08081" lon="1.22282">
        <ele>328.91</ele>
        <time>2016-09-07T07:38:35Z</time>
      </trkpt>
      <trkpt lat="46.08081" lon="1.22289">
        <ele>328.91</ele>
        <time>2016-09-07T07:38:36Z</time>
      </trkpt>
      <trkpt lat="46.08081" lon="1.22297">
        <ele>328.43</ele>
        <time>2016-09-07T07:38:37Z</time>
      </trkpt>
      <trkpt lat="46.08059" lon="1.22407">
        <ele>325.54</ele>
        <time>2016-09-07T07:38:53Z</time>
      </trkpt>
      <trkpt lat="46.08036" lon="1.22488">
        <ele>324.1</ele>
        <time>2016-09-07T07:39:08Z</time>
      </trkpt>
      <trkpt lat="46.08036" lon="1.22544">
        <ele>324.1</ele>
        <time>2016-09-07T07:39:19Z</time>
      </trkpt>
      <trkpt lat="46.08043" lon="1.22575">
        <ele>325.54</ele>
        <time>2016-09-07T07:39:26Z</time>
      </trkpt>
      <trkpt lat="46.08051" lon="1.22627">
        <ele>327.47</ele>
        <time>2016-09-07T07:39:40Z</time>
      </trkpt>
      <trkpt lat="46.08045" lon="1.22635">
        <ele>328.43</ele>
        <time>2016-09-07T07:39:44Z</time>
      </trkpt>
      <trkpt lat="46.08023" lon="1.22654">
        <ele>331.31</ele>
        <time>2016-09-07T07:39:58Z</time>
      </trkpt>
      <trkpt lat="46.08015" lon="1.22682">
        <ele>334.2</ele>
        <time>2016-09-07T07:40:10Z</time>
      </trkpt>
      <trkpt lat="46.08022" lon="1.2272">
        <ele>335.64</ele>
        <time>2016-09-07T07:40:25Z</time>
      </trkpt>
      <trkpt lat="46.08031" lon="1.22747">
        <ele>338.52</ele>
        <time>2016-09-07T07:40:39Z</time>
      </trkpt>
      <trkpt lat="46.08037" lon="1.22767">
        <ele>340.44</ele>
        <time>2016-09-07T07:40:51Z</time>
      </trkpt>
      <trkpt lat="46.08038" lon="1.22769">
        <ele>340.44</ele>
        <time>2016-09-07T07:40:52Z</time>
      </trkpt>
      <trkpt lat="46.08039" lon="1.22771">
        <ele>340.44</ele>
        <time>2016-09-07T07:40:53Z</time>
      </trkpt>
      <trkpt lat="46.08038" lon="1.22775">
        <ele>341.41</ele>
        <time>2016-09-07T07:40:56Z</time>
      </trkpt>
      <trkpt lat="46.08034" lon="1.22779">
        <ele>341.89</ele>
        <time>2016-09-07T07:41:00Z</time>
      </trkpt>
      <trkpt lat="46.08033" lon="1.22779">
        <ele>342.37</ele>
        <time>2016-09-07T07:41:01Z</time>
      </trkpt>
      <trkpt lat="46.08014" lon="1.22786">
        <ele>344.29</ele>
        <time>2016-09-07T07:41:15Z</time>
      </trkpt>
      <trkpt lat="46.08007" lon="1.22788">
        <ele>345.25</ele>
        <time>2016-09-07T07:41:20Z</time>
      </trkpt>
      <trkpt lat="46.08006" lon="1.22788">
        <ele>345.25</ele>
        <time>2016-09-07T07:41:21Z</time>
      </trkpt>
      <trkpt lat="46.08004" lon="1.22788">
        <ele>345.25</ele>
        <time>2016-09-07T07:41:22Z</time>
      </trkpt>
      <trkpt lat="46.08003" lon="1.22788">
        <ele>345.25</ele>
        <time>2016-09-07T07:41:23Z</time>
      </trkpt>
      <trkpt lat="46.08002" lon="1.22788">
        <ele>345.73</ele>
        <time>2016-09-07T07:41:24Z</time>
      </trkpt>
      <trkpt lat="46.08001" lon="1.22789">
        <ele>345.73</ele>
        <time>2016-09-07T07:41:25Z</time>
      </trkpt>
      <trkpt lat="46.07999" lon="1.22789">
        <ele>345.73</ele>
        <time>2016-09-07T07:41:26Z</time>
      </trkpt>
      <trkpt lat="46.07997" lon="1.2279">
        <ele>345.73</ele>
        <time>2016-09-07T07:41:27Z</time>
      </trkpt>
      <trkpt lat="46.07995" lon="1.2279">
        <ele>346.21</ele>
        <time>2016-09-07T07:41:28Z</time>
      </trkpt>
      <trkpt lat="46.07987" lon="1.22792">
        <ele>346.69</ele>
        <time>2016-09-07T07:41:32Z</time>
      </trkpt>
      <trkpt lat="46.07985" lon="1.22793">
        <ele>346.69</ele>
        <time>2016-09-07T07:41:33Z</time>
      </trkpt>
      <trkpt lat="46.07959" lon="1.22804">
        <ele>349.1</ele>
        <time>2016-09-07T07:41:47Z</time>
      </trkpt>
      <trkpt lat="46.07958" lon="1.22806">
        <ele>349.1</ele>
        <time>2016-09-07T07:41:48Z</time>
      </trkpt>
      <trkpt lat="46.07958" lon="1.22809">
        <ele>349.58</ele>
        <time>2016-09-07T07:41:49Z</time>
      </trkpt>
      <trkpt lat="46.07959" lon="1.22812">
        <ele>349.58</ele>
        <time>2016-09-07T07:41:50Z</time>
      </trkpt>
      <trkpt lat="46.07961" lon="1.22813">
        <ele>349.58</ele>
        <time>2016-09-07T07:41:51Z</time>
      </trkpt>
      <trkpt lat="46.07962" lon="1.22815">
        <ele>349.58</ele>
        <time>2016-09-07T07:41:52Z</time>
      </trkpt>
      <trkpt lat="46.07963" lon="1.22816">
        <ele>349.58</ele>
        <time>2016-09-07T07:41:53Z</time>
      </trkpt>
      <trkpt lat="46.07965" lon="1.22817">
        <ele>349.58</ele>
        <time>2016-09-07T07:41:54Z</time>
      </trkpt>
      <trkpt lat="46.07996" lon="1.22842">
        <ele>348.13</ele>
        <time>2016-09-07T07:42:07Z</time>
      </trkpt>
      <trkpt lat="46.08013" lon="1.22863">
        <ele>347.65</ele>
        <time>2016-09-07T07:42:12Z</time>
      </trkpt>
      <trkpt lat="46.08024" lon="1.22882">
        <ele>346.69</ele>
        <time>2016-09-07T07:42:16Z</time>
      </trkpt>
      <trkpt lat="46.08039" lon="1.22888">
        <ele>345.25</ele>
        <time>2016-09-07T07:42:20Z</time>
      </trkpt>
      <trkpt lat="46.08047" lon="1.2289">
        <ele>343.81</ele>
        <time>2016-09-07T07:42:22Z</time>
      </trkpt>
      <trkpt lat="46.08056" lon="1.22906">
        <ele>342.37</ele>
        <time>2016-09-07T07:42:26Z</time>
      </trkpt>
      <trkpt lat="46.08054" lon="1.22916">
        <ele>341.41</ele>
        <time>2016-09-07T07:42:28Z</time>
      </trkpt>
      <trkpt lat="46.08021" lon="1.22996">
        <ele>339</ele>
        <time>2016-09-07T07:42:41Z</time>
      </trkpt>
      <trkpt lat="46.07992" lon="1.23078">
        <ele>337.56</ele>
        <time>2016-09-07T07:42:56Z</time>
      </trkpt>
      <trkpt lat="46.07966" lon="1.23117">
        <ele>337.56</ele>
        <time>2016-09-07T07:43:06Z</time>
      </trkpt>
      <trkpt lat="46.07964" lon="1.23135">
        <ele>337.56</ele>
        <time>2016-09-07T07:43:10Z</time>
      </trkpt>
      <trkpt lat="46.07953" lon="1.23193">
        <ele>334.2</ele>
        <time>2016-09-07T07:43:22Z</time>
      </trkpt>
      <trkpt lat="46.07924" lon="1.23219">
        <ele>334.2</ele>
        <time>2016-09-07T07:43:33Z</time>
      </trkpt>
      <trkpt lat="46.07919" lon="1.23231">
        <ele>334.2</ele>
        <time>2016-09-07T07:43:36Z</time>
      </trkpt>
      <trkpt lat="46.07906" lon="1.23259">
        <ele>333.71</ele>
        <time>2016-09-07T07:43:42Z</time>
      </trkpt>
      <trkpt lat="46.0788" lon="1.233">
        <ele>333.71</ele>
        <time>2016-09-07T07:43:52Z</time>
      </trkpt>
      <trkpt lat="46.07862" lon="1.23342">
        <ele>333.23</ele>
        <time>2016-09-07T07:44:03Z</time>
      </trkpt>
      <trkpt lat="46.07864" lon="1.23357">
        <ele>333.23</ele>
        <time>2016-09-07T07:44:05Z</time>
      </trkpt>
      <trkpt lat="46.07848" lon="1.23425">
        <ele>333.23</ele>
        <time>2016-09-07T07:44:16Z</time>
      </trkpt>
      <trkpt lat="46.07836" lon="1.23452">
        <ele>334.68</ele>
        <time>2016-09-07T07:44:21Z</time>
      </trkpt>
      <trkpt lat="46.0783" lon="1.23462">
        <ele>334.68</ele>
        <time>2016-09-07T07:44:23Z</time>
      </trkpt>
      <trkpt lat="46.07821" lon="1.23494">
        <ele>334.68</ele>
        <time>2016-09-07T07:44:28Z</time>
      </trkpt>
      <trkpt lat="46.07814" lon="1.23512">
        <ele>334.68</ele>
        <time>2016-09-07T07:44:31Z</time>
      </trkpt>
      <trkpt lat="46.07811" lon="1.2354">
        <ele>334.68</ele>
        <time>2016-09-07T07:44:35Z</time>
      </trkpt>
      <trkpt lat="46.07818" lon="1.23572">
        <ele>334.68</ele>
        <time>2016-09-07T07:44:40Z</time>
      </trkpt>
      <trkpt lat="46.07815" lon="1.23609">
        <ele>334.68</ele>
        <time>2016-09-07T07:44:46Z</time>
      </trkpt>
      <trkpt lat="46.07804" lon="1.23636">
        <ele>333.23</ele>
        <time>2016-09-07T07:44:51Z</time>
      </trkpt>
      <trkpt lat="46.07798" lon="1.23648">
        <ele>331.79</ele>
        <time>2016-09-07T07:44:54Z</time>
      </trkpt>
      <trkpt lat="46.07795" lon="1.2365">
        <ele>331.31</ele>
        <time>2016-09-07T07:44:55Z</time>
      </trkpt>
      <trkpt lat="46.07792" lon="1.23651">
        <ele>330.83</ele>
        <time>2016-09-07T07:44:56Z</time>
      </trkpt>
      <trkpt lat="46.07788" lon="1.23653">
        <ele>330.35</ele>
        <time>2016-09-07T07:44:57Z</time>
      </trkpt>
      <trkpt lat="46.07785" lon="1.23655">
        <ele>330.35</ele>
        <time>2016-09-07T07:44:58Z</time>
      </trkpt>
      <trkpt lat="46.07783" lon="1.23659">
        <ele>330.35</ele>
        <time>2016-09-07T07:44:59Z</time>
      </trkpt>
      <trkpt lat="46.07782" lon="1.23662">
        <ele>330.35</ele>
        <time>2016-09-07T07:45:00Z</time>
      </trkpt>
      <trkpt lat="46.07781" lon="1.23665">
        <ele>330.35</ele>
        <time>2016-09-07T07:45:01Z</time>
      </trkpt>
      <trkpt lat="46.0778" lon="1.23672">
        <ele>330.35</ele>
        <time>2016-09-07T07:45:03Z</time>
      </trkpt>
      <trkpt lat="46.07779" lon="1.23676">
        <ele>330.35</ele>
        <time>2016-09-07T07:45:04Z</time>
      </trkpt>
      <trkpt lat="46.07778" lon="1.23681">
        <ele>330.35</ele>
        <time>2016-09-07T07:45:05Z</time>
      </trkpt>
      <trkpt lat="46.07763" lon="1.2375">
        <ele>330.35</ele>
        <time>2016-09-07T07:45:18Z</time>
      </trkpt>
      <trkpt lat="46.0776" lon="1.23755">
        <ele>331.31</ele>
        <time>2016-09-07T07:45:20Z</time>
      </trkpt>
      <trkpt lat="46.07731" lon="1.2378">
        <ele>334.2</ele>
        <time>2016-09-07T07:45:32Z</time>
      </trkpt>
      <trkpt lat="46.07694" lon="1.23803">
        <ele>336.12</ele>
        <time>2016-09-07T07:45:47Z</time>
      </trkpt>
      <trkpt lat="46.07662" lon="1.23823">
        <ele>337.56</ele>
        <time>2016-09-07T07:46:00Z</time>
      </trkpt>
      <trkpt lat="46.07615" lon="1.23854">
        <ele>339</ele>
        <time>2016-09-07T07:46:18Z</time>
      </trkpt>
      <trkpt lat="46.07593" lon="1.23868">
        <ele>337.56</ele>
        <time>2016-09-07T07:46:26Z</time>
      </trkpt>
      <trkpt lat="46.07557" lon="1.23864">
        <ele>337.08</ele>
        <time>2016-09-07T07:46:36Z</time>
      </trkpt>
      <trkpt lat="46.07507" lon="1.23851">
        <ele>336.6</ele>
        <time>2016-09-07T07:46:51Z</time>
      </trkpt>
      <trkpt lat="46.07505" lon="1.23848">
        <ele>336.6</ele>
        <time>2016-09-07T07:46:52Z</time>
      </trkpt>
      <trkpt lat="46.07504" lon="1.23845">
        <ele>336.6</ele>
        <time>2016-09-07T07:46:53Z</time>
      </trkpt>
      <trkpt lat="46.07502" lon="1.23842">
        <ele>336.6</ele>
        <time>2016-09-07T07:46:54Z</time>
      </trkpt>
      <trkpt lat="46.07501" lon="1.23838">
        <ele>336.6</ele>
        <time>2016-09-07T07:46:55Z</time>
      </trkpt>
      <trkpt lat="46.075" lon="1.23834">
        <ele>336.6</ele>
        <time>2016-09-07T07:46:56Z</time>
      </trkpt>
      <trkpt lat="46.07488" lon="1.23821">
        <ele>336.6</ele>
        <time>2016-09-07T07:47:01Z</time>
      </trkpt>
      <trkpt lat="46.07485" lon="1.23822">
        <ele>336.6</ele>
        <time>2016-09-07T07:47:02Z</time>
      </trkpt>
      <trkpt lat="46.07482" lon="1.23826">
        <ele>336.6</ele>
        <time>2016-09-07T07:47:03Z</time>
      </trkpt>
      <trkpt lat="46.07474" lon="1.23838">
        <ele>336.6</ele>
        <time>2016-09-07T07:47:06Z</time>
      </trkpt>
      <trkpt lat="46.07471" lon="1.23843">
        <ele>336.12</ele>
        <time>2016-09-07T07:47:07Z</time>
      </trkpt>
      <trkpt lat="46.07468" lon="1.23848">
        <ele>336.12</ele>
        <time>2016-09-07T07:47:08Z</time>
      </trkpt>
      <trkpt lat="46.07465" lon="1.23853">
        <ele>336.12</ele>
        <time>2016-09-07T07:47:09Z</time>
      </trkpt>
      <trkpt lat="46.07462" lon="1.23858">
        <ele>336.12</ele>
        <time>2016-09-07T07:47:10Z</time>
      </trkpt>
      <trkpt lat="46.07421" lon="1.23919">
        <ele>335.64</ele>
        <time>2016-09-07T07:47:24Z</time>
      </trkpt>
      <trkpt lat="46.07418" lon="1.23923">
        <ele>335.64</ele>
        <time>2016-09-07T07:47:25Z</time>
      </trkpt>
      <trkpt lat="46.07403" lon="1.23943">
        <ele>335.64</ele>
        <time>2016-09-07T07:47:30Z</time>
      </trkpt>
      <trkpt lat="46.07397" lon="1.23952">
        <ele>335.64</ele>
        <time>2016-09-07T07:47:32Z</time>
      </trkpt>
      <trkpt lat="46.07371" lon="1.23995">
        <ele>337.56</ele>
        <time>2016-09-07T07:47:41Z</time>
      </trkpt>
      <trkpt lat="46.0734" lon="1.24036">
        <ele>340.92</ele>
        <time>2016-09-07T07:47:54Z</time>
      </trkpt>
      <trkpt lat="46.07316" lon="1.24035">
        <ele>341.89</ele>
        <time>2016-09-07T07:48:05Z</time>
      </trkpt>
      <trkpt lat="46.07314" lon="1.24036">
        <ele>341.89</ele>
        <time>2016-09-07T07:48:06Z</time>
      </trkpt>
      <trkpt lat="46.07312" lon="1.24039">
        <ele>341.89</ele>
        <time>2016-09-07T07:48:07Z</time>
      </trkpt>
      <trkpt lat="46.07311" lon="1.24044">
        <ele>341.89</ele>
        <time>2016-09-07T07:48:08Z</time>
      </trkpt>
      <trkpt lat="46.07311" lon="1.24049">
        <ele>341.89</ele>
        <time>2016-09-07T07:48:09Z</time>
      </trkpt>
      <trkpt lat="46.07312" lon="1.24056">
        <ele>340.44</ele>
        <time>2016-09-07T07:48:10Z</time>
      </trkpt>
      <trkpt lat="46.07313" lon="1.24063">
        <ele>340.44</ele>
        <time>2016-09-07T07:48:11Z</time>
      </trkpt>
      <trkpt lat="46.07316" lon="1.24099">
        <ele>338.52</ele>
        <time>2016-09-07T07:48:15Z</time>
      </trkpt>
      <trkpt lat="46.07315" lon="1.2411">
        <ele>337.56</ele>
        <time>2016-09-07T07:48:16Z</time>
      </trkpt>
      <trkpt lat="46.07313" lon="1.24122">
        <ele>337.08</ele>
        <time>2016-09-07T07:48:17Z</time>
      </trkpt>
      <trkpt lat="46.0731" lon="1.24133">
        <ele>336.12</ele>
        <time>2016-09-07T07:48:18Z</time>
      </trkpt>
      <trkpt lat="46.07306" lon="1.24144">
        <ele>335.64</ele>
        <time>2016-09-07T07:48:19Z</time>
      </trkpt>
      <trkpt lat="46.07261" lon="1.24244">
        <ele>335.16</ele>
        <time>2016-09-07T07:48:31Z</time>
      </trkpt>
      <trkpt lat="46.07255" lon="1.24251">
        <ele>336.6</ele>
        <time>2016-09-07T07:48:33Z</time>
      </trkpt>
      <trkpt lat="46.07223" lon="1.24276">
        <ele>339</ele>
        <time>2016-09-07T07:48:45Z</time>
      </trkpt>
      <trkpt lat="46.07205" lon="1.2431">
        <ele>341.41</ele>
        <time>2016-09-07T07:48:56Z</time>
      </trkpt>
      <trkpt lat="46.07203" lon="1.24312">
        <ele>341.41</ele>
        <time>2016-09-07T07:48:57Z</time>
      </trkpt>
      <trkpt lat="46.07201" lon="1.24314">
        <ele>341.41</ele>
        <time>2016-09-07T07:48:58Z</time>
      </trkpt>
      <trkpt lat="46.07199" lon="1.24315">
        <ele>341.41</ele>
        <time>2016-09-07T07:48:59Z</time>
      </trkpt>
      <trkpt lat="46.07197" lon="1.24317">
        <ele>341.89</ele>
        <time>2016-09-07T07:49:00Z</time>
      </trkpt>
      <trkpt lat="46.07195" lon="1.24319">
        <ele>341.89</ele>
        <time>2016-09-07T07:49:01Z</time>
      </trkpt>
      <trkpt lat="46.07194" lon="1.24322">
        <ele>341.89</ele>
        <time>2016-09-07T07:49:02Z</time>
      </trkpt>
      <trkpt lat="46.07193" lon="1.24326">
        <ele>342.37</ele>
        <time>2016-09-07T07:49:03Z</time>
      </trkpt>
      <trkpt lat="46.07193" lon="1.2433">
        <ele>342.37</ele>
        <time>2016-09-07T07:49:04Z</time>
      </trkpt>
      <trkpt lat="46.07192" lon="1.24333">
        <ele>342.37</ele>
        <time>2016-09-07T07:49:05Z</time>
      </trkpt>
      <trkpt lat="46.0719" lon="1.24336">
        <ele>342.37</ele>
        <time>2016-09-07T07:49:06Z</time>
      </trkpt>
      <trkpt lat="46.07188" lon="1.24337">
        <ele>342.37</ele>
        <time>2016-09-07T07:49:07Z</time>
      </trkpt>
      <trkpt lat="46.07185" lon="1.24338">
        <ele>342.37</ele>
        <time>2016-09-07T07:49:08Z</time>
      </trkpt>
      <trkpt lat="46.07182" lon="1.24338">
        <ele>342.85</ele>
        <time>2016-09-07T07:49:09Z</time>
      </trkpt>
      <trkpt lat="46.07179" lon="1.24337">
        <ele>342.85</ele>
        <time>2016-09-07T07:49:10Z</time>
      </trkpt>
      <trkpt lat="46.07176" lon="1.24337">
        <ele>342.85</ele>
        <time>2016-09-07T07:49:11Z</time>
      </trkpt>
      <trkpt lat="46.07173" lon="1.24337">
        <ele>342.85</ele>
        <time>2016-09-07T07:49:12Z</time>
      </trkpt>
      <trkpt lat="46.0717" lon="1.24336">
        <ele>342.37</ele>
        <time>2016-09-07T07:49:13Z</time>
      </trkpt>
      <trkpt lat="46.07167" lon="1.24336">
        <ele>342.37</ele>
        <time>2016-09-07T07:49:14Z</time>
      </trkpt>
      <trkpt lat="46.07164" lon="1.24336">
        <ele>342.37</ele>
        <time>2016-09-07T07:49:15Z</time>
      </trkpt>
      <trkpt lat="46.07118" lon="1.24346">
        <ele>342.37</ele>
        <time>2016-09-07T07:49:28Z</time>
      </trkpt>
      <trkpt lat="46.07086" lon="1.24376">
        <ele>342.37</ele>
        <time>2016-09-07T07:49:39Z</time>
      </trkpt>
      <trkpt lat="46.07064" lon="1.24456">
        <ele>342.37</ele>
        <time>2016-09-07T07:49:55Z</time>
      </trkpt>
      <trkpt lat="46.07051" lon="1.24513">
        <ele>343.33</ele>
        <time>2016-09-07T07:50:07Z</time>
      </trkpt>
      <trkpt lat="46.07077" lon="1.24557">
        <ele>343.81</ele>
        <time>2016-09-07T07:50:20Z</time>
      </trkpt>
      <trkpt lat="46.07092" lon="1.24573">
        <ele>342.37</ele>
        <time>2016-09-07T07:50:26Z</time>
      </trkpt>
      <trkpt lat="46.07096" lon="1.24628">
        <ele>343.81</ele>
        <time>2016-09-07T07:50:38Z</time>
      </trkpt>
      <trkpt lat="46.07097" lon="1.24633">
        <ele>343.81</ele>
        <time>2016-09-07T07:50:39Z</time>
      </trkpt>
      <trkpt lat="46.07108" lon="1.24691">
        <ele>345.25</ele>
        <time>2016-09-07T07:50:53Z</time>
      </trkpt>
      <trkpt lat="46.07122" lon="1.24731">
        <ele>345.25</ele>
        <time>2016-09-07T07:51:03Z</time>
      </trkpt>
      <trkpt lat="46.07126" lon="1.24741">
        <ele>343.81</ele>
        <time>2016-09-07T07:51:05Z</time>
      </trkpt>
      <trkpt lat="46.07127" lon="1.24747">
        <ele>343.81</ele>
        <time>2016-09-07T07:51:06Z</time>
      </trkpt>
      <trkpt lat="46.07129" lon="1.24753">
        <ele>343.81</ele>
        <time>2016-09-07T07:51:07Z</time>
      </trkpt>
      <trkpt lat="46.07157" lon="1.24815">
        <ele>341.41</ele>
        <time>2016-09-07T07:51:20Z</time>
      </trkpt>
      <trkpt lat="46.0716" lon="1.24821">
        <ele>341.41</ele>
        <time>2016-09-07T07:51:21Z</time>
      </trkpt>
      <trkpt lat="46.07162" lon="1.24826">
        <ele>340.92</ele>
        <time>2016-09-07T07:51:22Z</time>
      </trkpt>
      <trkpt lat="46.07164" lon="1.24832">
        <ele>340.92</ele>
        <time>2016-09-07T07:51:23Z</time>
      </trkpt>
      <trkpt lat="46.07175" lon="1.24921">
        <ele>342.85</ele>
        <time>2016-09-07T07:51:38Z</time>
      </trkpt>
      <trkpt lat="46.07175" lon="1.24927">
        <ele>343.33</ele>
        <time>2016-09-07T07:51:48Z</time>
      </trkpt>
      <trkpt lat="46.07176" lon="1.24937">
        <ele>344.29</ele>
        <time>2016-09-07T07:52:04Z</time>
      </trkpt>
      <trkpt lat="46.07168" lon="1.24957">
        <ele>345.73</ele>
        <time>2016-09-07T07:52:16Z</time>
      </trkpt>
      <trkpt lat="46.07147" lon="1.24992">
        <ele>344.77</ele>
        <time>2016-09-07T07:52:27Z</time>
      </trkpt>
      <trkpt lat="46.07143" lon="1.24998">
        <ele>343.81</ele>
        <time>2016-09-07T07:52:29Z</time>
      </trkpt>
      <trkpt lat="46.0713" lon="1.25016">
        <ele>342.85</ele>
        <time>2016-09-07T07:52:34Z</time>
      </trkpt>
      <trkpt lat="46.07121" lon="1.25033">
        <ele>341.41</ele>
        <time>2016-09-07T07:52:37Z</time>
      </trkpt>
      <trkpt lat="46.07102" lon="1.25093">
        <ele>339.48</ele>
        <time>2016-09-07T07:52:47Z</time>
      </trkpt>
      <trkpt lat="46.071" lon="1.25099">
        <ele>339.48</ele>
        <time>2016-09-07T07:52:48Z</time>
      </trkpt>
      <trkpt lat="46.07073" lon="1.25137">
        <ele>338.04</ele>
        <time>2016-09-07T07:52:57Z</time>
      </trkpt>
      <trkpt lat="46.0706" lon="1.25147">
        <ele>338.04</ele>
        <time>2016-09-07T07:53:00Z</time>
      </trkpt>
      <trkpt lat="46.07046" lon="1.25155">
        <ele>338.52</ele>
        <time>2016-09-07T07:53:03Z</time>
      </trkpt>
      <trkpt lat="46.07042" lon="1.25156">
        <ele>338.52</ele>
        <time>2016-09-07T07:53:04Z</time>
      </trkpt>
      <trkpt lat="46.07039" lon="1.25156">
        <ele>338.52</ele>
        <time>2016-09-07T07:53:05Z</time>
      </trkpt>
      <trkpt lat="46.07037" lon="1.25156">
        <ele>338.52</ele>
        <time>2016-09-07T07:53:06Z</time>
      </trkpt>
      <trkpt lat="46.0702" lon="1.25149">
        <ele>338.52</ele>
        <time>2016-09-07T07:53:17Z</time>
      </trkpt>
      <trkpt lat="46.06992" lon="1.25132">
        <ele>338.52</ele>
        <time>2016-09-07T07:53:28Z</time>
      </trkpt>
      <trkpt lat="46.06952" lon="1.25119">
        <ele>338.52</ele>
        <time>2016-09-07T07:53:39Z</time>
      </trkpt>
      <trkpt lat="46.06917" lon="1.25119">
        <ele>338.52</ele>
        <time>2016-09-07T07:53:48Z</time>
      </trkpt>
      <trkpt lat="46.06881" lon="1.25133">
        <ele>338.52</ele>
        <time>2016-09-07T07:53:57Z</time>
      </trkpt>
      <trkpt lat="46.0684" lon="1.2518">
        <ele>340.44</ele>
        <time>2016-09-07T07:54:09Z</time>
      </trkpt>
      <trkpt lat="46.06817" lon="1.25228">
        <ele>342.37</ele>
        <time>2016-09-07T07:54:22Z</time>
      </trkpt>
      <trkpt lat="46.06816" lon="1.25257">
        <ele>340.44</ele>
        <time>2016-09-07T07:54:27Z</time>
      </trkpt>
      <trkpt lat="46.06815" lon="1.25263">
        <ele>340.44</ele>
        <time>2016-09-07T07:54:28Z</time>
      </trkpt>
      <trkpt lat="46.06813" lon="1.25268">
        <ele>340.44</ele>
        <time>2016-09-07T07:54:29Z</time>
      </trkpt>
      <trkpt lat="46.06807" lon="1.25291">
        <ele>341.89</ele>
        <time>2016-09-07T07:54:34Z</time>
      </trkpt>
      <trkpt lat="46.06796" lon="1.25348">
        <ele>345.25</ele>
        <time>2016-09-07T07:54:49Z</time>
      </trkpt>
      <trkpt lat="46.06794" lon="1.25397">
        <ele>346.69</ele>
        <time>2016-09-07T07:55:02Z</time>
      </trkpt>
      <trkpt lat="46.06775" lon="1.25456">
        <ele>347.17</ele>
        <time>2016-09-07T07:55:18Z</time>
      </trkpt>
      <trkpt lat="46.06738" lon="1.25452">
        <ele>347.17</ele>
        <time>2016-09-07T07:55:29Z</time>
      </trkpt>
      <trkpt lat="46.06734" lon="1.2545">
        <ele>347.17</ele>
        <time>2016-09-07T07:55:30Z</time>
      </trkpt>
      <trkpt lat="46.0673" lon="1.25447">
        <ele>347.17</ele>
        <time>2016-09-07T07:55:31Z</time>
      </trkpt>
      <trkpt lat="46.06727" lon="1.25443">
        <ele>345.73</ele>
        <time>2016-09-07T07:55:32Z</time>
      </trkpt>
      <trkpt lat="46.06723" lon="1.2544">
        <ele>345.73</ele>
        <time>2016-09-07T07:55:33Z</time>
      </trkpt>
      <trkpt lat="46.06682" lon="1.25413">
        <ele>348.13</ele>
        <time>2016-09-07T07:55:46Z</time>
      </trkpt>
      <trkpt lat="46.06655" lon="1.25359">
        <ele>349.58</ele>
        <time>2016-09-07T07:55:59Z</time>
      </trkpt>
      <trkpt lat="46.06639" lon="1.25305">
        <ele>350.06</ele>
        <time>2016-09-07T07:56:11Z</time>
      </trkpt>
      <trkpt lat="46.06597" lon="1.25262">
        <ele>350.06</ele>
        <time>2016-09-07T07:56:23Z</time>
      </trkpt>
      <trkpt lat="46.06563" lon="1.25228">
        <ele>350.54</ele>
        <time>2016-09-07T07:56:33Z</time>
      </trkpt>
      <trkpt lat="46.0656" lon="1.25224">
        <ele>351.02</ele>
        <time>2016-09-07T07:56:34Z</time>
      </trkpt>
      <trkpt lat="46.06533" lon="1.25183">
        <ele>351.5</ele>
        <time>2016-09-07T07:56:43Z</time>
      </trkpt>
      <trkpt lat="46.0653" lon="1.25177">
        <ele>351.5</ele>
        <time>2016-09-07T07:56:44Z</time>
      </trkpt>
      <trkpt lat="46.06527" lon="1.25172">
        <ele>351.5</ele>
        <time>2016-09-07T07:56:45Z</time>
      </trkpt>
      <trkpt lat="46.0652" lon="1.25149">
        <ele>351.5</ele>
        <time>2016-09-07T07:56:49Z</time>
      </trkpt>
      <trkpt lat="46.06518" lon="1.25142">
        <ele>351.98</ele>
        <time>2016-09-07T07:56:50Z</time>
      </trkpt>
      <trkpt lat="46.06524" lon="1.25072">
        <ele>352.94</ele>
        <time>2016-09-07T07:57:03Z</time>
      </trkpt>
      <trkpt lat="46.06536" lon="1.25026">
        <ele>353.9</ele>
        <time>2016-09-07T07:57:13Z</time>
      </trkpt>
      <trkpt lat="46.06535" lon="1.25023">
        <ele>353.9</ele>
        <time>2016-09-07T07:57:14Z</time>
      </trkpt>
      <trkpt lat="46.06507" lon="1.25012">
        <ele>353.9</ele>
        <time>2016-09-07T07:57:23Z</time>
      </trkpt>
      <trkpt lat="46.06465" lon="1.25015">
        <ele>352.94</ele>
        <time>2016-09-07T07:57:34Z</time>
      </trkpt>
      <trkpt lat="46.064" lon="1.25017">
        <ele>352.46</ele>
        <time>2016-09-07T07:57:50Z</time>
      </trkpt>
      <trkpt lat="46.06365" lon="1.24999">
        <ele>354.86</ele>
        <time>2016-09-07T07:58:01Z</time>
      </trkpt>
      <trkpt lat="46.0632" lon="1.24958">
        <ele>355.83</ele>
        <time>2016-09-07T07:58:16Z</time>
      </trkpt>
      <trkpt lat="46.06284" lon="1.24908">
        <ele>355.34</ele>
        <time>2016-09-07T07:58:29Z</time>
      </trkpt>
      <trkpt lat="46.06267" lon="1.24872">
        <ele>355.83</ele>
        <time>2016-09-07T07:58:36Z</time>
      </trkpt>
      <trkpt lat="46.06233" lon="1.24834">
        <ele>355.83</ele>
        <time>2016-09-07T07:58:47Z</time>
      </trkpt>
      <trkpt lat="46.06218" lon="1.24828">
        <ele>355.83</ele>
        <time>2016-09-07T07:58:52Z</time>
      </trkpt>
      <trkpt lat="46.06215" lon="1.24831">
        <ele>355.83</ele>
        <time>2016-09-07T07:58:53Z</time>
      </trkpt>
      <trkpt lat="46.06213" lon="1.24836">
        <ele>355.83</ele>
        <time>2016-09-07T07:58:54Z</time>
      </trkpt>
      <trkpt lat="46.06213" lon="1.24842">
        <ele>354.38</ele>
        <time>2016-09-07T07:58:55Z</time>
      </trkpt>
      <trkpt lat="46.06212" lon="1.24849">
        <ele>354.38</ele>
        <time>2016-09-07T07:58:56Z</time>
      </trkpt>
      <trkpt lat="46.06213" lon="1.24856">
        <ele>353.9</ele>
        <time>2016-09-07T07:58:57Z</time>
      </trkpt>
      <trkpt lat="46.06212" lon="1.24895">
        <ele>352.94</ele>
        <time>2016-09-07T07:59:02Z</time>
      </trkpt>
      <trkpt lat="46.0621" lon="1.24903">
        <ele>352.94</ele>
        <time>2016-09-07T07:59:03Z</time>
      </trkpt>
      <trkpt lat="46.06207" lon="1.2491">
        <ele>352.94</ele>
        <time>2016-09-07T07:59:04Z</time>
      </trkpt>
      <trkpt lat="46.06202" lon="1.24916">
        <ele>352.94</ele>
        <time>2016-09-07T07:59:05Z</time>
      </trkpt>
      <trkpt lat="46.06198" lon="1.2492">
        <ele>352.94</ele>
        <time>2016-09-07T07:59:06Z</time>
      </trkpt>
      <trkpt lat="46.06194" lon="1.24923">
        <ele>352.94</ele>
        <time>2016-09-07T07:59:07Z</time>
      </trkpt>
      <trkpt lat="46.0614" lon="1.24966">
        <ele>355.83</ele>
        <time>2016-09-07T07:59:22Z</time>
      </trkpt>
      <trkpt lat="46.06072" lon="1.25016">
        <ele>358.23</ele>
        <time>2016-09-07T07:59:40Z</time>
      </trkpt>
      <trkpt lat="46.06025" lon="1.25061">
        <ele>359.67</ele>
        <time>2016-09-07T07:59:54Z</time>
      </trkpt>
      <trkpt lat="46.06022" lon="1.25063">
        <ele>360.15</ele>
        <time>2016-09-07T07:59:55Z</time>
      </trkpt>
      <trkpt lat="46.06003" lon="1.25074">
        <ele>360.15</ele>
        <time>2016-09-07T08:00:00Z</time>
      </trkpt>
      <trkpt lat="46.05999" lon="1.25075">
        <ele>360.15</ele>
        <time>2016-09-07T08:00:01Z</time>
      </trkpt>
      <trkpt lat="46.05995" lon="1.25075">
        <ele>360.63</ele>
        <time>2016-09-07T08:00:02Z</time>
      </trkpt>
      <trkpt lat="46.0599" lon="1.25075">
        <ele>360.63</ele>
        <time>2016-09-07T08:00:03Z</time>
      </trkpt>
      <trkpt lat="46.05986" lon="1.25074">
        <ele>360.63</ele>
        <time>2016-09-07T08:00:04Z</time>
      </trkpt>
      <trkpt lat="46.05981" lon="1.25073">
        <ele>360.63</ele>
        <time>2016-09-07T08:00:05Z</time>
      </trkpt>
      <trkpt lat="46.05914" lon="1.25049">
        <ele>360.63</ele>
        <time>2016-09-07T08:00:19Z</time>
      </trkpt>
      <trkpt lat="46.0591" lon="1.25045">
        <ele>360.63</ele>
        <time>2016-09-07T08:00:20Z</time>
      </trkpt>
      <trkpt lat="46.05862" lon="1.24983">
        <ele>360.63</ele>
        <time>2016-09-07T08:00:33Z</time>
      </trkpt>
      <trkpt lat="46.05858" lon="1.24979">
        <ele>360.63</ele>
        <time>2016-09-07T08:00:34Z</time>
      </trkpt>
      <trkpt lat="46.05855" lon="1.24975">
        <ele>360.63</ele>
        <time>2016-09-07T08:00:35Z</time>
      </trkpt>
      <trkpt lat="46.0582" lon="1.2495">
        <ele>363.52</ele>
        <time>2016-09-07T08:00:47Z</time>
      </trkpt>
      <trkpt lat="46.05785" lon="1.24933">
        <ele>366.4</ele>
        <time>2016-09-07T08:01:00Z</time>
      </trkpt>
      <trkpt lat="46.05755" lon="1.24916">
        <ele>368.8</ele>
        <time>2016-09-07T08:01:12Z</time>
      </trkpt>
      <trkpt lat="46.05722" lon="1.24926">
        <ele>370.24</ele>
        <time>2016-09-07T08:01:24Z</time>
      </trkpt>
      <trkpt lat="46.0568" lon="1.24974">
        <ele>371.69</ele>
        <time>2016-09-07T08:01:41Z</time>
      </trkpt>
      <trkpt lat="46.05635" lon="1.24991">
        <ele>372.65</ele>
        <time>2016-09-07T08:01:55Z</time>
      </trkpt>
      <trkpt lat="46.0558" lon="1.24993">
        <ele>373.61</ele>
        <time>2016-09-07T08:02:10Z</time>
      </trkpt>
      <trkpt lat="46.05528" lon="1.25012">
        <ele>376.49</ele>
        <time>2016-09-07T08:02:26Z</time>
      </trkpt>
      <trkpt lat="46.05494" lon="1.25033">
        <ele>379.38</ele>
        <time>2016-09-07T08:02:41Z</time>
      </trkpt>
      <trkpt lat="46.05476" lon="1.25092">
        <ele>378.9</ele>
        <time>2016-09-07T08:02:54Z</time>
      </trkpt>
      <trkpt lat="46.05466" lon="1.25125">
        <ele>377.45</ele>
        <time>2016-09-07T08:02:59Z</time>
      </trkpt>
      <trkpt lat="46.05438" lon="1.25233">
        <ele>375.53</ele>
        <time>2016-09-07T08:03:15Z</time>
      </trkpt>
      <trkpt lat="46.05413" lon="1.25317">
        <ele>375.05</ele>
        <time>2016-09-07T08:03:30Z</time>
      </trkpt>
      <trkpt lat="46.0541" lon="1.2532">
        <ele>375.05</ele>
        <time>2016-09-07T08:03:31Z</time>
      </trkpt>
      <trkpt lat="46.05408" lon="1.25322">
        <ele>375.05</ele>
        <time>2016-09-07T08:03:32Z</time>
      </trkpt>
      <trkpt lat="46.05406" lon="1.25322">
        <ele>375.05</ele>
        <time>2016-09-07T08:03:33Z</time>
      </trkpt>
      <trkpt lat="46.05403" lon="1.25322">
        <ele>375.05</ele>
        <time>2016-09-07T08:03:34Z</time>
      </trkpt>
      <trkpt lat="46.05401" lon="1.2532">
        <ele>375.05</ele>
        <time>2016-09-07T08:03:35Z</time>
      </trkpt>
      <trkpt lat="46.05398" lon="1.25318">
        <ele>375.05</ele>
        <time>2016-09-07T08:03:36Z</time>
      </trkpt>
      <trkpt lat="46.05352" lon="1.25281">
        <ele>375.05</ele>
        <time>2016-09-07T08:03:50Z</time>
      </trkpt>
      <trkpt lat="46.05326" lon="1.25266">
        <ele>375.05</ele>
        <time>2016-09-07T08:03:57Z</time>
      </trkpt>
      <trkpt lat="46.05313" lon="1.25262">
        <ele>375.05</ele>
        <time>2016-09-07T08:04:00Z</time>
      </trkpt>
      <trkpt lat="46.05309" lon="1.25261">
        <ele>375.05</ele>
        <time>2016-09-07T08:04:01Z</time>
      </trkpt>
      <trkpt lat="46.05305" lon="1.25262">
        <ele>375.05</ele>
        <time>2016-09-07T08:04:02Z</time>
      </trkpt>
      <trkpt lat="46.0528" lon="1.25268">
        <ele>374.57</ele>
        <time>2016-09-07T08:04:08Z</time>
      </trkpt>
      <trkpt lat="46.05272" lon="1.25272">
        <ele>374.57</ele>
        <time>2016-09-07T08:04:10Z</time>
      </trkpt>
      <trkpt lat="46.05268" lon="1.25275">
        <ele>374.57</ele>
        <time>2016-09-07T08:04:11Z</time>
      </trkpt>
      <trkpt lat="46.05264" lon="1.25278">
        <ele>374.57</ele>
        <time>2016-09-07T08:04:12Z</time>
      </trkpt>
      <trkpt lat="46.05252" lon="1.25289">
        <ele>375.05</ele>
        <time>2016-09-07T08:04:15Z</time>
      </trkpt>
      <trkpt lat="46.05249" lon="1.25293">
        <ele>375.05</ele>
        <time>2016-09-07T08:04:16Z</time>
      </trkpt>
      <trkpt lat="46.05234" lon="1.25307">
        <ele>375.05</ele>
        <time>2016-09-07T08:04:20Z</time>
      </trkpt>
      <trkpt lat="46.05228" lon="1.25315">
        <ele>375.05</ele>
        <time>2016-09-07T08:04:22Z</time>
      </trkpt>
      <trkpt lat="46.05223" lon="1.25318">
        <ele>375.05</ele>
        <time>2016-09-07T08:04:23Z</time>
      </trkpt>
      <trkpt lat="46.05218" lon="1.25319">
        <ele>375.05</ele>
        <time>2016-09-07T08:04:24Z</time>
      </trkpt>
      <trkpt lat="46.05214" lon="1.25319">
        <ele>375.05</ele>
        <time>2016-09-07T08:04:25Z</time>
      </trkpt>
      <trkpt lat="46.0521" lon="1.25317">
        <ele>375.05</ele>
        <time>2016-09-07T08:04:26Z</time>
      </trkpt>
      <trkpt lat="46.05206" lon="1.25315">
        <ele>375.05</ele>
        <time>2016-09-07T08:04:27Z</time>
      </trkpt>
      <trkpt lat="46.05201" lon="1.25313">
        <ele>375.05</ele>
        <time>2016-09-07T08:04:28Z</time>
      </trkpt>
      <trkpt lat="46.05197" lon="1.25312">
        <ele>375.05</ele>
        <time>2016-09-07T08:04:29Z</time>
      </trkpt>
      <trkpt lat="46.05192" lon="1.2531">
        <ele>375.05</ele>
        <time>2016-09-07T08:04:30Z</time>
      </trkpt>
      <trkpt lat="46.05153" lon="1.25292">
        <ele>375.05</ele>
        <time>2016-09-07T08:04:40Z</time>
      </trkpt>
      <trkpt lat="46.0515" lon="1.25293">
        <ele>375.05</ele>
        <time>2016-09-07T08:04:41Z</time>
      </trkpt>
      <trkpt lat="46.05148" lon="1.25294">
        <ele>376.01</ele>
        <time>2016-09-07T08:04:42Z</time>
      </trkpt>
      <trkpt lat="46.05146" lon="1.25295">
        <ele>376.01</ele>
        <time>2016-09-07T08:04:43Z</time>
      </trkpt>
      <trkpt lat="46.05144" lon="1.25297">
        <ele>376.01</ele>
        <time>2016-09-07T08:04:44Z</time>
      </trkpt>
      <trkpt lat="46.05142" lon="1.25298">
        <ele>376.49</ele>
        <time>2016-09-07T08:04:45Z</time>
      </trkpt>
      <trkpt lat="46.0514" lon="1.25299">
        <ele>376.49</ele>
        <time>2016-09-07T08:04:46Z</time>
      </trkpt>
      <trkpt lat="46.05138" lon="1.253">
        <ele>377.45</ele>
        <time>2016-09-07T08:04:47Z</time>
      </trkpt>
      <trkpt lat="46.05137" lon="1.25302">
        <ele>377.45</ele>
        <time>2016-09-07T08:04:48Z</time>
      </trkpt>
      <trkpt lat="46.05135" lon="1.25304">
        <ele>377.94</ele>
        <time>2016-09-07T08:04:49Z</time>
      </trkpt>
      <trkpt lat="46.0512" lon="1.25341">
        <ele>378.42</ele>
        <time>2016-09-07T08:05:03Z</time>
      </trkpt>
      <trkpt lat="46.05107" lon="1.25375">
        <ele>378.42</ele>
        <time>2016-09-07T08:05:13Z</time>
      </trkpt>
      <trkpt lat="46.05105" lon="1.25381">
        <ele>378.42</ele>
        <time>2016-09-07T08:05:15Z</time>
      </trkpt>
      <trkpt lat="46.05104" lon="1.25384">
        <ele>377.45</ele>
        <time>2016-09-07T08:05:16Z</time>
      </trkpt>
      <trkpt lat="46.05104" lon="1.25387">
        <ele>377.45</ele>
        <time>2016-09-07T08:05:17Z</time>
      </trkpt>
      <trkpt lat="46.05102" lon="1.25391">
        <ele>377.45</ele>
        <time>2016-09-07T08:05:18Z</time>
      </trkpt>
      <trkpt lat="46.05101" lon="1.25395">
        <ele>377.45</ele>
        <time>2016-09-07T08:05:19Z</time>
      </trkpt>
      <trkpt lat="46.05099" lon="1.25399">
        <ele>377.45</ele>
        <time>2016-09-07T08:05:20Z</time>
      </trkpt>
      <trkpt lat="46.05083" lon="1.25436">
        <ele>374.09</ele>
        <time>2016-09-07T08:05:27Z</time>
      </trkpt>
      <trkpt lat="46.05067" lon="1.25465">
        <ele>371.21</ele>
        <time>2016-09-07T08:05:33Z</time>
      </trkpt>
      <trkpt lat="46.05063" lon="1.25474">
        <ele>369.28</ele>
        <time>2016-09-07T08:05:36Z</time>
      </trkpt>
      <trkpt lat="46.05061" lon="1.25476">
        <ele>368.8</ele>
        <time>2016-09-07T08:05:37Z</time>
      </trkpt>
      <trkpt lat="46.05058" lon="1.25479">
        <ele>368.32</ele>
        <time>2016-09-07T08:05:38Z</time>
      </trkpt>
      <trkpt lat="46.05054" lon="1.25481">
        <ele>368.32</ele>
        <time>2016-09-07T08:05:39Z</time>
      </trkpt>
      <trkpt lat="46.05051" lon="1.25482">
        <ele>367.36</ele>
        <time>2016-09-07T08:05:40Z</time>
      </trkpt>
      <trkpt lat="46.05045" lon="1.25486">
        <ele>367.36</ele>
        <time>2016-09-07T08:05:41Z</time>
      </trkpt>
      <trkpt lat="46.0503" lon="1.25494">
        <ele>365.92</ele>
        <time>2016-09-07T08:05:44Z</time>
      </trkpt>
      <trkpt lat="46.05025" lon="1.25497">
        <ele>365.44</ele>
        <time>2016-09-07T08:05:45Z</time>
      </trkpt>
      <trkpt lat="46.05021" lon="1.255">
        <ele>364.48</ele>
        <time>2016-09-07T08:05:46Z</time>
      </trkpt>
      <trkpt lat="46.05016" lon="1.25502">
        <ele>364</ele>
        <time>2016-09-07T08:05:47Z</time>
      </trkpt>
      <trkpt lat="46.05012" lon="1.25504">
        <ele>363.52</ele>
        <time>2016-09-07T08:05:48Z</time>
      </trkpt>
      <trkpt lat="46.05007" lon="1.25505">
        <ele>363.04</ele>
        <time>2016-09-07T08:05:49Z</time>
      </trkpt>
      <trkpt lat="46.04997" lon="1.25508">
        <ele>361.59</ele>
        <time>2016-09-07T08:05:52Z</time>
      </trkpt>
      <trkpt lat="46.04984" lon="1.2551">
        <ele>359.67</ele>
        <time>2016-09-07T08:05:57Z</time>
      </trkpt>
      <trkpt lat="46.04981" lon="1.25507">
        <ele>359.19</ele>
        <time>2016-09-07T08:05:58Z</time>
      </trkpt>
      <trkpt lat="46.04978" lon="1.25503">
        <ele>358.23</ele>
        <time>2016-09-07T08:05:59Z</time>
      </trkpt>
      <trkpt lat="46.04975" lon="1.255">
        <ele>358.23</ele>
        <time>2016-09-07T08:06:00Z</time>
      </trkpt>
      <trkpt lat="46.04971" lon="1.25498">
        <ele>358.71</ele>
        <time>2016-09-07T08:06:01Z</time>
      </trkpt>
      <trkpt lat="46.04968" lon="1.25498">
        <ele>357.75</ele>
        <time>2016-09-07T08:06:02Z</time>
      </trkpt>
      <trkpt lat="46.04965" lon="1.255">
        <ele>357.75</ele>
        <time>2016-09-07T08:06:03Z</time>
      </trkpt>
      <trkpt lat="46.04962" lon="1.25502">
        <ele>357.75</ele>
        <time>2016-09-07T08:06:04Z</time>
      </trkpt>
      <trkpt lat="46.0496" lon="1.25505">
        <ele>357.75</ele>
        <time>2016-09-07T08:06:05Z</time>
      </trkpt>
      <trkpt lat="46.04939" lon="1.25532">
        <ele>357.75</ele>
        <time>2016-09-07T08:06:16Z</time>
      </trkpt>
      <trkpt lat="46.04937" lon="1.25531">
        <ele>357.75</ele>
        <time>2016-09-07T08:06:17Z</time>
      </trkpt>
      <trkpt lat="46.04935" lon="1.25531">
        <ele>357.75</ele>
        <time>2016-09-07T08:06:29Z</time>
      </trkpt>
      <trkpt lat="46.04933" lon="1.2553">
        <ele>357.75</ele>
        <time>2016-09-07T08:06:49Z</time>
      </trkpt>
      <trkpt lat="46.04931" lon="1.2553">
        <ele>357.75</ele>
        <time>2016-09-07T08:06:50Z</time>
      </trkpt>
      <trkpt lat="46.04901" lon="1.25545">
        <ele>359.19</ele>
        <time>2016-09-07T08:07:03Z</time>
      </trkpt>
      <trkpt lat="46.049" lon="1.25547">
        <ele>359.19</ele>
        <time>2016-09-07T08:07:04Z</time>
      </trkpt>
      <trkpt lat="46.04887" lon="1.25564">
        <ele>361.59</ele>
        <time>2016-09-07T08:07:13Z</time>
      </trkpt>
      <trkpt lat="46.04887" lon="1.25566">
        <ele>361.59</ele>
        <time>2016-09-07T08:07:14Z</time>
      </trkpt>
      <trkpt lat="46.04885" lon="1.25569">
        <ele>361.59</ele>
        <time>2016-09-07T08:07:15Z</time>
      </trkpt>
      <trkpt lat="46.04862" lon="1.25592">
        <ele>360.15</ele>
        <time>2016-09-07T08:07:23Z</time>
      </trkpt>
      <trkpt lat="46.04837" lon="1.25611">
        <ele>356.31</ele>
        <time>2016-09-07T08:07:29Z</time>
      </trkpt>
      <trkpt lat="46.04807" lon="1.25623">
        <ele>355.83</ele>
        <time>2016-09-07T08:07:36Z</time>
      </trkpt>
      <trkpt lat="46.04798" lon="1.25623">
        <ele>355.83</ele>
        <time>2016-09-07T08:07:38Z</time>
      </trkpt>
      <trkpt lat="46.04749" lon="1.25615">
        <ele>356.31</ele>
        <time>2016-09-07T08:07:48Z</time>
      </trkpt>
      <trkpt lat="46.04746" lon="1.25617">
        <ele>356.31</ele>
        <time>2016-09-07T08:07:49Z</time>
      </trkpt>
      <trkpt lat="46.0474" lon="1.25621">
        <ele>356.31</ele>
        <time>2016-09-07T08:07:50Z</time>
      </trkpt>
      <trkpt lat="46.04737" lon="1.25626">
        <ele>356.31</ele>
        <time>2016-09-07T08:07:51Z</time>
      </trkpt>
      <trkpt lat="46.04734" lon="1.25631">
        <ele>356.31</ele>
        <time>2016-09-07T08:07:52Z</time>
      </trkpt>
      <trkpt lat="46.04732" lon="1.25637">
        <ele>356.31</ele>
        <time>2016-09-07T08:07:53Z</time>
      </trkpt>
      <trkpt lat="46.0473" lon="1.25644">
        <ele>355.83</ele>
        <time>2016-09-07T08:07:54Z</time>
      </trkpt>
      <trkpt lat="46.04728" lon="1.25652">
        <ele>355.83</ele>
        <time>2016-09-07T08:07:55Z</time>
      </trkpt>
      <trkpt lat="46.04726" lon="1.2566">
        <ele>355.83</ele>
        <time>2016-09-07T08:07:56Z</time>
      </trkpt>
      <trkpt lat="46.04695" lon="1.25757">
        <ele>356.31</ele>
        <time>2016-09-07T08:08:12Z</time>
      </trkpt>
      <trkpt lat="46.04678" lon="1.25792">
        <ele>359.67</ele>
        <time>2016-09-07T08:08:24Z</time>
      </trkpt>
      <trkpt lat="46.04659" lon="1.2583">
        <ele>363.52</ele>
        <time>2016-09-07T08:08:39Z</time>
      </trkpt>
      <trkpt lat="46.04646" lon="1.2586">
        <ele>365.92</ele>
        <time>2016-09-07T08:08:51Z</time>
      </trkpt>
      <trkpt lat="46.04632" lon="1.25894">
        <ele>368.32</ele>
        <time>2016-09-07T08:09:04Z</time>
      </trkpt>
      <trkpt lat="46.0461" lon="1.25935">
        <ele>370.24</ele>
        <time>2016-09-07T08:09:20Z</time>
      </trkpt>
      <trkpt lat="46.04592" lon="1.25991">
        <ele>372.65</ele>
        <time>2016-09-07T08:09:37Z</time>
      </trkpt>
      <trkpt lat="46.04587" lon="1.2601">
        <ele>373.61</ele>
        <time>2016-09-07T08:09:43Z</time>
      </trkpt>
      <trkpt lat="46.04588" lon="1.26014">
        <ele>373.61</ele>
        <time>2016-09-07T08:09:44Z</time>
      </trkpt>
      <trkpt lat="46.04589" lon="1.26017">
        <ele>373.61</ele>
        <time>2016-09-07T08:09:45Z</time>
      </trkpt>
      <trkpt lat="46.04591" lon="1.26021">
        <ele>373.61</ele>
        <time>2016-09-07T08:09:46Z</time>
      </trkpt>
      <trkpt lat="46.04593" lon="1.26024">
        <ele>373.61</ele>
        <time>2016-09-07T08:09:47Z</time>
      </trkpt>
      <trkpt lat="46.04595" lon="1.26027">
        <ele>374.09</ele>
        <time>2016-09-07T08:09:48Z</time>
      </trkpt>
      <trkpt lat="46.04597" lon="1.26029">
        <ele>374.09</ele>
        <time>2016-09-07T08:09:49Z</time>
      </trkpt>
      <trkpt lat="46.0463" lon="1.26067">
        <ele>376.49</ele>
        <time>2016-09-07T08:10:07Z</time>
      </trkpt>
      <trkpt lat="46.04647" lon="1.26093">
        <ele>378.9</ele>
        <time>2016-09-07T08:10:19Z</time>
      </trkpt>
      <trkpt lat="46.04635" lon="1.26116">
        <ele>381.78</ele>
        <time>2016-09-07T08:10:32Z</time>
      </trkpt>
      <trkpt lat="46.04633" lon="1.26121">
        <ele>382.74</ele>
        <time>2016-09-07T08:10:35Z</time>
      </trkpt>
      <trkpt lat="46.04632" lon="1.26122">
        <ele>382.74</ele>
        <time>2016-09-07T08:10:36Z</time>
      </trkpt>
      <trkpt lat="46.04631" lon="1.26123">
        <ele>383.22</ele>
        <time>2016-09-07T08:10:37Z</time>
      </trkpt>
      <trkpt lat="46.0463" lon="1.26125">
        <ele>383.22</ele>
        <time>2016-09-07T08:10:38Z</time>
      </trkpt>
      <trkpt lat="46.04629" lon="1.26127">
        <ele>383.7</ele>
        <time>2016-09-07T08:10:39Z</time>
      </trkpt>
      <trkpt lat="46.04622" lon="1.26139">
        <ele>384.66</ele>
        <time>2016-09-07T08:10:46Z</time>
      </trkpt>
      <trkpt lat="46.04621" lon="1.2614">
        <ele>384.66</ele>
        <time>2016-09-07T08:10:47Z</time>
      </trkpt>
      <trkpt lat="46.0461" lon="1.26159">
        <ele>386.11</ele>
        <time>2016-09-07T08:10:57Z</time>
      </trkpt>
      <trkpt lat="46.04623" lon="1.26194">
        <ele>388.51</ele>
        <time>2016-09-07T08:11:13Z</time>
      </trkpt>
      <trkpt lat="46.04641" lon="1.26218">
        <ele>388.99</ele>
        <time>2016-09-07T08:11:28Z</time>
      </trkpt>
      <trkpt lat="46.04671" lon="1.26244">
        <ele>385.63</ele>
        <time>2016-09-07T08:11:40Z</time>
      </trkpt>
      <trkpt lat="46.04676" lon="1.26247">
        <ele>385.63</ele>
        <time>2016-09-07T08:11:41Z</time>
      </trkpt>
      <trkpt lat="46.04694" lon="1.26257">
        <ele>383.7</ele>
        <time>2016-09-07T08:11:45Z</time>
      </trkpt>
      <trkpt lat="46.04735" lon="1.26281">
        <ele>381.3</ele>
        <time>2016-09-07T08:11:53Z</time>
      </trkpt>
      <trkpt lat="46.04783" lon="1.26335">
        <ele>379.86</ele>
        <time>2016-09-07T08:12:05Z</time>
      </trkpt>
      <trkpt lat="46.04815" lon="1.26358">
        <ele>381.3</ele>
        <time>2016-09-07T08:12:14Z</time>
      </trkpt>
      <trkpt lat="46.04842" lon="1.26378">
        <ele>383.22</ele>
        <time>2016-09-07T08:12:25Z</time>
      </trkpt>
      <trkpt lat="46.04854" lon="1.26396">
        <ele>382.26</ele>
        <time>2016-09-07T08:12:30Z</time>
      </trkpt>
      <trkpt lat="46.04871" lon="1.26417">
        <ele>379.86</ele>
        <time>2016-09-07T08:12:35Z</time>
      </trkpt>
      <trkpt lat="46.049" lon="1.26435">
        <ele>376.97</ele>
        <time>2016-09-07T08:12:42Z</time>
      </trkpt>
      <trkpt lat="46.04939" lon="1.26463">
        <ele>375.05</ele>
        <time>2016-09-07T08:12:51Z</time>
      </trkpt>
      <trkpt lat="46.04948" lon="1.2647">
        <ele>375.05</ele>
        <time>2016-09-07T08:12:53Z</time>
      </trkpt>
      <trkpt lat="46.0498" lon="1.26506">
        <ele>375.05</ele>
        <time>2016-09-07T08:13:03Z</time>
      </trkpt>
      <trkpt lat="46.0498" lon="1.26546">
        <ele>373.61</ele>
        <time>2016-09-07T08:13:15Z</time>
      </trkpt>
      <trkpt lat="46.04972" lon="1.26583">
        <ele>372.65</ele>
        <time>2016-09-07T08:13:26Z</time>
      </trkpt>
      <trkpt lat="46.04967" lon="1.26594">
        <ele>374.09</ele>
        <time>2016-09-07T08:13:32Z</time>
      </trkpt>
      <trkpt lat="46.04953" lon="1.26615">
        <ele>377.45</ele>
        <time>2016-09-07T08:13:43Z</time>
      </trkpt>
      <trkpt lat="46.04937" lon="1.26649">
        <ele>379.86</ele>
        <time>2016-09-07T08:13:56Z</time>
      </trkpt>
      <trkpt lat="46.04925" lon="1.26672">
        <ele>382.74</ele>
        <time>2016-09-07T08:14:07Z</time>
      </trkpt>
      <trkpt lat="46.04913" lon="1.26693">
        <ele>385.63</ele>
        <time>2016-09-07T08:14:18Z</time>
      </trkpt>
      <trkpt lat="46.04902" lon="1.26708">
        <ele>386.59</ele>
        <time>2016-09-07T08:14:25Z</time>
      </trkpt>
      <trkpt lat="46.04888" lon="1.26736">
        <ele>388.03</ele>
        <time>2016-09-07T08:14:40Z</time>
      </trkpt>
      <trkpt lat="46.04869" lon="1.26763">
        <ele>388.99</ele>
        <time>2016-09-07T08:14:53Z</time>
      </trkpt>
      <trkpt lat="46.04856" lon="1.26779">
        <ele>389.47</ele>
        <time>2016-09-07T08:15:04Z</time>
      </trkpt>
      <trkpt lat="46.04848" lon="1.26791">
        <ele>389.47</ele>
        <time>2016-09-07T08:15:07Z</time>
      </trkpt>
      <trkpt lat="46.04844" lon="1.26796">
        <ele>388.03</ele>
        <time>2016-09-07T08:15:08Z</time>
      </trkpt>
      <trkpt lat="46.04841" lon="1.26801">
        <ele>387.55</ele>
        <time>2016-09-07T08:15:09Z</time>
      </trkpt>
      <trkpt lat="46.04839" lon="1.26807">
        <ele>387.07</ele>
        <time>2016-09-07T08:15:10Z</time>
      </trkpt>
      <trkpt lat="46.04836" lon="1.26813">
        <ele>386.59</ele>
        <time>2016-09-07T08:15:11Z</time>
      </trkpt>
      <trkpt lat="46.04833" lon="1.26818">
        <ele>386.59</ele>
        <time>2016-09-07T08:15:12Z</time>
      </trkpt>
      <trkpt lat="46.0483" lon="1.26822">
        <ele>385.63</ele>
        <time>2016-09-07T08:15:13Z</time>
      </trkpt>
      <trkpt lat="46.04828" lon="1.26828">
        <ele>385.63</ele>
        <time>2016-09-07T08:15:14Z</time>
      </trkpt>
      <trkpt lat="46.04826" lon="1.26834">
        <ele>385.15</ele>
        <time>2016-09-07T08:15:15Z</time>
      </trkpt>
      <trkpt lat="46.04825" lon="1.26839">
        <ele>384.66</ele>
        <time>2016-09-07T08:15:16Z</time>
      </trkpt>
      <trkpt lat="46.04823" lon="1.26845">
        <ele>383.7</ele>
        <time>2016-09-07T08:15:17Z</time>
      </trkpt>
      <trkpt lat="46.04821" lon="1.26852">
        <ele>383.7</ele>
        <time>2016-09-07T08:15:18Z</time>
      </trkpt>
      <trkpt lat="46.04817" lon="1.26857">
        <ele>383.22</ele>
        <time>2016-09-07T08:15:19Z</time>
      </trkpt>
      <trkpt lat="46.04813" lon="1.26863">
        <ele>382.74</ele>
        <time>2016-09-07T08:15:20Z</time>
      </trkpt>
      <trkpt lat="46.04809" lon="1.26869">
        <ele>383.22</ele>
        <time>2016-09-07T08:15:21Z</time>
      </trkpt>
      <trkpt lat="46.04801" lon="1.2689">
        <ele>381.78</ele>
        <time>2016-09-07T08:15:24Z</time>
      </trkpt>
      <trkpt lat="46.04798" lon="1.26898">
        <ele>381.3</ele>
        <time>2016-09-07T08:15:25Z</time>
      </trkpt>
      <trkpt lat="46.04796" lon="1.26903">
        <ele>381.3</ele>
        <time>2016-09-07T08:15:26Z</time>
      </trkpt>
      <trkpt lat="46.04793" lon="1.2691">
        <ele>380.82</ele>
        <time>2016-09-07T08:15:27Z</time>
      </trkpt>
      <trkpt lat="46.04791" lon="1.26916">
        <ele>380.82</ele>
        <time>2016-09-07T08:15:28Z</time>
      </trkpt>
      <trkpt lat="46.04787" lon="1.26922">
        <ele>380.82</ele>
        <time>2016-09-07T08:15:29Z</time>
      </trkpt>
      <trkpt lat="46.04784" lon="1.26929">
        <ele>380.34</ele>
        <time>2016-09-07T08:15:30Z</time>
      </trkpt>
      <trkpt lat="46.04781" lon="1.26935">
        <ele>379.86</ele>
        <time>2016-09-07T08:15:31Z</time>
      </trkpt>
      <trkpt lat="46.04758" lon="1.2699">
        <ele>377.45</ele>
        <time>2016-09-07T08:15:40Z</time>
      </trkpt>
      <trkpt lat="46.04745" lon="1.27028">
        <ele>374.09</ele>
        <time>2016-09-07T08:15:48Z</time>
      </trkpt>
      <trkpt lat="46.04734" lon="1.27039">
        <ele>373.61</ele>
        <time>2016-09-07T08:15:51Z</time>
      </trkpt>
      <trkpt lat="46.04706" lon="1.27061">
        <ele>371.69</ele>
        <time>2016-09-07T08:16:00Z</time>
      </trkpt>
      <trkpt lat="46.0468" lon="1.27053">
        <ele>372.65</ele>
        <time>2016-09-07T08:16:09Z</time>
      </trkpt>
      <trkpt lat="46.04637" lon="1.27038">
        <ele>373.13</ele>
        <time>2016-09-07T08:16:21Z</time>
      </trkpt>
      <trkpt lat="46.04622" lon="1.27029">
        <ele>371.69</ele>
        <time>2016-09-07T08:16:25Z</time>
      </trkpt>
      <trkpt lat="46.04593" lon="1.2701">
        <ele>371.21</ele>
        <time>2016-09-07T08:16:33Z</time>
      </trkpt>
      <trkpt lat="46.0454" lon="1.26993">
        <ele>371.21</ele>
        <time>2016-09-07T08:16:45Z</time>
      </trkpt>
      <trkpt lat="46.0453" lon="1.26987">
        <ele>371.21</ele>
        <time>2016-09-07T08:16:47Z</time>
      </trkpt>
      <trkpt lat="46.04499" lon="1.26967">
        <ele>371.21</ele>
        <time>2016-09-07T08:16:55Z</time>
      </trkpt>
      <trkpt lat="46.04479" lon="1.26989">
        <ele>370.24</ele>
        <time>2016-09-07T08:17:03Z</time>
      </trkpt>
      <trkpt lat="46.04451" lon="1.27004">
        <ele>370.24</ele>
        <time>2016-09-07T08:17:13Z</time>
      </trkpt>
      <trkpt lat="46.04428" lon="1.26998">
        <ele>371.69</ele>
        <time>2016-09-07T08:17:19Z</time>
      </trkpt>
      <trkpt lat="46.04426" lon="1.26996">
        <ele>372.65</ele>
        <time>2016-09-07T08:17:20Z</time>
      </trkpt>
      <trkpt lat="46.04424" lon="1.26992">
        <ele>373.13</ele>
        <time>2016-09-07T08:17:22Z</time>
      </trkpt>
      <trkpt lat="46.04395" lon="1.26978">
        <ele>375.05</ele>
        <time>2016-09-07T08:17:34Z</time>
      </trkpt>
      <trkpt lat="46.04385" lon="1.26965">
        <ele>376.01</ele>
        <time>2016-09-07T08:17:39Z</time>
      </trkpt>
      <trkpt lat="46.04383" lon="1.26964">
        <ele>376.01</ele>
        <time>2016-09-07T08:17:40Z</time>
      </trkpt>
      <trkpt lat="46.04381" lon="1.26963">
        <ele>376.97</ele>
        <time>2016-09-07T08:17:41Z</time>
      </trkpt>
      <trkpt lat="46.04377" lon="1.26962">
        <ele>376.97</ele>
        <time>2016-09-07T08:17:43Z</time>
      </trkpt>
      <trkpt lat="46.04375" lon="1.26962">
        <ele>376.97</ele>
        <time>2016-09-07T08:17:44Z</time>
      </trkpt>
      <trkpt lat="46.04368" lon="1.26963">
        <ele>376.97</ele>
        <time>2016-09-07T08:17:47Z</time>
      </trkpt>
      <trkpt lat="46.04365" lon="1.2697">
        <ele>375.53</ele>
        <time>2016-09-07T08:17:52Z</time>
      </trkpt>
      <trkpt lat="46.04361" lon="1.27005">
        <ele>372.65</ele>
        <time>2016-09-07T08:18:00Z</time>
      </trkpt>
      <trkpt lat="46.04362" lon="1.27016">
        <ele>372.65</ele>
        <time>2016-09-07T08:18:03Z</time>
      </trkpt>
      <trkpt lat="46.04363" lon="1.27019">
        <ele>372.65</ele>
        <time>2016-09-07T08:18:04Z</time>
      </trkpt>
      <trkpt lat="46.04364" lon="1.27021">
        <ele>372.65</ele>
        <time>2016-09-07T08:18:05Z</time>
      </trkpt>
      <trkpt lat="46.04366" lon="1.27022">
        <ele>372.65</ele>
        <time>2016-09-07T08:18:06Z</time>
      </trkpt>
      <trkpt lat="46.04368" lon="1.27024">
        <ele>372.17</ele>
        <time>2016-09-07T08:18:07Z</time>
      </trkpt>
      <trkpt lat="46.0437" lon="1.27025">
        <ele>372.17</ele>
        <time>2016-09-07T08:18:08Z</time>
      </trkpt>
      <trkpt lat="46.04373" lon="1.27027">
        <ele>371.69</ele>
        <time>2016-09-07T08:18:09Z</time>
      </trkpt>
      <trkpt lat="46.04375" lon="1.27029">
        <ele>371.21</ele>
        <time>2016-09-07T08:18:10Z</time>
      </trkpt>
      <trkpt lat="46.04378" lon="1.27031">
        <ele>371.21</ele>
        <time>2016-09-07T08:18:11Z</time>
      </trkpt>
      <trkpt lat="46.04381" lon="1.27034">
        <ele>370.24</ele>
        <time>2016-09-07T08:18:12Z</time>
      </trkpt>
      <trkpt lat="46.04384" lon="1.27036">
        <ele>369.76</ele>
        <time>2016-09-07T08:18:13Z</time>
      </trkpt>
      <trkpt lat="46.04387" lon="1.27039">
        <ele>369.28</ele>
        <time>2016-09-07T08:18:14Z</time>
      </trkpt>
      <trkpt lat="46.04402" lon="1.27055">
        <ele>366.4</ele>
        <time>2016-09-07T08:18:20Z</time>
      </trkpt>
      <trkpt lat="46.04405" lon="1.27059">
        <ele>365.92</ele>
        <time>2016-09-07T08:18:22Z</time>
      </trkpt>
      <trkpt lat="46.04406" lon="1.27063">
        <ele>365.92</ele>
        <time>2016-09-07T08:18:24Z</time>
      </trkpt>
      <trkpt lat="46.04405" lon="1.27066">
        <ele>365.92</ele>
        <time>2016-09-07T08:18:25Z</time>
      </trkpt>
      <trkpt lat="46.04404" lon="1.27069">
        <ele>366.88</ele>
        <time>2016-09-07T08:18:26Z</time>
      </trkpt>
      <trkpt lat="46.04403" lon="1.27071">
        <ele>367.36</ele>
        <time>2016-09-07T08:18:27Z</time>
      </trkpt>
      <trkpt lat="46.04402" lon="1.27073">
        <ele>367.36</ele>
        <time>2016-09-07T08:18:28Z</time>
      </trkpt>
      <trkpt lat="46.044" lon="1.27102">
        <ele>367.36</ele>
        <time>2016-09-07T08:18:35Z</time>
      </trkpt>
      <trkpt lat="46.04399" lon="1.27108">
        <ele>365.92</ele>
        <time>2016-09-07T08:18:36Z</time>
      </trkpt>
      <trkpt lat="46.04401" lon="1.27137">
        <ele>366.4</ele>
        <time>2016-09-07T08:18:42Z</time>
      </trkpt>
      <trkpt lat="46.04403" lon="1.2714">
        <ele>366.4</ele>
        <time>2016-09-07T08:18:43Z</time>
      </trkpt>
      <trkpt lat="46.04415" lon="1.27155">
        <ele>365.44</ele>
        <time>2016-09-07T08:18:49Z</time>
      </trkpt>
      <trkpt lat="46.04416" lon="1.27158">
        <ele>365.44</ele>
        <time>2016-09-07T08:18:50Z</time>
      </trkpt>
      <trkpt lat="46.04416" lon="1.27159">
        <ele>365.44</ele>
        <time>2016-09-07T08:18:51Z</time>
      </trkpt>
      <trkpt lat="46.04417" lon="1.27161">
        <ele>365.44</ele>
        <time>2016-09-07T08:18:52Z</time>
      </trkpt>
      <trkpt lat="46.04419" lon="1.27164">
        <ele>365.44</ele>
        <time>2016-09-07T08:18:53Z</time>
      </trkpt>
      <trkpt lat="46.0442" lon="1.27167">
        <ele>365.92</ele>
        <time>2016-09-07T08:18:54Z</time>
      </trkpt>
      <trkpt lat="46.04422" lon="1.27169">
        <ele>365.44</ele>
        <time>2016-09-07T08:18:55Z</time>
      </trkpt>
      <trkpt lat="46.04429" lon="1.27185">
        <ele>365.92</ele>
        <time>2016-09-07T08:18:59Z</time>
      </trkpt>
      <trkpt lat="46.0444" lon="1.27193">
        <ele>365.92</ele>
        <time>2016-09-07T08:19:03Z</time>
      </trkpt>
      <trkpt lat="46.04442" lon="1.27197">
        <ele>365.92</ele>
        <time>2016-09-07T08:19:04Z</time>
      </trkpt>
      <trkpt lat="46.04444" lon="1.272">
        <ele>365.92</ele>
        <time>2016-09-07T08:19:05Z</time>
      </trkpt>
      <trkpt lat="46.04445" lon="1.27203">
        <ele>365.92</ele>
        <time>2016-09-07T08:19:06Z</time>
      </trkpt>
      <trkpt lat="46.04447" lon="1.27206">
        <ele>366.88</ele>
        <time>2016-09-07T08:19:07Z</time>
      </trkpt>
      <trkpt lat="46.04448" lon="1.27209">
        <ele>366.88</ele>
        <time>2016-09-07T08:19:08Z</time>
      </trkpt>
      <trkpt lat="46.04453" lon="1.27228">
        <ele>367.84</ele>
        <time>2016-09-07T08:19:14Z</time>
      </trkpt>
      <trkpt lat="46.04455" lon="1.27229">
        <ele>367.84</ele>
        <time>2016-09-07T08:19:15Z</time>
      </trkpt>
      <trkpt lat="46.04457" lon="1.27231">
        <ele>367.84</ele>
        <time>2016-09-07T08:19:16Z</time>
      </trkpt>
      <trkpt lat="46.04459" lon="1.27234">
        <ele>367.84</ele>
        <time>2016-09-07T08:19:17Z</time>
      </trkpt>
      <trkpt lat="46.04461" lon="1.27238">
        <ele>367.84</ele>
        <time>2016-09-07T08:19:18Z</time>
      </trkpt>
      <trkpt lat="46.04461" lon="1.27242">
        <ele>367.84</ele>
        <time>2016-09-07T08:19:19Z</time>
      </trkpt>
      <trkpt lat="46.04462" lon="1.27246">
        <ele>367.84</ele>
        <time>2016-09-07T08:19:20Z</time>
      </trkpt>
      <trkpt lat="46.04463" lon="1.27273">
        <ele>368.32</ele>
        <time>2016-09-07T08:19:28Z</time>
      </trkpt>
      <trkpt lat="46.04463" lon="1.27276">
        <ele>368.32</ele>
        <time>2016-09-07T08:19:29Z</time>
      </trkpt>
      <trkpt lat="46.04461" lon="1.27284">
        <ele>369.28</ele>
        <time>2016-09-07T08:19:33Z</time>
      </trkpt>
      <trkpt lat="46.04458" lon="1.27294">
        <ele>369.76</ele>
        <time>2016-09-07T08:19:39Z</time>
      </trkpt>
      <trkpt lat="46.04452" lon="1.27298">
        <ele>370.24</ele>
        <time>2016-09-07T08:19:43Z</time>
      </trkpt>
      <trkpt lat="46.04427" lon="1.27312">
        <ele>372.65</ele>
        <time>2016-09-07T08:19:58Z</time>
      </trkpt>
      <trkpt lat="46.04402" lon="1.27328">
        <ele>373.13</ele>
        <time>2016-09-07T08:20:09Z</time>
      </trkpt>
      <trkpt lat="46.04376" lon="1.2736">
        <ele>370.73</ele>
        <time>2016-09-07T08:20:21Z</time>
      </trkpt>
      <trkpt lat="46.04349" lon="1.27381">
        <ele>368.32</ele>
        <time>2016-09-07T08:20:30Z</time>
      </trkpt>
      <trkpt lat="46.04322" lon="1.27383">
        <ele>366.88</ele>
        <time>2016-09-07T08:20:39Z</time>
      </trkpt>
      <trkpt lat="46.04311" lon="1.27376">
        <ele>366.88</ele>
        <time>2016-09-07T08:20:44Z</time>
      </trkpt>
      <trkpt lat="46.04309" lon="1.27376">
        <ele>366.88</ele>
        <time>2016-09-07T08:20:45Z</time>
      </trkpt>
      <trkpt lat="46.04285" lon="1.27371">
        <ele>366.88</ele>
        <time>2016-09-07T08:20:53Z</time>
      </trkpt>
      <trkpt lat="46.04282" lon="1.27371">
        <ele>366.88</ele>
        <time>2016-09-07T08:20:54Z</time>
      </trkpt>
      <trkpt lat="46.04251" lon="1.27372">
        <ele>366.4</ele>
        <time>2016-09-07T08:21:04Z</time>
      </trkpt>
      <trkpt lat="46.04249" lon="1.2737">
        <ele>366.4</ele>
        <time>2016-09-07T08:21:05Z</time>
      </trkpt>
      <trkpt lat="46.04246" lon="1.2737">
        <ele>366.4</ele>
        <time>2016-09-07T08:21:06Z</time>
      </trkpt>
      <trkpt lat="46.0422" lon="1.27353">
        <ele>366.88</ele>
        <time>2016-09-07T08:21:17Z</time>
      </trkpt>
      <trkpt lat="46.0421" lon="1.27334">
        <ele>366.4</ele>
        <time>2016-09-07T08:21:25Z</time>
      </trkpt>
      <trkpt lat="46.0421" lon="1.2733">
        <ele>366.4</ele>
        <time>2016-09-07T08:21:26Z</time>
      </trkpt>
      <trkpt lat="46.04209" lon="1.27324">
        <ele>366.4</ele>
        <time>2016-09-07T08:21:28Z</time>
      </trkpt>
      <trkpt lat="46.04208" lon="1.27322">
        <ele>366.88</ele>
        <time>2016-09-07T08:21:29Z</time>
      </trkpt>
      <trkpt lat="46.04207" lon="1.27318">
        <ele>366.88</ele>
        <time>2016-09-07T08:21:30Z</time>
      </trkpt>
      <trkpt lat="46.04206" lon="1.27314">
        <ele>366.88</ele>
        <time>2016-09-07T08:21:31Z</time>
      </trkpt>
      <trkpt lat="46.04204" lon="1.27294">
        <ele>366.4</ele>
        <time>2016-09-07T08:21:36Z</time>
      </trkpt>
      <trkpt lat="46.04201" lon="1.27288">
        <ele>366.88</ele>
        <time>2016-09-07T08:21:38Z</time>
      </trkpt>
      <trkpt lat="46.042" lon="1.27284">
        <ele>366.4</ele>
        <time>2016-09-07T08:21:39Z</time>
      </trkpt>
      <trkpt lat="46.04199" lon="1.2728">
        <ele>366.4</ele>
        <time>2016-09-07T08:21:40Z</time>
      </trkpt>
      <trkpt lat="46.04198" lon="1.27276">
        <ele>366.4</ele>
        <time>2016-09-07T08:21:41Z</time>
      </trkpt>
      <trkpt lat="46.04194" lon="1.2726">
        <ele>366.4</ele>
        <time>2016-09-07T08:21:45Z</time>
      </trkpt>
      <trkpt lat="46.04192" lon="1.2724">
        <ele>367.84</ele>
        <time>2016-09-07T08:21:51Z</time>
      </trkpt>
      <trkpt lat="46.04191" lon="1.27225">
        <ele>367.84</ele>
        <time>2016-09-07T08:21:55Z</time>
      </trkpt>
      <trkpt lat="46.04177" lon="1.27184">
        <ele>367.84</ele>
        <time>2016-09-07T08:22:04Z</time>
      </trkpt>
      <trkpt lat="46.04172" lon="1.27129">
        <ele>367.84</ele>
        <time>2016-09-07T08:22:17Z</time>
      </trkpt>
      <trkpt lat="46.04172" lon="1.27118">
        <ele>367.84</ele>
        <time>2016-09-07T08:22:19Z</time>
      </trkpt>
      <trkpt lat="46.04171" lon="1.27114">
        <ele>367.84</ele>
        <time>2016-09-07T08:22:20Z</time>
      </trkpt>
      <trkpt lat="46.0417" lon="1.2711">
        <ele>367.84</ele>
        <time>2016-09-07T08:22:21Z</time>
      </trkpt>
      <trkpt lat="46.04167" lon="1.27091">
        <ele>367.84</ele>
        <time>2016-09-07T08:22:25Z</time>
      </trkpt>
      <trkpt lat="46.04166" lon="1.27088">
        <ele>367.84</ele>
        <time>2016-09-07T08:22:26Z</time>
      </trkpt>
      <trkpt lat="46.04166" lon="1.27084">
        <ele>367.84</ele>
        <time>2016-09-07T08:22:27Z</time>
      </trkpt>
      <trkpt lat="46.04159" lon="1.2705">
        <ele>366.88</ele>
        <time>2016-09-07T08:22:35Z</time>
      </trkpt>
      <trkpt lat="46.04146" lon="1.27024">
        <ele>366.88</ele>
        <time>2016-09-07T08:22:43Z</time>
      </trkpt>
      <trkpt lat="46.04141" lon="1.27012">
        <ele>366.88</ele>
        <time>2016-09-07T08:22:53Z</time>
      </trkpt>
      <trkpt lat="46.04138" lon="1.27001">
        <ele>366.88</ele>
        <time>2016-09-07T08:23:05Z</time>
      </trkpt>
      <trkpt lat="46.04138" lon="1.26999">
        <ele>367.84</ele>
        <time>2016-09-07T08:23:06Z</time>
      </trkpt>
      <trkpt lat="46.04138" lon="1.26995">
        <ele>367.84</ele>
        <time>2016-09-07T08:23:09Z</time>
      </trkpt>
      <trkpt lat="46.04136" lon="1.2699">
        <ele>367.84</ele>
        <time>2016-09-07T08:23:12Z</time>
      </trkpt>
      <trkpt lat="46.04135" lon="1.26989">
        <ele>367.84</ele>
        <time>2016-09-07T08:23:13Z</time>
      </trkpt>
      <trkpt lat="46.04133" lon="1.26989">
        <ele>367.84</ele>
        <time>2016-09-07T08:23:14Z</time>
      </trkpt>
      <trkpt lat="46.04132" lon="1.26988">
        <ele>367.84</ele>
        <time>2016-09-07T08:23:15Z</time>
      </trkpt>
      <trkpt lat="46.04131" lon="1.26987">
        <ele>367.84</ele>
        <time>2016-09-07T08:23:16Z</time>
      </trkpt>
      <trkpt lat="46.0413" lon="1.26987">
        <ele>367.84</ele>
        <time>2016-09-07T08:23:17Z</time>
      </trkpt>
      <trkpt lat="46.04119" lon="1.26974">
        <ele>368.8</ele>
        <time>2016-09-07T08:23:30Z</time>
      </trkpt>
      <trkpt lat="46.04109" lon="1.26964">
        <ele>368.8</ele>
        <time>2016-09-07T08:23:41Z</time>
      </trkpt>
      <trkpt lat="46.04105" lon="1.26967">
        <ele>368.8</ele>
        <time>2016-09-07T08:23:49Z</time>
      </trkpt>
      <trkpt lat="46.04099" lon="1.26972">
        <ele>368.8</ele>
        <time>2016-09-07T08:23:52Z</time>
      </trkpt>
      <trkpt lat="46.04095" lon="1.26973">
        <ele>368.8</ele>
        <time>2016-09-07T08:23:53Z</time>
      </trkpt>
      <trkpt lat="46.04092" lon="1.26975">
        <ele>368.32</ele>
        <time>2016-09-07T08:23:54Z</time>
      </trkpt>
      <trkpt lat="46.04091" lon="1.26977">
        <ele>368.32</ele>
        <time>2016-09-07T08:23:55Z</time>
      </trkpt>
      <trkpt lat="46.04089" lon="1.26979">
        <ele>367.36</ele>
        <time>2016-09-07T08:23:56Z</time>
      </trkpt>
      <trkpt lat="46.04087" lon="1.26981">
        <ele>367.36</ele>
        <time>2016-09-07T08:23:57Z</time>
      </trkpt>
      <trkpt lat="46.04085" lon="1.26983">
        <ele>367.36</ele>
        <time>2016-09-07T08:23:58Z</time>
      </trkpt>
      <trkpt lat="46.04083" lon="1.26984">
        <ele>367.36</ele>
        <time>2016-09-07T08:23:59Z</time>
      </trkpt>
      <trkpt lat="46.04081" lon="1.26985">
        <ele>367.36</ele>
        <time>2016-09-07T08:24:00Z</time>
      </trkpt>
      <trkpt lat="46.04078" lon="1.26986">
        <ele>367.36</ele>
        <time>2016-09-07T08:24:01Z</time>
      </trkpt>
      <trkpt lat="46.04076" lon="1.26987">
        <ele>367.36</ele>
        <time>2016-09-07T08:24:02Z</time>
      </trkpt>
      <trkpt lat="46.04074" lon="1.26987">
        <ele>367.36</ele>
        <time>2016-09-07T08:24:03Z</time>
      </trkpt>
      <trkpt lat="46.04072" lon="1.26986">
        <ele>367.36</ele>
        <time>2016-09-07T08:24:04Z</time>
      </trkpt>
      <trkpt lat="46.0407" lon="1.26986">
        <ele>367.36</ele>
        <time>2016-09-07T08:24:05Z</time>
      </trkpt>
      <trkpt lat="46.04068" lon="1.26986">
        <ele>368.32</ele>
        <time>2016-09-07T08:24:06Z</time>
      </trkpt>
      <trkpt lat="46.04066" lon="1.26987">
        <ele>368.32</ele>
        <time>2016-09-07T08:24:07Z</time>
      </trkpt>
      <trkpt lat="46.04063" lon="1.26988">
        <ele>368.32</ele>
        <time>2016-09-07T08:24:08Z</time>
      </trkpt>
      <trkpt lat="46.04061" lon="1.26988">
        <ele>368.32</ele>
        <time>2016-09-07T08:24:09Z</time>
      </trkpt>
      <trkpt lat="46.04058" lon="1.26988">
        <ele>368.32</ele>
        <time>2016-09-07T08:24:10Z</time>
      </trkpt>
      <trkpt lat="46.04056" lon="1.26987">
        <ele>368.32</ele>
        <time>2016-09-07T08:24:11Z</time>
      </trkpt>
      <trkpt lat="46.04053" lon="1.26987">
        <ele>368.32</ele>
        <time>2016-09-07T08:24:12Z</time>
      </trkpt>
      <trkpt lat="46.04051" lon="1.26985">
        <ele>368.32</ele>
        <time>2016-09-07T08:24:13Z</time>
      </trkpt>
      <trkpt lat="46.0405" lon="1.26984">
        <ele>368.8</ele>
        <time>2016-09-07T08:24:14Z</time>
      </trkpt>
      <trkpt lat="46.04045" lon="1.2698">
        <ele>370.24</ele>
        <time>2016-09-07T08:24:17Z</time>
      </trkpt>
      <trkpt lat="46.04044" lon="1.26979">
        <ele>370.24</ele>
        <time>2016-09-07T08:24:18Z</time>
      </trkpt>
      <trkpt lat="46.04042" lon="1.26977">
        <ele>370.24</ele>
        <time>2016-09-07T08:24:19Z</time>
      </trkpt>
      <trkpt lat="46.04039" lon="1.26978">
        <ele>370.24</ele>
        <time>2016-09-07T08:24:20Z</time>
      </trkpt>
      <trkpt lat="46.04036" lon="1.26978">
        <ele>370.24</ele>
        <time>2016-09-07T08:24:21Z</time>
      </trkpt>
      <trkpt lat="46.04034" lon="1.26978">
        <ele>370.24</ele>
        <time>2016-09-07T08:24:22Z</time>
      </trkpt>
      <trkpt lat="46.03998" lon="1.26978">
        <ele>369.28</ele>
        <time>2016-09-07T08:24:33Z</time>
      </trkpt>
      <trkpt lat="46.03963" lon="1.26981">
        <ele>365.92</ele>
        <time>2016-09-07T08:24:43Z</time>
      </trkpt>
      <trkpt lat="46.03935" lon="1.26991">
        <ele>367.36</ele>
        <time>2016-09-07T08:24:54Z</time>
      </trkpt>
      <trkpt lat="46.03915" lon="1.2704">
        <ele>367.84</ele>
        <time>2016-09-07T08:25:06Z</time>
      </trkpt>
      <trkpt lat="46.03894" lon="1.2706">
        <ele>369.28</ele>
        <time>2016-09-07T08:25:16Z</time>
      </trkpt>
      <trkpt lat="46.0386" lon="1.27052">
        <ele>370.73</ele>
        <time>2016-09-07T08:25:30Z</time>
      </trkpt>
      <trkpt lat="46.03832" lon="1.27032">
        <ele>372.17</ele>
        <time>2016-09-07T08:25:42Z</time>
      </trkpt>
      <trkpt lat="46.03811" lon="1.27016">
        <ele>374.57</ele>
        <time>2016-09-07T08:25:53Z</time>
      </trkpt>
      <trkpt lat="46.03794" lon="1.27004">
        <ele>377.45</ele>
        <time>2016-09-07T08:26:03Z</time>
      </trkpt>
      <trkpt lat="46.03792" lon="1.27004">
        <ele>377.45</ele>
        <time>2016-09-07T08:26:04Z</time>
      </trkpt>
      <trkpt lat="46.03791" lon="1.27002">
        <ele>377.94</ele>
        <time>2016-09-07T08:26:05Z</time>
      </trkpt>
      <trkpt lat="46.03789" lon="1.27001">
        <ele>377.94</ele>
        <time>2016-09-07T08:26:06Z</time>
      </trkpt>
      <trkpt lat="46.03787" lon="1.27">
        <ele>378.42</ele>
        <time>2016-09-07T08:26:07Z</time>
      </trkpt>
      <trkpt lat="46.03771" lon="1.26993">
        <ele>379.38</ele>
        <time>2016-09-07T08:26:16Z</time>
      </trkpt>
      <trkpt lat="46.03769" lon="1.26993">
        <ele>379.86</ele>
        <time>2016-09-07T08:26:17Z</time>
      </trkpt>
      <trkpt lat="46.03754" lon="1.2699">
        <ele>380.82</ele>
        <time>2016-09-07T08:26:25Z</time>
      </trkpt>
      <trkpt lat="46.03752" lon="1.26989">
        <ele>381.3</ele>
        <time>2016-09-07T08:26:26Z</time>
      </trkpt>
      <trkpt lat="46.03741" lon="1.26982">
        <ele>381.78</ele>
        <time>2016-09-07T08:26:31Z</time>
      </trkpt>
      <trkpt lat="46.03739" lon="1.26982">
        <ele>382.26</ele>
        <time>2016-09-07T08:26:32Z</time>
      </trkpt>
      <trkpt lat="46.03738" lon="1.26982">
        <ele>382.26</ele>
        <time>2016-09-07T08:26:33Z</time>
      </trkpt>
      <trkpt lat="46.03737" lon="1.26981">
        <ele>382.26</ele>
        <time>2016-09-07T08:26:34Z</time>
      </trkpt>
      <trkpt lat="46.03735" lon="1.2698">
        <ele>382.74</ele>
        <time>2016-09-07T08:26:35Z</time>
      </trkpt>
      <trkpt lat="46.03733" lon="1.26979">
        <ele>382.74</ele>
        <time>2016-09-07T08:26:36Z</time>
      </trkpt>
      <trkpt lat="46.03731" lon="1.26978">
        <ele>383.22</ele>
        <time>2016-09-07T08:26:37Z</time>
      </trkpt>
      <trkpt lat="46.0373" lon="1.26976">
        <ele>383.22</ele>
        <time>2016-09-07T08:26:38Z</time>
      </trkpt>
      <trkpt lat="46.03728" lon="1.26975">
        <ele>383.22</ele>
        <time>2016-09-07T08:26:39Z</time>
      </trkpt>
      <trkpt lat="46.03726" lon="1.26974">
        <ele>384.18</ele>
        <time>2016-09-07T08:26:40Z</time>
      </trkpt>
      <trkpt lat="46.03725" lon="1.26974">
        <ele>384.18</ele>
        <time>2016-09-07T08:26:41Z</time>
      </trkpt>
      <trkpt lat="46.03715" lon="1.26971">
        <ele>384.18</ele>
        <time>2016-09-07T08:26:46Z</time>
      </trkpt>
      <trkpt lat="46.0371" lon="1.26969">
        <ele>384.66</ele>
        <time>2016-09-07T08:26:49Z</time>
      </trkpt>
      <trkpt lat="46.03708" lon="1.26968">
        <ele>384.66</ele>
        <time>2016-09-07T08:26:50Z</time>
      </trkpt>
      <trkpt lat="46.03705" lon="1.26966">
        <ele>384.66</ele>
        <time>2016-09-07T08:26:51Z</time>
      </trkpt>
      <trkpt lat="46.03703" lon="1.26965">
        <ele>384.66</ele>
        <time>2016-09-07T08:26:52Z</time>
      </trkpt>
      <trkpt lat="46.03701" lon="1.26964">
        <ele>384.66</ele>
        <time>2016-09-07T08:26:53Z</time>
      </trkpt>
      <trkpt lat="46.03699" lon="1.26964">
        <ele>384.66</ele>
        <time>2016-09-07T08:26:54Z</time>
      </trkpt>
      <trkpt lat="46.03698" lon="1.26963">
        <ele>385.15</ele>
        <time>2016-09-07T08:26:55Z</time>
      </trkpt>
      <trkpt lat="46.03662" lon="1.26949">
        <ele>385.15</ele>
        <time>2016-09-07T08:27:07Z</time>
      </trkpt>
      <trkpt lat="46.03651" lon="1.26942">
        <ele>384.18</ele>
        <time>2016-09-07T08:27:11Z</time>
      </trkpt>
      <trkpt lat="46.03639" lon="1.26934">
        <ele>382.74</ele>
        <time>2016-09-07T08:27:14Z</time>
      </trkpt>
      <trkpt lat="46.03631" lon="1.26926">
        <ele>382.26</ele>
        <time>2016-09-07T08:27:16Z</time>
      </trkpt>
      <trkpt lat="46.03627" lon="1.26921">
        <ele>382.26</ele>
        <time>2016-09-07T08:27:17Z</time>
      </trkpt>
      <trkpt lat="46.03624" lon="1.26916">
        <ele>382.26</ele>
        <time>2016-09-07T08:27:18Z</time>
      </trkpt>
      <trkpt lat="46.03622" lon="1.26911">
        <ele>382.26</ele>
        <time>2016-09-07T08:27:19Z</time>
      </trkpt>
      <trkpt lat="46.0362" lon="1.26906">
        <ele>382.26</ele>
        <time>2016-09-07T08:27:20Z</time>
      </trkpt>
      <trkpt lat="46.0362" lon="1.26903">
        <ele>382.26</ele>
        <time>2016-09-07T08:27:21Z</time>
      </trkpt>
      <trkpt lat="46.03604" lon="1.26884">
        <ele>378.9</ele>
        <time>2016-09-07T08:27:26Z</time>
      </trkpt>
      <trkpt lat="46.03578" lon="1.26867">
        <ele>375.53</ele>
        <time>2016-09-07T08:27:33Z</time>
      </trkpt>
      <trkpt lat="46.0355" lon="1.26863">
        <ele>372.17</ele>
        <time>2016-09-07T08:27:39Z</time>
      </trkpt>
      <trkpt lat="46.03544" lon="1.26864">
        <ele>372.17</ele>
        <time>2016-09-07T08:27:40Z</time>
      </trkpt>
      <trkpt lat="46.03538" lon="1.26864">
        <ele>371.69</ele>
        <time>2016-09-07T08:27:41Z</time>
      </trkpt>
      <trkpt lat="46.0352" lon="1.26869">
        <ele>370.73</ele>
        <time>2016-09-07T08:27:45Z</time>
      </trkpt>
      <trkpt lat="46.03516" lon="1.26858">
        <ele>370.73</ele>
        <time>2016-09-07T08:27:49Z</time>
      </trkpt>
      <trkpt lat="46.03516" lon="1.26853">
        <ele>370.73</ele>
        <time>2016-09-07T08:27:50Z</time>
      </trkpt>
      <trkpt lat="46.03516" lon="1.26844">
        <ele>370.24</ele>
        <time>2016-09-07T08:27:52Z</time>
      </trkpt>
      <trkpt lat="46.03512" lon="1.26825">
        <ele>368.8</ele>
        <time>2016-09-07T08:27:55Z</time>
      </trkpt>
      <trkpt lat="46.03511" lon="1.26818">
        <ele>368.8</ele>
        <time>2016-09-07T08:27:56Z</time>
      </trkpt>
      <trkpt lat="46.03511" lon="1.26814">
        <ele>368.8</ele>
        <time>2016-09-07T08:27:57Z</time>
      </trkpt>
      <trkpt lat="46.03518" lon="1.26796">
        <ele>368.32</ele>
        <time>2016-09-07T08:28:01Z</time>
      </trkpt>
      <trkpt lat="46.03519" lon="1.26792">
        <ele>368.32</ele>
        <time>2016-09-07T08:28:02Z</time>
      </trkpt>
      <trkpt lat="46.0352" lon="1.26788">
        <ele>368.32</ele>
        <time>2016-09-07T08:28:03Z</time>
      </trkpt>
      <trkpt lat="46.03529" lon="1.26761">
        <ele>368.32</ele>
        <time>2016-09-07T08:28:08Z</time>
      </trkpt>
      <trkpt lat="46.03531" lon="1.26755">
        <ele>368.32</ele>
        <time>2016-09-07T08:28:09Z</time>
      </trkpt>
      <trkpt lat="46.03535" lon="1.26729">
        <ele>368.32</ele>
        <time>2016-09-07T08:28:13Z</time>
      </trkpt>
      <trkpt lat="46.03536" lon="1.26723">
        <ele>368.32</ele>
        <time>2016-09-07T08:28:14Z</time>
      </trkpt>
      <trkpt lat="46.03538" lon="1.26712">
        <ele>369.76</ele>
        <time>2016-09-07T08:28:16Z</time>
      </trkpt>
      <trkpt lat="46.03543" lon="1.26665">
        <ele>370.73</ele>
        <time>2016-09-07T08:28:25Z</time>
      </trkpt>
      <trkpt lat="46.03542" lon="1.26661">
        <ele>371.21</ele>
        <time>2016-09-07T08:28:26Z</time>
      </trkpt>
      <trkpt lat="46.0354" lon="1.26657">
        <ele>371.21</ele>
        <time>2016-09-07T08:28:27Z</time>
      </trkpt>
      <trkpt lat="46.03537" lon="1.26653">
        <ele>371.21</ele>
        <time>2016-09-07T08:28:28Z</time>
      </trkpt>
      <trkpt lat="46.03534" lon="1.2665">
        <ele>371.21</ele>
        <time>2016-09-07T08:28:29Z</time>
      </trkpt>
      <trkpt lat="46.03531" lon="1.26648">
        <ele>371.21</ele>
        <time>2016-09-07T08:28:30Z</time>
      </trkpt>
      <trkpt lat="46.03528" lon="1.26646">
        <ele>371.21</ele>
        <time>2016-09-07T08:28:31Z</time>
      </trkpt>
      <trkpt lat="46.03525" lon="1.26644">
        <ele>371.21</ele>
        <time>2016-09-07T08:28:32Z</time>
      </trkpt>
      <trkpt lat="46.03521" lon="1.26641">
        <ele>371.21</ele>
        <time>2016-09-07T08:28:33Z</time>
      </trkpt>
      <trkpt lat="46.03517" lon="1.26637">
        <ele>371.21</ele>
        <time>2016-09-07T08:28:34Z</time>
      </trkpt>
      <trkpt lat="46.03513" lon="1.26633">
        <ele>371.21</ele>
        <time>2016-09-07T08:28:35Z</time>
      </trkpt>
      <trkpt lat="46.03505" lon="1.26625">
        <ele>369.76</ele>
        <time>2016-09-07T08:28:37Z</time>
      </trkpt>
      <trkpt lat="46.03489" lon="1.26613">
        <ele>369.76</ele>
        <time>2016-09-07T08:28:41Z</time>
      </trkpt>
      <trkpt lat="46.03481" lon="1.26604">
        <ele>369.28</ele>
        <time>2016-09-07T08:28:43Z</time>
      </trkpt>
      <trkpt lat="46.03477" lon="1.26599">
        <ele>368.8</ele>
        <time>2016-09-07T08:28:44Z</time>
      </trkpt>
      <trkpt lat="46.03474" lon="1.26595">
        <ele>368.8</ele>
        <time>2016-09-07T08:28:45Z</time>
      </trkpt>
      <trkpt lat="46.0347" lon="1.26592">
        <ele>368.8</ele>
        <time>2016-09-07T08:28:46Z</time>
      </trkpt>
      <trkpt lat="46.03466" lon="1.2659">
        <ele>368.8</ele>
        <time>2016-09-07T08:28:54Z</time>
      </trkpt>
      <trkpt lat="46.03467" lon="1.26586">
        <ele>368.8</ele>
        <time>2016-09-07T08:29:09Z</time>
      </trkpt>
      <trkpt lat="46.03465" lon="1.26585">
        <ele>368.8</ele>
        <time>2016-09-07T08:29:19Z</time>
      </trkpt>
      <trkpt lat="46.03462" lon="1.26583">
        <ele>368.8</ele>
        <time>2016-09-07T08:29:22Z</time>
      </trkpt>
      <trkpt lat="46.03461" lon="1.26581">
        <ele>368.8</ele>
        <time>2016-09-07T08:29:23Z</time>
      </trkpt>
      <trkpt lat="46.03459" lon="1.2658">
        <ele>368.8</ele>
        <time>2016-09-07T08:29:24Z</time>
      </trkpt>
      <trkpt lat="46.03441" lon="1.26582">
        <ele>368.8</ele>
        <time>2016-09-07T08:29:31Z</time>
      </trkpt>
      <trkpt lat="46.03439" lon="1.26585">
        <ele>368.8</ele>
        <time>2016-09-07T08:29:32Z</time>
      </trkpt>
      <trkpt lat="46.03438" lon="1.26587">
        <ele>368.8</ele>
        <time>2016-09-07T08:29:33Z</time>
      </trkpt>
      <trkpt lat="46.03437" lon="1.2659">
        <ele>368.8</ele>
        <time>2016-09-07T08:29:34Z</time>
      </trkpt>
      <trkpt lat="46.03436" lon="1.26593">
        <ele>368.8</ele>
        <time>2016-09-07T08:29:35Z</time>
      </trkpt>
      <trkpt lat="46.03435" lon="1.26595">
        <ele>368.8</ele>
        <time>2016-09-07T08:29:36Z</time>
      </trkpt>
      <trkpt lat="46.03434" lon="1.26597">
        <ele>370.24</ele>
        <time>2016-09-07T08:29:37Z</time>
      </trkpt>
      <trkpt lat="46.03408" lon="1.26608">
        <ele>370.73</ele>
        <time>2016-09-07T08:29:48Z</time>
      </trkpt>
      <trkpt lat="46.0339" lon="1.26637">
        <ele>370.73</ele>
        <time>2016-09-07T08:29:57Z</time>
      </trkpt>
      <trkpt lat="46.0338" lon="1.26687">
        <ele>371.21</ele>
        <time>2016-09-07T08:30:08Z</time>
      </trkpt>
      <trkpt lat="46.03373" lon="1.26712">
        <ele>371.69</ele>
        <time>2016-09-07T08:30:14Z</time>
      </trkpt>
      <trkpt lat="46.03372" lon="1.26715">
        <ele>371.69</ele>
        <time>2016-09-07T08:30:15Z</time>
      </trkpt>
      <trkpt lat="46.03371" lon="1.26719">
        <ele>371.69</ele>
        <time>2016-09-07T08:30:16Z</time>
      </trkpt>
      <trkpt lat="46.0337" lon="1.26723">
        <ele>371.69</ele>
        <time>2016-09-07T08:30:17Z</time>
      </trkpt>
      <trkpt lat="46.03369" lon="1.26727">
        <ele>372.17</ele>
        <time>2016-09-07T08:30:18Z</time>
      </trkpt>
      <trkpt lat="46.03369" lon="1.26731">
        <ele>372.17</ele>
        <time>2016-09-07T08:30:19Z</time>
      </trkpt>
      <trkpt lat="46.0336" lon="1.26769">
        <ele>374.09</ele>
        <time>2016-09-07T08:30:30Z</time>
      </trkpt>
      <trkpt lat="46.03342" lon="1.26809">
        <ele>375.05</ele>
        <time>2016-09-07T08:30:44Z</time>
      </trkpt>
      <trkpt lat="46.03341" lon="1.2681">
        <ele>375.05</ele>
        <time>2016-09-07T08:30:45Z</time>
      </trkpt>
      <trkpt lat="46.03339" lon="1.26811">
        <ele>375.05</ele>
        <time>2016-09-07T08:30:46Z</time>
      </trkpt>
      <trkpt lat="46.03338" lon="1.26813">
        <ele>375.53</ele>
        <time>2016-09-07T08:30:47Z</time>
      </trkpt>
      <trkpt lat="46.03337" lon="1.26814">
        <ele>375.53</ele>
        <time>2016-09-07T08:30:48Z</time>
      </trkpt>
      <trkpt lat="46.03335" lon="1.26816">
        <ele>375.53</ele>
        <time>2016-09-07T08:30:49Z</time>
      </trkpt>
      <trkpt lat="46.03305" lon="1.26839">
        <ele>377.45</ele>
        <time>2016-09-07T08:31:02Z</time>
      </trkpt>
      <trkpt lat="46.03298" lon="1.26842">
        <ele>376.97</ele>
        <time>2016-09-07T08:31:05Z</time>
      </trkpt>
      <trkpt lat="46.03272" lon="1.26844">
        <ele>379.86</ele>
        <time>2016-09-07T08:31:18Z</time>
      </trkpt>
      <trkpt lat="46.0324" lon="1.2686">
        <ele>382.26</ele>
        <time>2016-09-07T08:31:33Z</time>
      </trkpt>
      <trkpt lat="46.03213" lon="1.26877">
        <ele>385.15</ele>
        <time>2016-09-07T08:31:47Z</time>
      </trkpt>
      <trkpt lat="46.03195" lon="1.26888">
        <ele>387.07</ele>
        <time>2016-09-07T08:32:01Z</time>
      </trkpt>
      <trkpt lat="46.03179" lon="1.26893">
        <ele>389.95</ele>
        <time>2016-09-07T08:32:14Z</time>
      </trkpt>
      <trkpt lat="46.03159" lon="1.26884">
        <ele>391.87</ele>
        <time>2016-09-07T08:32:27Z</time>
      </trkpt>
      <trkpt lat="46.03146" lon="1.26876">
        <ele>392.36</ele>
        <time>2016-09-07T08:32:35Z</time>
      </trkpt>
      <trkpt lat="46.03146" lon="1.26874">
        <ele>392.36</ele>
        <time>2016-09-07T08:32:36Z</time>
      </trkpt>
      <trkpt lat="46.03146" lon="1.26871">
        <ele>392.84</ele>
        <time>2016-09-07T08:32:37Z</time>
      </trkpt>
      <trkpt lat="46.03148" lon="1.26827">
        <ele>394.76</ele>
        <time>2016-09-07T08:32:53Z</time>
      </trkpt>
      <trkpt lat="46.03144" lon="1.26779">
        <ele>395.72</ele>
        <time>2016-09-07T08:33:09Z</time>
      </trkpt>
      <trkpt lat="46.03139" lon="1.26741">
        <ele>397.16</ele>
        <time>2016-09-07T08:33:20Z</time>
      </trkpt>
      <trkpt lat="46.03139" lon="1.26738">
        <ele>397.64</ele>
        <time>2016-09-07T08:33:21Z</time>
      </trkpt>
      <trkpt lat="46.03139" lon="1.26735">
        <ele>397.64</ele>
        <time>2016-09-07T08:33:22Z</time>
      </trkpt>
      <trkpt lat="46.03143" lon="1.26703">
        <ele>399.08</ele>
        <time>2016-09-07T08:33:34Z</time>
      </trkpt>
      <trkpt lat="46.03148" lon="1.2668">
        <ele>400.05</ele>
        <time>2016-09-07T08:33:43Z</time>
      </trkpt>
      <trkpt lat="46.03152" lon="1.26664">
        <ele>401.01</ele>
        <time>2016-09-07T08:33:56Z</time>
      </trkpt>
      <trkpt lat="46.03151" lon="1.26662">
        <ele>401.49</ele>
        <time>2016-09-07T08:34:17Z</time>
      </trkpt>
      <trkpt lat="46.0315" lon="1.26663">
        <ele>401.49</ele>
        <time>2016-09-07T08:34:44Z</time>
      </trkpt>
      <trkpt lat="46.03153" lon="1.26666">
        <ele>401.49</ele>
        <time>2016-09-07T08:35:27Z</time>
      </trkpt>
      <trkpt lat="46.03153" lon="1.26663">
        <ele>401.49</ele>
        <time>2016-09-07T08:36:01Z</time>
      </trkpt>
      <trkpt lat="46.03153" lon="1.26661">
        <ele>401.49</ele>
        <time>2016-09-07T08:36:35Z</time>
      </trkpt>
      <trkpt lat="46.03153" lon="1.26653">
        <ele>401.49</ele>
        <time>2016-09-07T08:36:48Z</time>
      </trkpt>
      <trkpt lat="46.03155" lon="1.2662">
        <ele>402.45</ele>
        <time>2016-09-07T08:37:00Z</time>
      </trkpt>
      <trkpt lat="46.03152" lon="1.26594">
        <ele>403.41</ele>
        <time>2016-09-07T08:37:07Z</time>
      </trkpt>
      <trkpt lat="46.03151" lon="1.26591">
        <ele>403.41</ele>
        <time>2016-09-07T08:37:08Z</time>
      </trkpt>
      <trkpt lat="46.03135" lon="1.2654">
        <ele>403.89</ele>
        <time>2016-09-07T08:37:22Z</time>
      </trkpt>
      <trkpt lat="46.03104" lon="1.26501">
        <ele>404.85</ele>
        <time>2016-09-07T08:37:35Z</time>
      </trkpt>
      <trkpt lat="46.03073" lon="1.26468">
        <ele>405.81</ele>
        <time>2016-09-07T08:37:48Z</time>
      </trkpt>
      <trkpt lat="46.03065" lon="1.26459">
        <ele>404.85</ele>
        <time>2016-09-07T08:37:50Z</time>
      </trkpt>
      <trkpt lat="46.03042" lon="1.26426">
        <ele>403.89</ele>
        <time>2016-09-07T08:37:57Z</time>
      </trkpt>
      <trkpt lat="46.0304" lon="1.26422">
        <ele>403.41</ele>
        <time>2016-09-07T08:37:58Z</time>
      </trkpt>
      <trkpt lat="46.03039" lon="1.26417">
        <ele>403.41</ele>
        <time>2016-09-07T08:37:59Z</time>
      </trkpt>
      <trkpt lat="46.03037" lon="1.26412">
        <ele>403.41</ele>
        <time>2016-09-07T08:38:00Z</time>
      </trkpt>
      <trkpt lat="46.03037" lon="1.26406">
        <ele>403.41</ele>
        <time>2016-09-07T08:38:01Z</time>
      </trkpt>
      <trkpt lat="46.03037" lon="1.264">
        <ele>403.41</ele>
        <time>2016-09-07T08:38:02Z</time>
      </trkpt>
      <trkpt lat="46.03038" lon="1.26396">
        <ele>403.41</ele>
        <time>2016-09-07T08:38:03Z</time>
      </trkpt>
      <trkpt lat="46.03039" lon="1.26391">
        <ele>403.41</ele>
        <time>2016-09-07T08:38:04Z</time>
      </trkpt>
      <trkpt lat="46.0304" lon="1.26387">
        <ele>403.89</ele>
        <time>2016-09-07T08:38:05Z</time>
      </trkpt>
      <trkpt lat="46.03043" lon="1.26374">
        <ele>403.89</ele>
        <time>2016-09-07T08:38:09Z</time>
      </trkpt>
      <trkpt lat="46.03036" lon="1.26357">
        <ele>404.85</ele>
        <time>2016-09-07T08:38:15Z</time>
      </trkpt>
      <trkpt lat="46.03022" lon="1.26336">
        <ele>407.26</ele>
        <time>2016-09-07T08:38:26Z</time>
      </trkpt>
      <trkpt lat="46.0301" lon="1.2632">
        <ele>408.7</ele>
        <time>2016-09-07T08:38:35Z</time>
      </trkpt>
      <trkpt lat="46.03005" lon="1.26315">
        <ele>409.18</ele>
        <time>2016-09-07T08:38:40Z</time>
      </trkpt>
      <trkpt lat="46.02998" lon="1.26306">
        <ele>411.58</ele>
        <time>2016-09-07T08:38:47Z</time>
      </trkpt>
      <trkpt lat="46.02966" lon="1.26301">
        <ele>411.58</ele>
        <time>2016-09-07T08:39:02Z</time>
      </trkpt>
      <trkpt lat="46.02935" lon="1.26307">
        <ele>411.58</ele>
        <time>2016-09-07T08:39:15Z</time>
      </trkpt>
      <trkpt lat="46.02909" lon="1.26313">
        <ele>412.06</ele>
        <time>2016-09-07T08:39:26Z</time>
      </trkpt>
      <trkpt lat="46.02907" lon="1.26311">
        <ele>412.06</ele>
        <time>2016-09-07T08:39:27Z</time>
      </trkpt>
      <trkpt lat="46.02886" lon="1.26303">
        <ele>413.02</ele>
        <time>2016-09-07T08:39:38Z</time>
      </trkpt>
      <trkpt lat="46.02866" lon="1.26281">
        <ele>415.43</ele>
        <time>2016-09-07T08:39:49Z</time>
      </trkpt>
      <trkpt lat="46.02865" lon="1.26278">
        <ele>415.43</ele>
        <time>2016-09-07T08:39:50Z</time>
      </trkpt>
      <trkpt lat="46.02863" lon="1.26276">
        <ele>415.43</ele>
        <time>2016-09-07T08:39:51Z</time>
      </trkpt>
      <trkpt lat="46.02862" lon="1.26274">
        <ele>415.91</ele>
        <time>2016-09-07T08:39:52Z</time>
      </trkpt>
      <trkpt lat="46.0286" lon="1.26272">
        <ele>415.91</ele>
        <time>2016-09-07T08:39:53Z</time>
      </trkpt>
      <trkpt lat="46.02837" lon="1.26244">
        <ele>416.87</ele>
        <time>2016-09-07T08:40:05Z</time>
      </trkpt>
      <trkpt lat="46.02817" lon="1.26217">
        <ele>418.79</ele>
        <time>2016-09-07T08:40:17Z</time>
      </trkpt>
      <trkpt lat="46.02789" lon="1.26187">
        <ele>420.23</ele>
        <time>2016-09-07T08:40:30Z</time>
      </trkpt>
      <trkpt lat="46.02776" lon="1.26168">
        <ele>420.23</ele>
        <time>2016-09-07T08:40:37Z</time>
      </trkpt>
      <trkpt lat="46.02738" lon="1.26146">
        <ele>420.71</ele>
        <time>2016-09-07T08:40:51Z</time>
      </trkpt>
      <trkpt lat="46.02705" lon="1.26126">
        <ele>422.16</ele>
        <time>2016-09-07T08:41:04Z</time>
      </trkpt>
      <trkpt lat="46.02688" lon="1.26104">
        <ele>422.16</ele>
        <time>2016-09-07T08:41:12Z</time>
      </trkpt>
      <trkpt lat="46.02678" lon="1.26092">
        <ele>422.16</ele>
        <time>2016-09-07T08:41:17Z</time>
      </trkpt>
      <trkpt lat="46.02652" lon="1.26051">
        <ele>422.64</ele>
        <time>2016-09-07T08:41:30Z</time>
      </trkpt>
      <trkpt lat="46.02628" lon="1.26003">
        <ele>422.64</ele>
        <time>2016-09-07T08:41:41Z</time>
      </trkpt>
      <trkpt lat="46.02597" lon="1.25962">
        <ele>426</ele>
        <time>2016-09-07T08:41:53Z</time>
      </trkpt>
      <trkpt lat="46.02572" lon="1.25931">
        <ele>427.44</ele>
        <time>2016-09-07T08:42:05Z</time>
      </trkpt>
      <trkpt lat="46.02536" lon="1.25892">
        <ele>427.44</ele>
        <time>2016-09-07T08:42:18Z</time>
      </trkpt>
      <trkpt lat="46.0253" lon="1.25875">
        <ele>426</ele>
        <time>2016-09-07T08:42:22Z</time>
      </trkpt>
      <trkpt lat="46.02527" lon="1.25861">
        <ele>426</ele>
        <time>2016-09-07T08:42:26Z</time>
      </trkpt>
      <trkpt lat="46.02528" lon="1.25844">
        <ele>427.44</ele>
        <time>2016-09-07T08:42:31Z</time>
      </trkpt>
      <trkpt lat="46.02529" lon="1.2583">
        <ele>428.89</ele>
        <time>2016-09-07T08:42:35Z</time>
      </trkpt>
      <trkpt lat="46.02529" lon="1.25827">
        <ele>428.89</ele>
        <time>2016-09-07T08:42:36Z</time>
      </trkpt>
      <trkpt lat="46.0253" lon="1.25824">
        <ele>428.89</ele>
        <time>2016-09-07T08:42:37Z</time>
      </trkpt>
      <trkpt lat="46.02531" lon="1.25821">
        <ele>429.37</ele>
        <time>2016-09-07T08:42:38Z</time>
      </trkpt>
      <trkpt lat="46.02532" lon="1.25817">
        <ele>429.37</ele>
        <time>2016-09-07T08:42:39Z</time>
      </trkpt>
      <trkpt lat="46.02532" lon="1.25814">
        <ele>429.85</ele>
        <time>2016-09-07T08:42:40Z</time>
      </trkpt>
      <trkpt lat="46.02533" lon="1.25811">
        <ele>429.85</ele>
        <time>2016-09-07T08:42:41Z</time>
      </trkpt>
      <trkpt lat="46.02533" lon="1.25808">
        <ele>430.33</ele>
        <time>2016-09-07T08:42:42Z</time>
      </trkpt>
      <trkpt lat="46.02538" lon="1.25776">
        <ele>430.81</ele>
        <time>2016-09-07T08:42:52Z</time>
      </trkpt>
      <trkpt lat="46.02537" lon="1.25773">
        <ele>430.81</ele>
        <time>2016-09-07T08:42:53Z</time>
      </trkpt>
      <trkpt lat="46.02536" lon="1.2577">
        <ele>430.81</ele>
        <time>2016-09-07T08:42:54Z</time>
      </trkpt>
      <trkpt lat="46.02534" lon="1.25769">
        <ele>430.81</ele>
        <time>2016-09-07T08:42:55Z</time>
      </trkpt>
      <trkpt lat="46.02532" lon="1.25768">
        <ele>430.81</ele>
        <time>2016-09-07T08:42:56Z</time>
      </trkpt>
      <trkpt lat="46.0253" lon="1.25768">
        <ele>430.81</ele>
        <time>2016-09-07T08:42:57Z</time>
      </trkpt>
      <trkpt lat="46.02529" lon="1.25767">
        <ele>430.81</ele>
        <time>2016-09-07T08:42:58Z</time>
      </trkpt>
      <trkpt lat="46.02488" lon="1.2575">
        <ele>431.29</ele>
        <time>2016-09-07T08:43:13Z</time>
      </trkpt>
      <trkpt lat="46.02454" lon="1.25748">
        <ele>431.77</ele>
        <time>2016-09-07T08:43:26Z</time>
      </trkpt>
      <trkpt lat="46.02411" lon="1.25738">
        <ele>431.77</ele>
        <time>2016-09-07T08:43:39Z</time>
      </trkpt>
      <trkpt lat="46.02363" lon="1.25694">
        <ele>431.77</ele>
        <time>2016-09-07T08:43:53Z</time>
      </trkpt>
      <trkpt lat="46.02345" lon="1.25674">
        <ele>431.77</ele>
        <time>2016-09-07T08:43:58Z</time>
      </trkpt>
      <trkpt lat="46.02335" lon="1.25661">
        <ele>430.33</ele>
        <time>2016-09-07T08:44:01Z</time>
      </trkpt>
      <trkpt lat="46.02319" lon="1.25648">
        <ele>429.85</ele>
        <time>2016-09-07T08:44:05Z</time>
      </trkpt>
      <trkpt lat="46.02278" lon="1.25625">
        <ele>429.37</ele>
        <time>2016-09-07T08:44:15Z</time>
      </trkpt>
      <trkpt lat="46.02266" lon="1.25616">
        <ele>428.89</ele>
        <time>2016-09-07T08:44:18Z</time>
      </trkpt>
      <trkpt lat="46.02261" lon="1.25613">
        <ele>428.89</ele>
        <time>2016-09-07T08:44:19Z</time>
      </trkpt>
      <trkpt lat="46.02249" lon="1.25602">
        <ele>428.89</ele>
        <time>2016-09-07T08:44:22Z</time>
      </trkpt>
      <trkpt lat="46.02246" lon="1.25598">
        <ele>428.89</ele>
        <time>2016-09-07T08:44:23Z</time>
      </trkpt>
      <trkpt lat="46.02217" lon="1.25579">
        <ele>427.92</ele>
        <time>2016-09-07T08:44:31Z</time>
      </trkpt>
      <trkpt lat="46.02211" lon="1.2558">
        <ele>427.92</ele>
        <time>2016-09-07T08:44:32Z</time>
      </trkpt>
      <trkpt lat="46.02206" lon="1.25583">
        <ele>427.44</ele>
        <time>2016-09-07T08:44:33Z</time>
      </trkpt>
      <trkpt lat="46.0218" lon="1.25603">
        <ele>426.96</ele>
        <time>2016-09-07T08:44:39Z</time>
      </trkpt>
      <trkpt lat="46.02172" lon="1.2561">
        <ele>426.48</ele>
        <time>2016-09-07T08:44:41Z</time>
      </trkpt>
      <trkpt lat="46.02167" lon="1.25612">
        <ele>426.48</ele>
        <time>2016-09-07T08:44:42Z</time>
      </trkpt>
      <trkpt lat="46.02145" lon="1.25624">
        <ele>425.04</ele>
        <time>2016-09-07T08:44:47Z</time>
      </trkpt>
      <trkpt lat="46.021" lon="1.25644">
        <ele>423.12</ele>
        <time>2016-09-07T08:44:56Z</time>
      </trkpt>
      <trkpt lat="46.02096" lon="1.25648">
        <ele>422.64</ele>
        <time>2016-09-07T08:44:57Z</time>
      </trkpt>
      <trkpt lat="46.02092" lon="1.25652">
        <ele>421.68</ele>
        <time>2016-09-07T08:44:58Z</time>
      </trkpt>
      <trkpt lat="46.0209" lon="1.25656">
        <ele>421.19</ele>
        <time>2016-09-07T08:44:59Z</time>
      </trkpt>
      <trkpt lat="46.02088" lon="1.25662">
        <ele>421.19</ele>
        <time>2016-09-07T08:45:00Z</time>
      </trkpt>
      <trkpt lat="46.02083" lon="1.25689">
        <ele>419.75</ele>
        <time>2016-09-07T08:45:05Z</time>
      </trkpt>
      <trkpt lat="46.0209" lon="1.25731">
        <ele>416.87</ele>
        <time>2016-09-07T08:45:15Z</time>
      </trkpt>
      <trkpt lat="46.02109" lon="1.25755">
        <ele>413.5</ele>
        <time>2016-09-07T08:45:24Z</time>
      </trkpt>
      <trkpt lat="46.02105" lon="1.25753">
        <ele>413.5</ele>
        <time>2016-09-07T08:45:36Z</time>
      </trkpt>
      <trkpt lat="46.02103" lon="1.25752">
        <ele>412.54</ele>
        <time>2016-09-07T08:45:50Z</time>
      </trkpt>
      <trkpt lat="46.02108" lon="1.25751">
        <ele>412.54</ele>
        <time>2016-09-07T08:46:24Z</time>
      </trkpt>
      <trkpt lat="46.02111" lon="1.25754">
        <ele>412.54</ele>
        <time>2016-09-07T08:47:02Z</time>
      </trkpt>
      <trkpt lat="46.02107" lon="1.25752">
        <ele>412.06</ele>
        <time>2016-09-07T08:47:31Z</time>
      </trkpt>
      <trkpt lat="46.02106" lon="1.25751">
        <ele>412.06</ele>
        <time>2016-09-07T08:48:01Z</time>
      </trkpt>
      <trkpt lat="46.02106" lon="1.25753">
        <ele>412.06</ele>
        <time>2016-09-07T08:48:21Z</time>
      </trkpt>
      <trkpt lat="46.02106" lon="1.25754">
        <ele>412.06</ele>
        <time>2016-09-07T08:48:22Z</time>
      </trkpt>
      <trkpt lat="46.02104" lon="1.25757">
        <ele>412.06</ele>
        <time>2016-09-07T08:48:26Z</time>
      </trkpt>
      <trkpt lat="46.02102" lon="1.25758">
        <ele>412.06</ele>
        <time>2016-09-07T08:48:27Z</time>
      </trkpt>
      <trkpt lat="46.02082" lon="1.25765">
        <ele>411.1</ele>
        <time>2016-09-07T08:48:33Z</time>
      </trkpt>
      <trkpt lat="46.02078" lon="1.25765">
        <ele>411.1</ele>
        <time>2016-09-07T08:48:34Z</time>
      </trkpt>
      <trkpt lat="46.02073" lon="1.25765">
        <ele>411.1</ele>
        <time>2016-09-07T08:48:35Z</time>
      </trkpt>
      <trkpt lat="46.02037" lon="1.2575">
        <ele>410.14</ele>
        <time>2016-09-07T08:48:43Z</time>
      </trkpt>
      <trkpt lat="46.01982" lon="1.25715">
        <ele>407.74</ele>
        <time>2016-09-07T08:48:54Z</time>
      </trkpt>
      <trkpt lat="46.01929" lon="1.25716">
        <ele>404.37</ele>
        <time>2016-09-07T08:49:03Z</time>
      </trkpt>
      <trkpt lat="46.01893" lon="1.25716">
        <ele>401.49</ele>
        <time>2016-09-07T08:49:10Z</time>
      </trkpt>
      <trkpt lat="46.01891" lon="1.25711">
        <ele>401.01</ele>
        <time>2016-09-07T08:49:11Z</time>
      </trkpt>
      <trkpt lat="46.0189" lon="1.25703">
        <ele>401.01</ele>
        <time>2016-09-07T08:49:12Z</time>
      </trkpt>
      <trkpt lat="46.01891" lon="1.25698">
        <ele>401.01</ele>
        <time>2016-09-07T08:49:13Z</time>
      </trkpt>
      <trkpt lat="46.01892" lon="1.25691">
        <ele>401.01</ele>
        <time>2016-09-07T08:49:14Z</time>
      </trkpt>
      <trkpt lat="46.01893" lon="1.25684">
        <ele>400.53</ele>
        <time>2016-09-07T08:49:15Z</time>
      </trkpt>
      <trkpt lat="46.01905" lon="1.25614">
        <ele>399.08</ele>
        <time>2016-09-07T08:49:24Z</time>
      </trkpt>
      <trkpt lat="46.01904" lon="1.25587">
        <ele>397.64</ele>
        <time>2016-09-07T08:49:27Z</time>
      </trkpt>
      <trkpt lat="46.01905" lon="1.25577">
        <ele>397.64</ele>
        <time>2016-09-07T08:49:28Z</time>
      </trkpt>
      <trkpt lat="46.01907" lon="1.25568">
        <ele>397.16</ele>
        <time>2016-09-07T08:49:29Z</time>
      </trkpt>
      <trkpt lat="46.01912" lon="1.25529">
        <ele>396.68</ele>
        <time>2016-09-07T08:49:33Z</time>
      </trkpt>
      <trkpt lat="46.01912" lon="1.25522">
        <ele>396.68</ele>
        <time>2016-09-07T08:49:34Z</time>
      </trkpt>
      <trkpt lat="46.0191" lon="1.25515">
        <ele>396.2</ele>
        <time>2016-09-07T08:49:35Z</time>
      </trkpt>
      <trkpt lat="46.01908" lon="1.2551">
        <ele>395.72</ele>
        <time>2016-09-07T08:49:36Z</time>
      </trkpt>
      <trkpt lat="46.01904" lon="1.25506">
        <ele>395.24</ele>
        <time>2016-09-07T08:49:37Z</time>
      </trkpt>
      <trkpt lat="46.019" lon="1.25501">
        <ele>394.76</ele>
        <time>2016-09-07T08:49:38Z</time>
      </trkpt>
      <trkpt lat="46.01895" lon="1.25497">
        <ele>394.28</ele>
        <time>2016-09-07T08:49:39Z</time>
      </trkpt>
      <trkpt lat="46.0189" lon="1.25493">
        <ele>394.28</ele>
        <time>2016-09-07T08:49:40Z</time>
      </trkpt>
      <trkpt lat="46.01885" lon="1.25491">
        <ele>393.32</ele>
        <time>2016-09-07T08:49:41Z</time>
      </trkpt>
      <trkpt lat="46.01869" lon="1.25482">
        <ele>391.87</ele>
        <time>2016-09-07T08:49:44Z</time>
      </trkpt>
      <trkpt lat="46.01864" lon="1.25478">
        <ele>391.87</ele>
        <time>2016-09-07T08:49:45Z</time>
      </trkpt>
      <trkpt lat="46.01811" lon="1.25429">
        <ele>390.91</ele>
        <time>2016-09-07T08:49:57Z</time>
      </trkpt>
      <trkpt lat="46.01809" lon="1.25423">
        <ele>390.91</ele>
        <time>2016-09-07T08:49:58Z</time>
      </trkpt>
      <trkpt lat="46.01809" lon="1.25418">
        <ele>390.43</ele>
        <time>2016-09-07T08:49:59Z</time>
      </trkpt>
      <trkpt lat="46.01811" lon="1.25399">
        <ele>389.95</ele>
        <time>2016-09-07T08:50:02Z</time>
      </trkpt>
      <trkpt lat="46.01812" lon="1.25385">
        <ele>389.47</ele>
        <time>2016-09-07T08:50:04Z</time>
      </trkpt>
      <trkpt lat="46.01793" lon="1.25359">
        <ele>389.47</ele>
        <time>2016-09-07T08:50:11Z</time>
      </trkpt>
      <trkpt lat="46.01774" lon="1.25356">
        <ele>388.99</ele>
        <time>2016-09-07T08:50:15Z</time>
      </trkpt>
      <trkpt lat="46.01711" lon="1.25376">
        <ele>386.11</ele>
        <time>2016-09-07T08:50:28Z</time>
      </trkpt>
      <trkpt lat="46.01677" lon="1.25376">
        <ele>383.22</ele>
        <time>2016-09-07T08:50:38Z</time>
      </trkpt>
      <trkpt lat="46.01653" lon="1.25355">
        <ele>381.3</ele>
        <time>2016-09-07T08:50:45Z</time>
      </trkpt>
      <trkpt lat="46.01623" lon="1.25319">
        <ele>379.38</ele>
        <time>2016-09-07T08:50:55Z</time>
      </trkpt>
      <trkpt lat="46.01598" lon="1.2527">
        <ele>377.45</ele>
        <time>2016-09-07T08:51:05Z</time>
      </trkpt>
      <trkpt lat="46.01596" lon="1.25258">
        <ele>376.01</ele>
        <time>2016-09-07T08:51:07Z</time>
      </trkpt>
      <trkpt lat="46.01594" lon="1.25239">
        <ele>375.05</ele>
        <time>2016-09-07T08:51:10Z</time>
      </trkpt>
      <trkpt lat="46.01593" lon="1.25218">
        <ele>374.57</ele>
        <time>2016-09-07T08:51:13Z</time>
      </trkpt>
      <trkpt lat="46.01594" lon="1.25211">
        <ele>374.09</ele>
        <time>2016-09-07T08:51:14Z</time>
      </trkpt>
      <trkpt lat="46.01597" lon="1.2519">
        <ele>373.61</ele>
        <time>2016-09-07T08:51:17Z</time>
      </trkpt>
      <trkpt lat="46.01598" lon="1.25184">
        <ele>373.61</ele>
        <time>2016-09-07T08:51:18Z</time>
      </trkpt>
      <trkpt lat="46.01599" lon="1.25179">
        <ele>373.61</ele>
        <time>2016-09-07T08:51:19Z</time>
      </trkpt>
      <trkpt lat="46.016" lon="1.25173">
        <ele>373.61</ele>
        <time>2016-09-07T08:51:20Z</time>
      </trkpt>
      <trkpt lat="46.016" lon="1.25167">
        <ele>373.13</ele>
        <time>2016-09-07T08:51:21Z</time>
      </trkpt>
      <trkpt lat="46.016" lon="1.25161">
        <ele>373.13</ele>
        <time>2016-09-07T08:51:22Z</time>
      </trkpt>
      <trkpt lat="46.01601" lon="1.25154">
        <ele>373.13</ele>
        <time>2016-09-07T08:51:23Z</time>
      </trkpt>
      <trkpt lat="46.01601" lon="1.25147">
        <ele>373.13</ele>
        <time>2016-09-07T08:51:24Z</time>
      </trkpt>
      <trkpt lat="46.01601" lon="1.25141">
        <ele>373.13</ele>
        <time>2016-09-07T08:51:25Z</time>
      </trkpt>
      <trkpt lat="46.016" lon="1.25135">
        <ele>373.13</ele>
        <time>2016-09-07T08:51:26Z</time>
      </trkpt>
      <trkpt lat="46.016" lon="1.2513">
        <ele>373.13</ele>
        <time>2016-09-07T08:51:27Z</time>
      </trkpt>
      <trkpt lat="46.01599" lon="1.25125">
        <ele>373.13</ele>
        <time>2016-09-07T08:51:28Z</time>
      </trkpt>
      <trkpt lat="46.01598" lon="1.25118">
        <ele>373.13</ele>
        <time>2016-09-07T08:51:29Z</time>
      </trkpt>
      <trkpt lat="46.01596" lon="1.25112">
        <ele>373.13</ele>
        <time>2016-09-07T08:51:30Z</time>
      </trkpt>
      <trkpt lat="46.01594" lon="1.25107">
        <ele>373.13</ele>
        <time>2016-09-07T08:51:31Z</time>
      </trkpt>
      <trkpt lat="46.0159" lon="1.25086">
        <ele>373.13</ele>
        <time>2016-09-07T08:51:35Z</time>
      </trkpt>
      <trkpt lat="46.0159" lon="1.25081">
        <ele>373.13</ele>
        <time>2016-09-07T08:51:36Z</time>
      </trkpt>
      <trkpt lat="46.01584" lon="1.2506">
        <ele>373.13</ele>
        <time>2016-09-07T08:51:40Z</time>
      </trkpt>
      <trkpt lat="46.0158" lon="1.25057">
        <ele>373.13</ele>
        <time>2016-09-07T08:51:41Z</time>
      </trkpt>
      <trkpt lat="46.01575" lon="1.25056">
        <ele>373.13</ele>
        <time>2016-09-07T08:51:42Z</time>
      </trkpt>
      <trkpt lat="46.01559" lon="1.25059">
        <ele>374.09</ele>
        <time>2016-09-07T08:51:46Z</time>
      </trkpt>
      <trkpt lat="46.01527" lon="1.25057">
        <ele>374.57</ele>
        <time>2016-09-07T08:51:55Z</time>
      </trkpt>
      <trkpt lat="46.0149" lon="1.25032">
        <ele>376.49</ele>
        <time>2016-09-07T08:52:06Z</time>
      </trkpt>
      <trkpt lat="46.01449" lon="1.25009">
        <ele>377.94</ele>
        <time>2016-09-07T08:52:19Z</time>
      </trkpt>
      <trkpt lat="46.01413" lon="1.24979">
        <ele>380.82</ele>
        <time>2016-09-07T08:52:34Z</time>
      </trkpt>
      <trkpt lat="46.01388" lon="1.24946">
        <ele>381.3</ele>
        <time>2016-09-07T08:52:48Z</time>
      </trkpt>
      <trkpt lat="46.01379" lon="1.24939">
        <ele>379.86</ele>
        <time>2016-09-07T08:52:52Z</time>
      </trkpt>
      <trkpt lat="46.01333" lon="1.24912">
        <ele>377.94</ele>
        <time>2016-09-07T08:53:07Z</time>
      </trkpt>
      <trkpt lat="46.01316" lon="1.24901">
        <ele>377.45</ele>
        <time>2016-09-07T08:53:14Z</time>
      </trkpt>
      <trkpt lat="46.01316" lon="1.24887">
        <ele>376.49</ele>
        <time>2016-09-07T08:53:18Z</time>
      </trkpt>
      <trkpt lat="46.01322" lon="1.24858">
        <ele>373.13</ele>
        <time>2016-09-07T08:53:26Z</time>
      </trkpt>
      <trkpt lat="46.01332" lon="1.24804">
        <ele>370.24</ele>
        <time>2016-09-07T08:53:36Z</time>
      </trkpt>
      <trkpt lat="46.01336" lon="1.24792">
        <ele>370.24</ele>
        <time>2016-09-07T08:53:38Z</time>
      </trkpt>
      <trkpt lat="46.01337" lon="1.24727">
        <ele>369.28</ele>
        <time>2016-09-07T08:53:50Z</time>
      </trkpt>
      <trkpt lat="46.01339" lon="1.24713">
        <ele>368.8</ele>
        <time>2016-09-07T08:53:54Z</time>
      </trkpt>
      <trkpt lat="46.0135" lon="1.24677">
        <ele>369.28</ele>
        <time>2016-09-07T08:54:09Z</time>
      </trkpt>
      <trkpt lat="46.01335" lon="1.24661">
        <ele>365.92</ele>
        <time>2016-09-07T08:54:16Z</time>
      </trkpt>
      <trkpt lat="46.01326" lon="1.24648">
        <ele>364</ele>
        <time>2016-09-07T08:54:20Z</time>
      </trkpt>
      <trkpt lat="46.01329" lon="1.24621">
        <ele>361.59</ele>
        <time>2016-09-07T08:54:27Z</time>
      </trkpt>
      <trkpt lat="46.01351" lon="1.24614">
        <ele>362.55</ele>
        <time>2016-09-07T08:54:37Z</time>
      </trkpt>
      <trkpt lat="46.01383" lon="1.24595">
        <ele>364.48</ele>
        <time>2016-09-07T08:54:52Z</time>
      </trkpt>
      <trkpt lat="46.01387" lon="1.24591">
        <ele>364.48</ele>
        <time>2016-09-07T08:54:54Z</time>
      </trkpt>
      <trkpt lat="46.01376" lon="1.24553">
        <ele>364.48</ele>
        <time>2016-09-07T08:55:04Z</time>
      </trkpt>
      <trkpt lat="46.01355" lon="1.24515">
        <ele>364</ele>
        <time>2016-09-07T08:55:17Z</time>
      </trkpt>
      <trkpt lat="46.01338" lon="1.24503">
        <ele>361.11</ele>
        <time>2016-09-07T08:55:23Z</time>
      </trkpt>
      <trkpt lat="46.01327" lon="1.24499">
        <ele>359.67</ele>
        <time>2016-09-07T08:55:26Z</time>
      </trkpt>
      <trkpt lat="46.01321" lon="1.245">
        <ele>358.71</ele>
        <time>2016-09-07T08:55:35Z</time>
      </trkpt>
      <trkpt lat="46.01321" lon="1.245">
        <ele>358.71</ele>
        <time>2016-09-07T08:55:39Z</time>
      </trkpt>
      <trkpt lat="46.01328" lon="1.24496">
        <ele>358.71</ele>
        <time>2016-09-07T08:55:55Z</time>
      </trkpt>
      <trkpt lat="46.01331" lon="1.24493">
        <ele>358.71</ele>
        <time>2016-09-07T08:56:02Z</time>
      </trkpt>
      <trkpt lat="46.01336" lon="1.2449">
        <ele>360.15</ele>
        <time>2016-09-07T08:56:06Z</time>
      </trkpt>
      <trkpt lat="46.01339" lon="1.24485">
        <ele>360.15</ele>
        <time>2016-09-07T08:56:10Z</time>
      </trkpt>
      <trkpt lat="46.01362" lon="1.24462">
        <ele>362.55</ele>
        <time>2016-09-07T08:56:24Z</time>
      </trkpt>
      <trkpt lat="46.01373" lon="1.24459">
        <ele>364</ele>
        <time>2016-09-07T08:56:34Z</time>
      </trkpt>
      <trkpt lat="46.01378" lon="1.2446">
        <ele>364.96</ele>
        <time>2016-09-07T08:56:42Z</time>
      </trkpt>
      <trkpt lat="46.01393" lon="1.24462">
        <ele>365.92</ele>
        <time>2016-09-07T08:56:55Z</time>
      </trkpt>
      <trkpt lat="46.01397" lon="1.24467">
        <ele>366.88</ele>
        <time>2016-09-07T08:56:59Z</time>
      </trkpt>
      <trkpt lat="46.01402" lon="1.24466">
        <ele>367.36</ele>
        <time>2016-09-07T08:57:05Z</time>
      </trkpt>
      <trkpt lat="46.01413" lon="1.24456">
        <ele>367.84</ele>
        <time>2016-09-07T08:57:17Z</time>
      </trkpt>
      <trkpt lat="46.01435" lon="1.24427">
        <ele>369.28</ele>
        <time>2016-09-07T08:57:31Z</time>
      </trkpt>
      <trkpt lat="46.01458" lon="1.24424">
        <ele>370.73</ele>
        <time>2016-09-07T08:57:42Z</time>
      </trkpt>
      <trkpt lat="46.01479" lon="1.24414">
        <ele>373.13</ele>
        <time>2016-09-07T08:57:53Z</time>
      </trkpt>
      <trkpt lat="46.01501" lon="1.24408">
        <ele>373.61</ele>
        <time>2016-09-07T08:58:05Z</time>
      </trkpt>
      <trkpt lat="46.01535" lon="1.24411">
        <ele>374.57</ele>
        <time>2016-09-07T08:58:21Z</time>
      </trkpt>
      <trkpt lat="46.01566" lon="1.24411">
        <ele>374.57</ele>
        <time>2016-09-07T08:58:33Z</time>
      </trkpt>
      <trkpt lat="46.01595" lon="1.24412">
        <ele>373.13</ele>
        <time>2016-09-07T08:58:43Z</time>
      </trkpt>
      <trkpt lat="46.01632" lon="1.24377">
        <ele>373.13</ele>
        <time>2016-09-07T08:58:57Z</time>
      </trkpt>
      <trkpt lat="46.01647" lon="1.24357">
        <ele>374.57</ele>
        <time>2016-09-07T08:59:06Z</time>
      </trkpt>
      <trkpt lat="46.01655" lon="1.24333">
        <ele>375.05</ele>
        <time>2016-09-07T08:59:15Z</time>
      </trkpt>
      <trkpt lat="46.01654" lon="1.2433">
        <ele>375.05</ele>
        <time>2016-09-07T08:59:16Z</time>
      </trkpt>
      <trkpt lat="46.01653" lon="1.24327">
        <ele>375.53</ele>
        <time>2016-09-07T08:59:17Z</time>
      </trkpt>
      <trkpt lat="46.01651" lon="1.24323">
        <ele>375.53</ele>
        <time>2016-09-07T08:59:18Z</time>
      </trkpt>
      <trkpt lat="46.0165" lon="1.24319">
        <ele>375.53</ele>
        <time>2016-09-07T08:59:19Z</time>
      </trkpt>
      <trkpt lat="46.01648" lon="1.24315">
        <ele>375.53</ele>
        <time>2016-09-07T08:59:20Z</time>
      </trkpt>
      <trkpt lat="46.01646" lon="1.2431">
        <ele>375.53</ele>
        <time>2016-09-07T08:59:21Z</time>
      </trkpt>
      <trkpt lat="46.01618" lon="1.24223">
        <ele>375.53</ele>
        <time>2016-09-07T08:59:37Z</time>
      </trkpt>
      <trkpt lat="46.0161" lon="1.24175">
        <ele>375.53</ele>
        <time>2016-09-07T08:59:44Z</time>
      </trkpt>
      <trkpt lat="46.01604" lon="1.24154">
        <ele>375.53</ele>
        <time>2016-09-07T08:59:47Z</time>
      </trkpt>
      <trkpt lat="46.01602" lon="1.24147">
        <ele>374.09</ele>
        <time>2016-09-07T08:59:48Z</time>
      </trkpt>
      <trkpt lat="46.01599" lon="1.2414">
        <ele>374.09</ele>
        <time>2016-09-07T08:59:49Z</time>
      </trkpt>
      <trkpt lat="46.01594" lon="1.24127">
        <ele>374.09</ele>
        <time>2016-09-07T08:59:51Z</time>
      </trkpt>
      <trkpt lat="46.01587" lon="1.24114">
        <ele>374.09</ele>
        <time>2016-09-07T08:59:53Z</time>
      </trkpt>
      <trkpt lat="46.01569" lon="1.24082">
        <ele>374.09</ele>
        <time>2016-09-07T08:59:59Z</time>
      </trkpt>
      <trkpt lat="46.01557" lon="1.24052">
        <ele>375.53</ele>
        <time>2016-09-07T09:00:04Z</time>
      </trkpt>
      <trkpt lat="46.01555" lon="1.24045">
        <ele>375.53</ele>
        <time>2016-09-07T09:00:05Z</time>
      </trkpt>
      <trkpt lat="46.01542" lon="1.2402">
        <ele>376.49</ele>
        <time>2016-09-07T09:00:10Z</time>
      </trkpt>
      <trkpt lat="46.01532" lon="1.24006">
        <ele>376.49</ele>
        <time>2016-09-07T09:00:13Z</time>
      </trkpt>
      <trkpt lat="46.01528" lon="1.24002">
        <ele>376.49</ele>
        <time>2016-09-07T09:00:14Z</time>
      </trkpt>
      <trkpt lat="46.015" lon="1.23972">
        <ele>375.53</ele>
        <time>2016-09-07T09:00:21Z</time>
      </trkpt>
      <trkpt lat="46.01496" lon="1.23967">
        <ele>375.53</ele>
        <time>2016-09-07T09:00:22Z</time>
      </trkpt>
      <trkpt lat="46.01492" lon="1.23963">
        <ele>374.57</ele>
        <time>2016-09-07T09:00:23Z</time>
      </trkpt>
      <trkpt lat="46.01413" lon="1.23879">
        <ele>373.13</ele>
        <time>2016-09-07T09:00:42Z</time>
      </trkpt>
      <trkpt lat="46.01409" lon="1.23875">
        <ele>373.13</ele>
        <time>2016-09-07T09:00:43Z</time>
      </trkpt>
      <trkpt lat="46.01384" lon="1.2384">
        <ele>373.13</ele>
        <time>2016-09-07T09:00:51Z</time>
      </trkpt>
      <trkpt lat="46.01374" lon="1.23819">
        <ele>373.13</ele>
        <time>2016-09-07T09:00:55Z</time>
      </trkpt>
      <trkpt lat="46.01361" lon="1.23765">
        <ele>375.05</ele>
        <time>2016-09-07T09:01:04Z</time>
      </trkpt>
      <trkpt lat="46.01336" lon="1.23683">
        <ele>376.49</ele>
        <time>2016-09-07T09:01:19Z</time>
      </trkpt>
      <trkpt lat="46.01327" lon="1.23656">
        <ele>376.97</ele>
        <time>2016-09-07T09:01:24Z</time>
      </trkpt>
      <trkpt lat="46.01302" lon="1.23591">
        <ele>378.9</ele>
        <time>2016-09-07T09:01:38Z</time>
      </trkpt>
      <trkpt lat="46.01284" lon="1.23578">
        <ele>378.9</ele>
        <time>2016-09-07T09:01:43Z</time>
      </trkpt>
      <trkpt lat="46.01272" lon="1.2357">
        <ele>378.9</ele>
        <time>2016-09-07T09:01:46Z</time>
      </trkpt>
      <trkpt lat="46.01249" lon="1.23554">
        <ele>378.9</ele>
        <time>2016-09-07T09:01:52Z</time>
      </trkpt>
      <trkpt lat="46.01245" lon="1.23551">
        <ele>378.9</ele>
        <time>2016-09-07T09:01:53Z</time>
      </trkpt>
      <trkpt lat="46.01241" lon="1.23548">
        <ele>378.9</ele>
        <time>2016-09-07T09:01:54Z</time>
      </trkpt>
      <trkpt lat="46.01237" lon="1.23545">
        <ele>378.9</ele>
        <time>2016-09-07T09:01:55Z</time>
      </trkpt>
      <trkpt lat="46.01233" lon="1.23542">
        <ele>378.42</ele>
        <time>2016-09-07T09:01:56Z</time>
      </trkpt>
      <trkpt lat="46.01229" lon="1.2354">
        <ele>378.9</ele>
        <time>2016-09-07T09:01:57Z</time>
      </trkpt>
      <trkpt lat="46.01209" lon="1.23527">
        <ele>377.45</ele>
        <time>2016-09-07T09:02:02Z</time>
      </trkpt>
      <trkpt lat="46.01196" lon="1.2352">
        <ele>376.49</ele>
        <time>2016-09-07T09:02:05Z</time>
      </trkpt>
      <trkpt lat="46.01191" lon="1.23517">
        <ele>376.49</ele>
        <time>2016-09-07T09:02:06Z</time>
      </trkpt>
      <trkpt lat="46.01181" lon="1.23509">
        <ele>376.49</ele>
        <time>2016-09-07T09:02:08Z</time>
      </trkpt>
      <trkpt lat="46.01163" lon="1.23498">
        <ele>374.57</ele>
        <time>2016-09-07T09:02:11Z</time>
      </trkpt>
      <trkpt lat="46.01158" lon="1.23494">
        <ele>373.61</ele>
        <time>2016-09-07T09:02:12Z</time>
      </trkpt>
      <trkpt lat="46.01153" lon="1.23488">
        <ele>373.13</ele>
        <time>2016-09-07T09:02:13Z</time>
      </trkpt>
      <trkpt lat="46.01149" lon="1.23482">
        <ele>372.17</ele>
        <time>2016-09-07T09:02:14Z</time>
      </trkpt>
      <trkpt lat="46.01143" lon="1.23469">
        <ele>370.73</ele>
        <time>2016-09-07T09:02:16Z</time>
      </trkpt>
      <trkpt lat="46.01141" lon="1.23463">
        <ele>370.24</ele>
        <time>2016-09-07T09:02:17Z</time>
      </trkpt>
      <trkpt lat="46.0114" lon="1.23455">
        <ele>369.76</ele>
        <time>2016-09-07T09:02:18Z</time>
      </trkpt>
      <trkpt lat="46.01141" lon="1.23448">
        <ele>369.28</ele>
        <time>2016-09-07T09:02:19Z</time>
      </trkpt>
      <trkpt lat="46.01142" lon="1.23441">
        <ele>368.8</ele>
        <time>2016-09-07T09:02:20Z</time>
      </trkpt>
      <trkpt lat="46.01144" lon="1.23435">
        <ele>368.32</ele>
        <time>2016-09-07T09:02:21Z</time>
      </trkpt>
      <trkpt lat="46.01146" lon="1.23426">
        <ele>367.36</ele>
        <time>2016-09-07T09:02:23Z</time>
      </trkpt>
      <trkpt lat="46.01147" lon="1.23421">
        <ele>366.88</ele>
        <time>2016-09-07T09:02:24Z</time>
      </trkpt>
      <trkpt lat="46.01147" lon="1.23417">
        <ele>366.88</ele>
        <time>2016-09-07T09:02:25Z</time>
      </trkpt>
      <trkpt lat="46.01147" lon="1.23404">
        <ele>366.4</ele>
        <time>2016-09-07T09:02:27Z</time>
      </trkpt>
      <trkpt lat="46.01154" lon="1.23359">
        <ele>363.04</ele>
        <time>2016-09-07T09:02:32Z</time>
      </trkpt>
      <trkpt lat="46.01157" lon="1.23328">
        <ele>359.19</ele>
        <time>2016-09-07T09:02:35Z</time>
      </trkpt>
      <trkpt lat="46.01156" lon="1.23319">
        <ele>358.23</ele>
        <time>2016-09-07T09:02:36Z</time>
      </trkpt>
      <trkpt lat="46.01154" lon="1.23312">
        <ele>357.27</ele>
        <time>2016-09-07T09:02:37Z</time>
      </trkpt>
      <trkpt lat="46.01151" lon="1.23305">
        <ele>356.31</ele>
        <time>2016-09-07T09:02:38Z</time>
      </trkpt>
      <trkpt lat="46.01147" lon="1.23299">
        <ele>354.86</ele>
        <time>2016-09-07T09:02:39Z</time>
      </trkpt>
      <trkpt lat="46.01143" lon="1.23293">
        <ele>354.38</ele>
        <time>2016-09-07T09:02:40Z</time>
      </trkpt>
      <trkpt lat="46.01138" lon="1.23289">
        <ele>352.94</ele>
        <time>2016-09-07T09:02:41Z</time>
      </trkpt>
      <trkpt lat="46.0112" lon="1.23269">
        <ele>350.06</ele>
        <time>2016-09-07T09:02:44Z</time>
      </trkpt>
      <trkpt lat="46.01106" lon="1.23255">
        <ele>348.13</ele>
        <time>2016-09-07T09:02:47Z</time>
      </trkpt>
      <trkpt lat="46.01086" lon="1.23239">
        <ele>344.77</ele>
        <time>2016-09-07T09:02:53Z</time>
      </trkpt>
      <trkpt lat="46.01083" lon="1.23238">
        <ele>344.77</ele>
        <time>2016-09-07T09:02:54Z</time>
      </trkpt>
      <trkpt lat="46.0108" lon="1.23239">
        <ele>344.29</ele>
        <time>2016-09-07T09:02:55Z</time>
      </trkpt>
      <trkpt lat="46.01076" lon="1.23241">
        <ele>343.33</ele>
        <time>2016-09-07T09:02:57Z</time>
      </trkpt>
      <trkpt lat="46.01075" lon="1.2324">
        <ele>343.33</ele>
        <time>2016-09-07T09:02:58Z</time>
      </trkpt>
      <trkpt lat="46.01072" lon="1.2324">
        <ele>342.37</ele>
        <time>2016-09-07T09:02:59Z</time>
      </trkpt>
      <trkpt lat="46.01069" lon="1.23239">
        <ele>341.89</ele>
        <time>2016-09-07T09:03:00Z</time>
      </trkpt>
      <trkpt lat="46.01066" lon="1.2324">
        <ele>341.41</ele>
        <time>2016-09-07T09:03:01Z</time>
      </trkpt>
      <trkpt lat="46.01063" lon="1.23243">
        <ele>341.41</ele>
        <time>2016-09-07T09:03:02Z</time>
      </trkpt>
      <trkpt lat="46.01055" lon="1.23259">
        <ele>339.96</ele>
        <time>2016-09-07T09:03:05Z</time>
      </trkpt>
      <trkpt lat="46.01032" lon="1.23347">
        <ele>338.04</ele>
        <time>2016-09-07T09:03:22Z</time>
      </trkpt>
      <trkpt lat="46.01028" lon="1.23354">
        <ele>336.6</ele>
        <time>2016-09-07T09:03:24Z</time>
      </trkpt>
      <trkpt lat="46.01026" lon="1.23365">
        <ele>336.12</ele>
        <time>2016-09-07T09:03:26Z</time>
      </trkpt>
      <trkpt lat="46.01028" lon="1.2339">
        <ele>335.16</ele>
        <time>2016-09-07T09:03:34Z</time>
      </trkpt>
      <trkpt lat="46.01022" lon="1.23393">
        <ele>335.16</ele>
        <time>2016-09-07T09:03:48Z</time>
      </trkpt>
      <trkpt lat="46.01017" lon="1.23398">
        <ele>335.16</ele>
        <time>2016-09-07T09:04:04Z</time>
      </trkpt>
      <trkpt lat="46.01007" lon="1.23408">
        <ele>335.16</ele>
        <time>2016-09-07T09:04:18Z</time>
      </trkpt>
      <trkpt lat="46.00998" lon="1.23412">
        <ele>335.16</ele>
        <time>2016-09-07T09:04:23Z</time>
      </trkpt>
      <trkpt lat="46.00966" lon="1.23413">
        <ele>335.16</ele>
        <time>2016-09-07T09:04:36Z</time>
      </trkpt>
      <trkpt lat="46.00964" lon="1.23413">
        <ele>335.16</ele>
        <time>2016-09-07T09:04:37Z</time>
      </trkpt>
      <trkpt lat="46.00952" lon="1.23414">
        <ele>335.16</ele>
        <time>2016-09-07T09:04:43Z</time>
      </trkpt>
      <trkpt lat="46.00923" lon="1.23422">
        <ele>335.16</ele>
        <time>2016-09-07T09:04:55Z</time>
      </trkpt>
      <trkpt lat="46.00889" lon="1.23436">
        <ele>335.16</ele>
        <time>2016-09-07T09:05:09Z</time>
      </trkpt>
      <trkpt lat="46.00879" lon="1.23431">
        <ele>335.16</ele>
        <time>2016-09-07T09:05:13Z</time>
      </trkpt>
      <trkpt lat="46.00868" lon="1.23416">
        <ele>335.16</ele>
        <time>2016-09-07T09:05:21Z</time>
      </trkpt>
      <trkpt lat="46.00869" lon="1.23401">
        <ele>335.16</ele>
        <time>2016-09-07T09:05:27Z</time>
      </trkpt>
      <trkpt lat="46.00869" lon="1.23358">
        <ele>335.16</ele>
        <time>2016-09-07T09:05:41Z</time>
      </trkpt>
      <trkpt lat="46.00868" lon="1.23353">
        <ele>335.16</ele>
        <time>2016-09-07T09:05:56Z</time>
      </trkpt>
      <trkpt lat="46.00864" lon="1.2334">
        <ele>335.16</ele>
        <time>2016-09-07T09:06:09Z</time>
      </trkpt>
      <trkpt lat="46.00864" lon="1.23322">
        <ele>335.16</ele>
        <time>2016-09-07T09:06:21Z</time>
      </trkpt>
      <trkpt lat="46.00863" lon="1.23317">
        <ele>336.6</ele>
        <time>2016-09-07T09:06:24Z</time>
      </trkpt>
      <trkpt lat="46.00862" lon="1.23312">
        <ele>337.08</ele>
        <time>2016-09-07T09:06:27Z</time>
      </trkpt>
      <trkpt lat="46.00849" lon="1.23324">
        <ele>338.52</ele>
        <time>2016-09-07T09:06:41Z</time>
      </trkpt>
      <trkpt lat="46.00847" lon="1.23325">
        <ele>338.52</ele>
        <time>2016-09-07T09:06:42Z</time>
      </trkpt>
      <trkpt lat="46.0082" lon="1.2332">
        <ele>341.41</ele>
        <time>2016-09-07T09:06:57Z</time>
      </trkpt>
      <trkpt lat="46.00806" lon="1.23344">
        <ele>342.37</ele>
        <time>2016-09-07T09:07:08Z</time>
      </trkpt>
      <trkpt lat="46.00802" lon="1.23383">
        <ele>341.41</ele>
        <time>2016-09-07T09:07:17Z</time>
      </trkpt>
      <trkpt lat="46.00801" lon="1.23419">
        <ele>339.48</ele>
        <time>2016-09-07T09:07:21Z</time>
      </trkpt>
      <trkpt lat="46.00813" lon="1.235">
        <ele>337.08</ele>
        <time>2016-09-07T09:07:30Z</time>
      </trkpt>
      <trkpt lat="46.00807" lon="1.2354">
        <ele>336.6</ele>
        <time>2016-09-07T09:07:36Z</time>
      </trkpt>
      <trkpt lat="46.00769" lon="1.23585">
        <ele>336.12</ele>
        <time>2016-09-07T09:07:48Z</time>
      </trkpt>
      <trkpt lat="46.00754" lon="1.23594">
        <ele>337.56</ele>
        <time>2016-09-07T09:07:53Z</time>
      </trkpt>
      <trkpt lat="46.00723" lon="1.23612">
        <ele>339.96</ele>
        <time>2016-09-07T09:08:05Z</time>
      </trkpt>
      <trkpt lat="46.00702" lon="1.23641">
        <ele>340.44</ele>
        <time>2016-09-07T09:08:14Z</time>
      </trkpt>
      <trkpt lat="46.00679" lon="1.23653">
        <ele>341.89</ele>
        <time>2016-09-07T09:08:20Z</time>
      </trkpt>
      <trkpt lat="46.00641" lon="1.23671">
        <ele>343.33</ele>
        <time>2016-09-07T09:08:33Z</time>
      </trkpt>
      <trkpt lat="46.00598" lon="1.23674">
        <ele>345.25</ele>
        <time>2016-09-07T09:08:47Z</time>
      </trkpt>
      <trkpt lat="46.00551" lon="1.23672">
        <ele>347.17</ele>
        <time>2016-09-07T09:09:02Z</time>
      </trkpt>
      <trkpt lat="46.00499" lon="1.23666">
        <ele>348.62</ele>
        <time>2016-09-07T09:09:16Z</time>
      </trkpt>
      <trkpt lat="46.00492" lon="1.23664">
        <ele>348.62</ele>
        <time>2016-09-07T09:09:18Z</time>
      </trkpt>
      <trkpt lat="46.00487" lon="1.23662">
        <ele>346.69</ele>
        <time>2016-09-07T09:09:19Z</time>
      </trkpt>
      <trkpt lat="46.00441" lon="1.2365">
        <ele>343.81</ele>
        <time>2016-09-07T09:09:26Z</time>
      </trkpt>
      <trkpt lat="46.00413" lon="1.23633">
        <ele>343.33</ele>
        <time>2016-09-07T09:09:31Z</time>
      </trkpt>
      <trkpt lat="46.00389" lon="1.23617">
        <ele>342.85</ele>
        <time>2016-09-07T09:09:36Z</time>
      </trkpt>
      <trkpt lat="46.00356" lon="1.23601">
        <ele>342.85</ele>
        <time>2016-09-07T09:09:43Z</time>
      </trkpt>
      <trkpt lat="46.00305" lon="1.23588">
        <ele>344.29</ele>
        <time>2016-09-07T09:09:56Z</time>
      </trkpt>
      <trkpt lat="46.00261" lon="1.23566">
        <ele>346.21</ele>
        <time>2016-09-07T09:10:09Z</time>
      </trkpt>
      <trkpt lat="46.00213" lon="1.2354">
        <ele>348.13</ele>
        <time>2016-09-07T09:10:23Z</time>
      </trkpt>
      <trkpt lat="46.00165" lon="1.2351">
        <ele>350.54</ele>
        <time>2016-09-07T09:10:39Z</time>
      </trkpt>
      <trkpt lat="46.00133" lon="1.23504">
        <ele>353.42</ele>
        <time>2016-09-07T09:10:52Z</time>
      </trkpt>
      <trkpt lat="46.00106" lon="1.23487">
        <ele>354.86</ele>
        <time>2016-09-07T09:11:05Z</time>
      </trkpt>
      <trkpt lat="46.00072" lon="1.23473">
        <ele>353.42</ele>
        <time>2016-09-07T09:11:15Z</time>
      </trkpt>
      <trkpt lat="46.00037" lon="1.23462">
        <ele>352.46</ele>
        <time>2016-09-07T09:11:23Z</time>
      </trkpt>
      <trkpt lat="46.00014" lon="1.23465">
        <ele>351.5</ele>
        <time>2016-09-07T09:11:28Z</time>
      </trkpt>
      <trkpt lat="45.99994" lon="1.23466">
        <ele>351.5</ele>
        <time>2016-09-07T09:11:32Z</time>
      </trkpt>
      <trkpt lat="45.99973" lon="1.23467">
        <ele>351.02</ele>
        <time>2016-09-07T09:11:36Z</time>
      </trkpt>
      <trkpt lat="45.99945" lon="1.2346">
        <ele>351.02</ele>
        <time>2016-09-07T09:11:42Z</time>
      </trkpt>
      <trkpt lat="45.99928" lon="1.23464">
        <ele>351.02</ele>
        <time>2016-09-07T09:11:46Z</time>
      </trkpt>
      <trkpt lat="45.99876" lon="1.23494">
        <ele>351.02</ele>
        <time>2016-09-07T09:11:59Z</time>
      </trkpt>
      <trkpt lat="45.9986" lon="1.23499">
        <ele>351.02</ele>
        <time>2016-09-07T09:12:02Z</time>
      </trkpt>
      <trkpt lat="45.99821" lon="1.23517">
        <ele>350.54</ele>
        <time>2016-09-07T09:12:11Z</time>
      </trkpt>
      <trkpt lat="45.99794" lon="1.23535">
        <ele>351.98</ele>
        <time>2016-09-07T09:12:18Z</time>
      </trkpt>
      <trkpt lat="45.99763" lon="1.23564">
        <ele>352.94</ele>
        <time>2016-09-07T09:12:27Z</time>
      </trkpt>
      <trkpt lat="45.99756" lon="1.23572">
        <ele>351.98</ele>
        <time>2016-09-07T09:12:29Z</time>
      </trkpt>
      <trkpt lat="45.99749" lon="1.23583">
        <ele>350.06</ele>
        <time>2016-09-07T09:12:31Z</time>
      </trkpt>
      <trkpt lat="45.99741" lon="1.23595">
        <ele>349.58</ele>
        <time>2016-09-07T09:12:33Z</time>
      </trkpt>
      <trkpt lat="45.99739" lon="1.23601">
        <ele>348.62</ele>
        <time>2016-09-07T09:12:34Z</time>
      </trkpt>
      <trkpt lat="45.99729" lon="1.23621">
        <ele>348.13</ele>
        <time>2016-09-07T09:12:38Z</time>
      </trkpt>
      <trkpt lat="45.99725" lon="1.23623">
        <ele>348.13</ele>
        <time>2016-09-07T09:12:39Z</time>
      </trkpt>
      <trkpt lat="45.99714" lon="1.2363">
        <ele>348.13</ele>
        <time>2016-09-07T09:12:42Z</time>
      </trkpt>
      <trkpt lat="45.99711" lon="1.23634">
        <ele>348.13</ele>
        <time>2016-09-07T09:12:43Z</time>
      </trkpt>
      <trkpt lat="45.9968" lon="1.23688">
        <ele>346.69</ele>
        <time>2016-09-07T09:12:55Z</time>
      </trkpt>
      <trkpt lat="45.9967" lon="1.23698">
        <ele>346.69</ele>
        <time>2016-09-07T09:12:58Z</time>
      </trkpt>
      <trkpt lat="45.99666" lon="1.23699">
        <ele>346.69</ele>
        <time>2016-09-07T09:12:59Z</time>
      </trkpt>
      <trkpt lat="45.99662" lon="1.237">
        <ele>346.69</ele>
        <time>2016-09-07T09:13:00Z</time>
      </trkpt>
      <trkpt lat="45.99622" lon="1.23717">
        <ele>346.69</ele>
        <time>2016-09-07T09:13:10Z</time>
      </trkpt>
      <trkpt lat="45.99607" lon="1.23724">
        <ele>348.13</ele>
        <time>2016-09-07T09:13:14Z</time>
      </trkpt>
      <trkpt lat="45.99576" lon="1.23741">
        <ele>349.58</ele>
        <time>2016-09-07T09:13:23Z</time>
      </trkpt>
      <trkpt lat="45.99542" lon="1.23762">
        <ele>349.58</ele>
        <time>2016-09-07T09:13:32Z</time>
      </trkpt>
      <trkpt lat="45.99538" lon="1.23765">
        <ele>349.58</ele>
        <time>2016-09-07T09:13:33Z</time>
      </trkpt>
      <trkpt lat="45.99533" lon="1.23769">
        <ele>348.13</ele>
        <time>2016-09-07T09:13:34Z</time>
      </trkpt>
      <trkpt lat="45.99528" lon="1.23773">
        <ele>348.13</ele>
        <time>2016-09-07T09:13:35Z</time>
      </trkpt>
      <trkpt lat="45.99523" lon="1.23778">
        <ele>348.13</ele>
        <time>2016-09-07T09:13:36Z</time>
      </trkpt>
      <trkpt lat="45.99519" lon="1.23782">
        <ele>347.65</ele>
        <time>2016-09-07T09:13:37Z</time>
      </trkpt>
      <trkpt lat="45.99474" lon="1.23826">
        <ele>346.69</ele>
        <time>2016-09-07T09:13:49Z</time>
      </trkpt>
      <trkpt lat="45.9947" lon="1.23831">
        <ele>346.21</ele>
        <time>2016-09-07T09:13:50Z</time>
      </trkpt>
      <trkpt lat="45.99465" lon="1.23834">
        <ele>346.21</ele>
        <time>2016-09-07T09:13:51Z</time>
      </trkpt>
      <trkpt lat="45.99458" lon="1.23835">
        <ele>346.21</ele>
        <time>2016-09-07T09:13:52Z</time>
      </trkpt>
      <trkpt lat="45.99451" lon="1.23836">
        <ele>345.73</ele>
        <time>2016-09-07T09:13:53Z</time>
      </trkpt>
      <trkpt lat="45.99445" lon="1.23837">
        <ele>345.73</ele>
        <time>2016-09-07T09:13:54Z</time>
      </trkpt>
      <trkpt lat="45.9944" lon="1.23838">
        <ele>345.73</ele>
        <time>2016-09-07T09:13:55Z</time>
      </trkpt>
      <trkpt lat="45.99363" lon="1.23857">
        <ele>346.21</ele>
        <time>2016-09-07T09:14:08Z</time>
      </trkpt>
      <trkpt lat="45.99299" lon="1.23865">
        <ele>346.21</ele>
        <time>2016-09-07T09:14:21Z</time>
      </trkpt>
      <trkpt lat="45.99267" lon="1.23842">
        <ele>346.21</ele>
        <time>2016-09-07T09:14:31Z</time>
      </trkpt>
      <trkpt lat="45.99249" lon="1.23839">
        <ele>346.21</ele>
        <time>2016-09-07T09:14:37Z</time>
      </trkpt>
      <trkpt lat="45.99247" lon="1.23837">
        <ele>346.21</ele>
        <time>2016-09-07T09:14:38Z</time>
      </trkpt>
      <trkpt lat="45.99245" lon="1.23834">
        <ele>346.21</ele>
        <time>2016-09-07T09:14:39Z</time>
      </trkpt>
      <trkpt lat="45.99222" lon="1.238">
        <ele>347.65</ele>
        <time>2016-09-07T09:14:51Z</time>
      </trkpt>
      <trkpt lat="45.99191" lon="1.23783">
        <ele>348.62</ele>
        <time>2016-09-07T09:15:03Z</time>
      </trkpt>
      <trkpt lat="45.99158" lon="1.23814">
        <ele>349.58</ele>
        <time>2016-09-07T09:15:14Z</time>
      </trkpt>
      <trkpt lat="45.99133" lon="1.23825">
        <ele>350.06</ele>
        <time>2016-09-07T09:15:24Z</time>
      </trkpt>
      <trkpt lat="45.99123" lon="1.23823">
        <ele>350.06</ele>
        <time>2016-09-07T09:15:28Z</time>
      </trkpt>
      <trkpt lat="45.99107" lon="1.23801">
        <ele>351.5</ele>
        <time>2016-09-07T09:15:39Z</time>
      </trkpt>
      <trkpt lat="45.99087" lon="1.23771">
        <ele>353.42</ele>
        <time>2016-09-07T09:15:51Z</time>
      </trkpt>
      <trkpt lat="45.99056" lon="1.23739">
        <ele>355.83</ele>
        <time>2016-09-07T09:16:02Z</time>
      </trkpt>
      <trkpt lat="45.9904" lon="1.23726">
        <ele>356.31</ele>
        <time>2016-09-07T09:16:15Z</time>
      </trkpt>
      <trkpt lat="45.99037" lon="1.23722">
        <ele>356.31</ele>
        <time>2016-09-07T09:16:36Z</time>
      </trkpt>
      <trkpt lat="45.99027" lon="1.23711">
        <ele>357.27</ele>
        <time>2016-09-07T09:16:55Z</time>
      </trkpt>
      <trkpt lat="45.98993" lon="1.2367">
        <ele>360.63</ele>
        <time>2016-09-07T09:17:10Z</time>
      </trkpt>
      <trkpt lat="45.98945" lon="1.23615">
        <ele>361.11</ele>
        <time>2016-09-07T09:17:26Z</time>
      </trkpt>
      <trkpt lat="45.98897" lon="1.23559">
        <ele>357.75</ele>
        <time>2016-09-07T09:17:36Z</time>
      </trkpt>
      <trkpt lat="45.98863" lon="1.23514">
        <ele>354.86</ele>
        <time>2016-09-07T09:17:42Z</time>
      </trkpt>
      <trkpt lat="45.98802" lon="1.23439">
        <ele>352.46</ele>
        <time>2016-09-07T09:17:53Z</time>
      </trkpt>
      <trkpt lat="45.98796" lon="1.23427">
        <ele>352.46</ele>
        <time>2016-09-07T09:17:55Z</time>
      </trkpt>
      <trkpt lat="45.98794" lon="1.23421">
        <ele>352.46</ele>
        <time>2016-09-07T09:17:56Z</time>
      </trkpt>
      <trkpt lat="45.98792" lon="1.23414">
        <ele>352.46</ele>
        <time>2016-09-07T09:17:57Z</time>
      </trkpt>
      <trkpt lat="45.98781" lon="1.23367">
        <ele>354.38</ele>
        <time>2016-09-07T09:18:08Z</time>
      </trkpt>
      <trkpt lat="45.98755" lon="1.23316">
        <ele>357.75</ele>
        <time>2016-09-07T09:18:24Z</time>
      </trkpt>
      <trkpt lat="45.98737" lon="1.23282">
        <ele>361.11</ele>
        <time>2016-09-07T09:18:36Z</time>
      </trkpt>
      <trkpt lat="45.98716" lon="1.23265">
        <ele>363.04</ele>
        <time>2016-09-07T09:18:48Z</time>
      </trkpt>
      <trkpt lat="45.98682" lon="1.23239">
        <ele>365.44</ele>
        <time>2016-09-07T09:19:05Z</time>
      </trkpt>
      <trkpt lat="45.98669" lon="1.23204">
        <ele>367.36</ele>
        <time>2016-09-07T09:19:19Z</time>
      </trkpt>
      <trkpt lat="45.98652" lon="1.23164">
        <ele>370.24</ele>
        <time>2016-09-07T09:19:33Z</time>
      </trkpt>
      <trkpt lat="45.98651" lon="1.23115">
        <ele>370.24</ele>
        <time>2016-09-07T09:19:45Z</time>
      </trkpt>
      <trkpt lat="45.9864" lon="1.23079">
        <ele>369.76</ele>
        <time>2016-09-07T09:19:58Z</time>
      </trkpt>
      <trkpt lat="45.98628" lon="1.23011">
        <ele>369.76</ele>
        <time>2016-09-07T09:20:11Z</time>
      </trkpt>
      <trkpt lat="45.986" lon="1.22994">
        <ele>370.73</ele>
        <time>2016-09-07T09:20:21Z</time>
      </trkpt>
      <trkpt lat="45.98593" lon="1.22992">
        <ele>370.73</ele>
        <time>2016-09-07T09:20:23Z</time>
      </trkpt>
      <trkpt lat="45.9858" lon="1.22985">
        <ele>370.73</ele>
        <time>2016-09-07T09:20:27Z</time>
      </trkpt>
      <trkpt lat="45.98575" lon="1.22986">
        <ele>369.28</ele>
        <time>2016-09-07T09:20:28Z</time>
      </trkpt>
      <trkpt lat="45.9857" lon="1.22987">
        <ele>369.28</ele>
        <time>2016-09-07T09:20:29Z</time>
      </trkpt>
      <trkpt lat="45.98561" lon="1.22989">
        <ele>368.32</ele>
        <time>2016-09-07T09:20:31Z</time>
      </trkpt>
      <trkpt lat="45.98528" lon="1.22988">
        <ele>365.44</ele>
        <time>2016-09-07T09:20:36Z</time>
      </trkpt>
      <trkpt lat="45.98501" lon="1.2298">
        <ele>364</ele>
        <time>2016-09-07T09:20:40Z</time>
      </trkpt>
      <trkpt lat="45.98496" lon="1.22976">
        <ele>364</ele>
        <time>2016-09-07T09:20:41Z</time>
      </trkpt>
      <trkpt lat="45.98455" lon="1.2294">
        <ele>364</ele>
        <time>2016-09-07T09:20:52Z</time>
      </trkpt>
      <trkpt lat="45.98401" lon="1.22898">
        <ele>364</ele>
        <time>2016-09-07T09:21:08Z</time>
      </trkpt>
      <trkpt lat="45.98375" lon="1.22879">
        <ele>367.36</ele>
        <time>2016-09-07T09:21:17Z</time>
      </trkpt>
      <trkpt lat="45.98342" lon="1.22857">
        <ele>368.8</ele>
        <time>2016-09-07T09:21:30Z</time>
      </trkpt>
      <trkpt lat="45.98314" lon="1.22831">
        <ele>371.21</ele>
        <time>2016-09-07T09:21:43Z</time>
      </trkpt>
      <trkpt lat="45.98282" lon="1.22801">
        <ele>373.13</ele>
        <time>2016-09-07T09:21:57Z</time>
      </trkpt>
      <trkpt lat="45.98255" lon="1.22746">
        <ele>373.13</ele>
        <time>2016-09-07T09:22:09Z</time>
      </trkpt>
      <trkpt lat="45.98245" lon="1.22668">
        <ele>373.13</ele>
        <time>2016-09-07T09:22:23Z</time>
      </trkpt>
      <trkpt lat="45.9823" lon="1.22617">
        <ele>373.13</ele>
        <time>2016-09-07T09:22:34Z</time>
      </trkpt>
      <trkpt lat="45.98203" lon="1.22572">
        <ele>375.05</ele>
        <time>2016-09-07T09:22:47Z</time>
      </trkpt>
      <trkpt lat="45.98191" lon="1.22539">
        <ele>377.45</ele>
        <time>2016-09-07T09:23:01Z</time>
      </trkpt>
      <trkpt lat="45.9819" lon="1.22537">
        <ele>378.42</ele>
        <time>2016-09-07T09:23:02Z</time>
      </trkpt>
      <trkpt lat="45.98175" lon="1.2251">
        <ele>380.82</ele>
        <time>2016-09-07T09:23:14Z</time>
      </trkpt>
      <trkpt lat="45.9815" lon="1.22483">
        <ele>382.74</ele>
        <time>2016-09-07T09:23:28Z</time>
      </trkpt>
      <trkpt lat="45.98119" lon="1.22452">
        <ele>382.74</ele>
        <time>2016-09-07T09:23:39Z</time>
      </trkpt>
      <trkpt lat="45.98092" lon="1.22408">
        <ele>382.74</ele>
        <time>2016-09-07T09:23:49Z</time>
      </trkpt>
      <trkpt lat="45.98073" lon="1.2239">
        <ele>381.3</ele>
        <time>2016-09-07T09:23:57Z</time>
      </trkpt>
      <trkpt lat="45.98072" lon="1.2234">
        <ele>378.42</ele>
        <time>2016-09-07T09:24:06Z</time>
      </trkpt>
      <trkpt lat="45.98076" lon="1.22328">
        <ele>377.94</ele>
        <time>2016-09-07T09:24:08Z</time>
      </trkpt>
      <trkpt lat="45.9809" lon="1.22292">
        <ele>376.01</ele>
        <time>2016-09-07T09:24:15Z</time>
      </trkpt>
      <trkpt lat="45.98095" lon="1.2228">
        <ele>374.57</ele>
        <time>2016-09-07T09:24:17Z</time>
      </trkpt>
      <trkpt lat="45.98102" lon="1.22262">
        <ele>373.61</ele>
        <time>2016-09-07T09:24:20Z</time>
      </trkpt>
      <trkpt lat="45.98119" lon="1.22231">
        <ele>372.17</ele>
        <time>2016-09-07T09:24:25Z</time>
      </trkpt>
      <trkpt lat="45.98128" lon="1.22188">
        <ele>371.21</ele>
        <time>2016-09-07T09:24:31Z</time>
      </trkpt>
      <trkpt lat="45.98125" lon="1.22155">
        <ele>369.76</ele>
        <time>2016-09-07T09:24:36Z</time>
      </trkpt>
      <trkpt lat="45.98123" lon="1.22135">
        <ele>369.28</ele>
        <time>2016-09-07T09:24:39Z</time>
      </trkpt>
      <trkpt lat="45.98125" lon="1.22039">
        <ele>367.36</ele>
        <time>2016-09-07T09:24:52Z</time>
      </trkpt>
      <trkpt lat="45.98138" lon="1.21987">
        <ele>364.48</ele>
        <time>2016-09-07T09:25:02Z</time>
      </trkpt>
      <trkpt lat="45.98143" lon="1.2197">
        <ele>364</ele>
        <time>2016-09-07T09:25:05Z</time>
      </trkpt>
      <trkpt lat="45.98155" lon="1.21952">
        <ele>364</ele>
        <time>2016-09-07T09:25:10Z</time>
      </trkpt>
      <trkpt lat="45.98174" lon="1.21934">
        <ele>364.96</ele>
        <time>2016-09-07T09:25:17Z</time>
      </trkpt>
      <trkpt lat="45.98201" lon="1.21897">
        <ele>367.84</ele>
        <time>2016-09-07T09:25:29Z</time>
      </trkpt>
      <trkpt lat="45.98216" lon="1.21862">
        <ele>369.28</ele>
        <time>2016-09-07T09:25:41Z</time>
      </trkpt>
      <trkpt lat="45.98233" lon="1.21802">
        <ele>371.21</ele>
        <time>2016-09-07T09:25:57Z</time>
      </trkpt>
      <trkpt lat="45.98234" lon="1.21791">
        <ele>371.21</ele>
        <time>2016-09-07T09:26:00Z</time>
      </trkpt>
      <trkpt lat="45.98236" lon="1.21751">
        <ele>372.65</ele>
        <time>2016-09-07T09:26:11Z</time>
      </trkpt>
      <trkpt lat="45.98232" lon="1.21706">
        <ele>374.57</ele>
        <time>2016-09-07T09:26:23Z</time>
      </trkpt>
      <trkpt lat="45.98219" lon="1.21681">
        <ele>376.01</ele>
        <time>2016-09-07T09:26:31Z</time>
      </trkpt>
      <trkpt lat="45.9822" lon="1.21661">
        <ele>377.45</ele>
        <time>2016-09-07T09:26:38Z</time>
      </trkpt>
      <trkpt lat="45.98233" lon="1.2166">
        <ele>377.45</ele>
        <time>2016-09-07T09:26:45Z</time>
      </trkpt>
      <trkpt lat="45.98235" lon="1.21658">
        <ele>377.45</ele>
        <time>2016-09-07T09:26:46Z</time>
      </trkpt>
      <trkpt lat="45.98237" lon="1.21654">
        <ele>377.45</ele>
        <time>2016-09-07T09:26:47Z</time>
      </trkpt>
      <trkpt lat="45.98239" lon="1.2165">
        <ele>376.49</ele>
        <time>2016-09-07T09:26:48Z</time>
      </trkpt>
      <trkpt lat="45.98241" lon="1.21644">
        <ele>376.01</ele>
        <time>2016-09-07T09:26:49Z</time>
      </trkpt>
      <trkpt lat="45.98245" lon="1.21632">
        <ele>376.01</ele>
        <time>2016-09-07T09:26:51Z</time>
      </trkpt>
      <trkpt lat="45.98269" lon="1.21591">
        <ele>375.53</ele>
        <time>2016-09-07T09:27:01Z</time>
      </trkpt>
      <trkpt lat="45.98289" lon="1.21569">
        <ele>376.97</ele>
        <time>2016-09-07T09:27:12Z</time>
      </trkpt>
      <trkpt lat="45.98299" lon="1.21567">
        <ele>378.9</ele>
        <time>2016-09-07T09:27:22Z</time>
      </trkpt>
      <trkpt lat="45.98319" lon="1.21559">
        <ele>381.78</ele>
        <time>2016-09-07T09:27:33Z</time>
      </trkpt>
      <trkpt lat="45.98325" lon="1.21557">
        <ele>382.26</ele>
        <time>2016-09-07T09:27:37Z</time>
      </trkpt>
      <trkpt lat="45.98336" lon="1.21549">
        <ele>383.7</ele>
        <time>2016-09-07T09:27:44Z</time>
      </trkpt>
      <trkpt lat="45.98339" lon="1.21546">
        <ele>384.18</ele>
        <time>2016-09-07T09:27:47Z</time>
      </trkpt>
      <trkpt lat="45.98351" lon="1.21524">
        <ele>385.15</ele>
        <time>2016-09-07T09:27:59Z</time>
      </trkpt>
      <trkpt lat="45.98361" lon="1.21512">
        <ele>385.63</ele>
        <time>2016-09-07T09:28:07Z</time>
      </trkpt>
      <trkpt lat="45.98368" lon="1.21502">
        <ele>386.11</ele>
        <time>2016-09-07T09:28:12Z</time>
      </trkpt>
      <trkpt lat="45.98374" lon="1.21497">
        <ele>387.07</ele>
        <time>2016-09-07T09:28:17Z</time>
      </trkpt>
      <trkpt lat="45.98391" lon="1.21477">
        <ele>389.47</ele>
        <time>2016-09-07T09:28:31Z</time>
      </trkpt>
      <trkpt lat="45.98409" lon="1.21468">
        <ele>392.36</ele>
        <time>2016-09-07T09:28:44Z</time>
      </trkpt>
      <trkpt lat="45.98418" lon="1.2146">
        <ele>393.32</ele>
        <time>2016-09-07T09:28:56Z</time>
      </trkpt>
      <trkpt lat="45.98428" lon="1.2145">
        <ele>394.28</ele>
        <time>2016-09-07T09:29:09Z</time>
      </trkpt>
      <trkpt lat="45.9844" lon="1.21424">
        <ele>395.72</ele>
        <time>2016-09-07T09:29:22Z</time>
      </trkpt>
      <trkpt lat="45.98448" lon="1.21418">
        <ele>396.2</ele>
        <time>2016-09-07T09:29:28Z</time>
      </trkpt>
      <trkpt lat="45.98451" lon="1.21419">
        <ele>396.68</ele>
        <time>2016-09-07T09:29:29Z</time>
      </trkpt>
      <trkpt lat="45.98453" lon="1.21419">
        <ele>396.2</ele>
        <time>2016-09-07T09:29:30Z</time>
      </trkpt>
      <trkpt lat="45.98455" lon="1.21419">
        <ele>396.2</ele>
        <time>2016-09-07T09:29:31Z</time>
      </trkpt>
      <trkpt lat="45.98458" lon="1.2142">
        <ele>396.2</ele>
        <time>2016-09-07T09:29:32Z</time>
      </trkpt>
      <trkpt lat="45.98498" lon="1.2143">
        <ele>397.64</ele>
        <time>2016-09-07T09:29:45Z</time>
      </trkpt>
      <trkpt lat="45.98537" lon="1.21408">
        <ele>398.12</ele>
        <time>2016-09-07T09:29:58Z</time>
      </trkpt>
      <trkpt lat="45.98561" lon="1.2139">
        <ele>399.08</ele>
        <time>2016-09-07T09:30:10Z</time>
      </trkpt>
      <trkpt lat="45.98578" lon="1.21372">
        <ele>401.01</ele>
        <time>2016-09-07T09:30:20Z</time>
      </trkpt>
      <trkpt lat="45.98615" lon="1.21344">
        <ele>402.45</ele>
        <time>2016-09-07T09:30:33Z</time>
      </trkpt>
      <trkpt lat="45.98675" lon="1.21313">
        <ele>401.97</ele>
        <time>2016-09-07T09:30:46Z</time>
      </trkpt>
      <trkpt lat="45.98688" lon="1.21307">
        <ele>402.45</ele>
        <time>2016-09-07T09:30:49Z</time>
      </trkpt>
      <trkpt lat="45.98693" lon="1.21304">
        <ele>402.45</ele>
        <time>2016-09-07T09:30:50Z</time>
      </trkpt>
      <trkpt lat="45.98761" lon="1.21264">
        <ele>399.08</ele>
        <time>2016-09-07T09:31:05Z</time>
      </trkpt>
      <trkpt lat="45.98775" lon="1.2125">
        <ele>397.64</ele>
        <time>2016-09-07T09:31:08Z</time>
      </trkpt>
      <trkpt lat="45.98779" lon="1.21245">
        <ele>396.68</ele>
        <time>2016-09-07T09:31:09Z</time>
      </trkpt>
      <trkpt lat="45.98782" lon="1.21237">
        <ele>396.68</ele>
        <time>2016-09-07T09:31:10Z</time>
      </trkpt>
      <trkpt lat="45.98784" lon="1.21229">
        <ele>396.2</ele>
        <time>2016-09-07T09:31:11Z</time>
      </trkpt>
      <trkpt lat="45.98786" lon="1.21221">
        <ele>394.76</ele>
        <time>2016-09-07T09:31:12Z</time>
      </trkpt>
      <trkpt lat="45.98787" lon="1.21212">
        <ele>394.76</ele>
        <time>2016-09-07T09:31:13Z</time>
      </trkpt>
      <trkpt lat="45.98788" lon="1.21203">
        <ele>393.8</ele>
        <time>2016-09-07T09:31:14Z</time>
      </trkpt>
      <trkpt lat="45.98792" lon="1.21182">
        <ele>392.84</ele>
        <time>2016-09-07T09:31:16Z</time>
      </trkpt>
      <trkpt lat="45.98807" lon="1.21128">
        <ele>390.43</ele>
        <time>2016-09-07T09:31:22Z</time>
      </trkpt>
      <trkpt lat="45.9881" lon="1.21122">
        <ele>390.43</ele>
        <time>2016-09-07T09:31:23Z</time>
      </trkpt>
      <trkpt lat="45.98813" lon="1.2112">
        <ele>389.95</ele>
        <time>2016-09-07T09:31:24Z</time>
      </trkpt>
      <trkpt lat="45.98822" lon="1.21123">
        <ele>389.95</ele>
        <time>2016-09-07T09:31:32Z</time>
      </trkpt>
      <trkpt lat="45.98819" lon="1.2112">
        <ele>389.95</ele>
        <time>2016-09-07T09:31:41Z</time>
      </trkpt>
      <trkpt lat="45.98815" lon="1.21109">
        <ele>389.95</ele>
        <time>2016-09-07T09:31:46Z</time>
      </trkpt>
      <trkpt lat="45.98816" lon="1.21106">
        <ele>389.95</ele>
        <time>2016-09-07T09:31:47Z</time>
      </trkpt>
      <trkpt lat="45.98817" lon="1.21102">
        <ele>389.95</ele>
        <time>2016-09-07T09:31:48Z</time>
      </trkpt>
      <trkpt lat="45.98818" lon="1.21099">
        <ele>389.95</ele>
        <time>2016-09-07T09:31:49Z</time>
      </trkpt>
      <trkpt lat="45.98819" lon="1.21096">
        <ele>390.91</ele>
        <time>2016-09-07T09:31:50Z</time>
      </trkpt>
      <trkpt lat="45.9882" lon="1.21092">
        <ele>390.91</ele>
        <time>2016-09-07T09:31:51Z</time>
      </trkpt>
      <trkpt lat="45.98824" lon="1.21085">
        <ele>390.91</ele>
        <time>2016-09-07T09:31:53Z</time>
      </trkpt>
      <trkpt lat="45.98835" lon="1.21082">
        <ele>390.91</ele>
        <time>2016-09-07T09:31:58Z</time>
      </trkpt>
      <trkpt lat="45.98851" lon="1.21089">
        <ele>389.47</ele>
        <time>2016-09-07T09:32:03Z</time>
      </trkpt>
      <trkpt lat="45.98877" lon="1.21099">
        <ele>387.55</ele>
        <time>2016-09-07T09:32:09Z</time>
      </trkpt>
      <trkpt lat="45.98886" lon="1.21102">
        <ele>386.59</ele>
        <time>2016-09-07T09:32:11Z</time>
      </trkpt>
      <trkpt lat="45.989" lon="1.21112">
        <ele>385.15</ele>
        <time>2016-09-07T09:32:14Z</time>
      </trkpt>
      <trkpt lat="45.9893" lon="1.21136">
        <ele>382.26</ele>
        <time>2016-09-07T09:32:20Z</time>
      </trkpt>
      <trkpt lat="45.98946" lon="1.21151">
        <ele>379.86</ele>
        <time>2016-09-07T09:32:24Z</time>
      </trkpt>
      <trkpt lat="45.9897" lon="1.2116">
        <ele>377.94</ele>
        <time>2016-09-07T09:32:30Z</time>
      </trkpt>
      <trkpt lat="45.99012" lon="1.21155">
        <ele>376.01</ele>
        <time>2016-09-07T09:32:39Z</time>
      </trkpt>
      <trkpt lat="45.99032" lon="1.21161">
        <ele>375.53</ele>
        <time>2016-09-07T09:32:43Z</time>
      </trkpt>
      <trkpt lat="45.99092" lon="1.21184">
        <ele>374.09</ele>
        <time>2016-09-07T09:32:57Z</time>
      </trkpt>
      <trkpt lat="45.99122" lon="1.21203">
        <ele>373.13</ele>
        <time>2016-09-07T09:33:08Z</time>
      </trkpt>
      <trkpt lat="45.99146" lon="1.21223">
        <ele>373.61</ele>
        <time>2016-09-07T09:33:20Z</time>
      </trkpt>
      <trkpt lat="45.99163" lon="1.21231">
        <ele>374.57</ele>
        <time>2016-09-07T09:33:26Z</time>
      </trkpt>
      <trkpt lat="45.99196" lon="1.21251">
        <ele>376.01</ele>
        <time>2016-09-07T09:33:38Z</time>
      </trkpt>
      <trkpt lat="45.99222" lon="1.21264">
        <ele>376.97</ele>
        <time>2016-09-07T09:33:48Z</time>
      </trkpt>
      <trkpt lat="45.99254" lon="1.2129">
        <ele>377.94</ele>
        <time>2016-09-07T09:34:00Z</time>
      </trkpt>
      <trkpt lat="45.99284" lon="1.21309">
        <ele>378.9</ele>
        <time>2016-09-07T09:34:12Z</time>
      </trkpt>
      <trkpt lat="45.99294" lon="1.21318">
        <ele>378.9</ele>
        <time>2016-09-07T09:34:17Z</time>
      </trkpt>
      <trkpt lat="45.99305" lon="1.21323">
        <ele>378.9</ele>
        <time>2016-09-07T09:34:21Z</time>
      </trkpt>
      <trkpt lat="45.99344" lon="1.21333">
        <ele>375.05</ele>
        <time>2016-09-07T09:34:33Z</time>
      </trkpt>
      <trkpt lat="45.99381" lon="1.21354">
        <ele>371.69</ele>
        <time>2016-09-07T09:34:42Z</time>
      </trkpt>
      <trkpt lat="45.99426" lon="1.21391">
        <ele>370.24</ele>
        <time>2016-09-07T09:34:53Z</time>
      </trkpt>
      <trkpt lat="45.99441" lon="1.21438">
        <ele>367.84</ele>
        <time>2016-09-07T09:35:01Z</time>
      </trkpt>
      <trkpt lat="45.99454" lon="1.21479">
        <ele>365.92</ele>
        <time>2016-09-07T09:35:09Z</time>
      </trkpt>
      <trkpt lat="45.99467" lon="1.21492">
        <ele>365.44</ele>
        <time>2016-09-07T09:35:12Z</time>
      </trkpt>
      <trkpt lat="45.99469" lon="1.21498">
        <ele>364.96</ele>
        <time>2016-09-07T09:35:13Z</time>
      </trkpt>
      <trkpt lat="45.99471" lon="1.21504">
        <ele>365.44</ele>
        <time>2016-09-07T09:35:14Z</time>
      </trkpt>
      <trkpt lat="45.99473" lon="1.2151">
        <ele>365.44</ele>
        <time>2016-09-07T09:35:15Z</time>
      </trkpt>
      <trkpt lat="45.99473" lon="1.21515">
        <ele>365.44</ele>
        <time>2016-09-07T09:35:16Z</time>
      </trkpt>
      <trkpt lat="45.99489" lon="1.21628">
        <ele>365.44</ele>
        <time>2016-09-07T09:35:33Z</time>
      </trkpt>
      <trkpt lat="45.99493" lon="1.21655">
        <ele>366.4</ele>
        <time>2016-09-07T09:35:37Z</time>
      </trkpt>
      <trkpt lat="45.99501" lon="1.21722">
        <ele>368.8</ele>
        <time>2016-09-07T09:35:49Z</time>
      </trkpt>
      <trkpt lat="45.9951" lon="1.21795">
        <ele>372.17</ele>
        <time>2016-09-07T09:36:04Z</time>
      </trkpt>
      <trkpt lat="45.9952" lon="1.21853">
        <ele>374.09</ele>
        <time>2016-09-07T09:36:17Z</time>
      </trkpt>
      <trkpt lat="45.99559" lon="1.21878">
        <ele>374.57</ele>
        <time>2016-09-07T09:36:30Z</time>
      </trkpt>
      <trkpt lat="45.99567" lon="1.21876">
        <ele>374.57</ele>
        <time>2016-09-07T09:36:32Z</time>
      </trkpt>
      <trkpt lat="45.99626" lon="1.2184">
        <ele>372.17</ele>
        <time>2016-09-07T09:36:44Z</time>
      </trkpt>
      <trkpt lat="45.99693" lon="1.21806">
        <ele>370.24</ele>
        <time>2016-09-07T09:36:56Z</time>
      </trkpt>
      <trkpt lat="45.99698" lon="1.21806">
        <ele>370.24</ele>
        <time>2016-09-07T09:36:57Z</time>
      </trkpt>
      <trkpt lat="45.99737" lon="1.21815">
        <ele>372.17</ele>
        <time>2016-09-07T09:37:08Z</time>
      </trkpt>
      <trkpt lat="45.99776" lon="1.21825">
        <ele>375.53</ele>
        <time>2016-09-07T09:37:21Z</time>
      </trkpt>
      <trkpt lat="45.99792" lon="1.21814">
        <ele>376.49</ele>
        <time>2016-09-07T09:37:27Z</time>
      </trkpt>
      <trkpt lat="45.99795" lon="1.21811">
        <ele>376.01</ele>
        <time>2016-09-07T09:37:28Z</time>
      </trkpt>
      <trkpt lat="45.99798" lon="1.21809">
        <ele>376.01</ele>
        <time>2016-09-07T09:37:29Z</time>
      </trkpt>
      <trkpt lat="45.998" lon="1.21808">
        <ele>376.01</ele>
        <time>2016-09-07T09:37:30Z</time>
      </trkpt>
      <trkpt lat="45.99803" lon="1.21806">
        <ele>376.01</ele>
        <time>2016-09-07T09:37:31Z</time>
      </trkpt>
      <trkpt lat="45.99806" lon="1.21804">
        <ele>376.01</ele>
        <time>2016-09-07T09:37:32Z</time>
      </trkpt>
      <trkpt lat="45.99814" lon="1.21795">
        <ele>376.01</ele>
        <time>2016-09-07T09:37:36Z</time>
      </trkpt>
      <trkpt lat="45.99815" lon="1.21792">
        <ele>376.01</ele>
        <time>2016-09-07T09:37:37Z</time>
      </trkpt>
      <trkpt lat="45.99814" lon="1.2179">
        <ele>376.01</ele>
        <time>2016-09-07T09:37:38Z</time>
      </trkpt>
      <trkpt lat="45.99813" lon="1.21789">
        <ele>375.05</ele>
        <time>2016-09-07T09:37:40Z</time>
      </trkpt>
      <trkpt lat="45.99813" lon="1.21788">
        <ele>375.05</ele>
        <time>2016-09-07T09:37:52Z</time>
      </trkpt>
      <trkpt lat="45.99812" lon="1.21788">
        <ele>374.57</ele>
        <time>2016-09-07T09:38:04Z</time>
      </trkpt>
      <trkpt lat="45.99812" lon="1.21788">
        <ele>374.57</ele>
        <time>2016-09-07T09:38:27Z</time>
      </trkpt>
      <trkpt lat="45.99809" lon="1.21788">
        <ele>374.09</ele>
        <time>2016-09-07T09:38:53Z</time>
      </trkpt>
      <trkpt lat="45.99808" lon="1.21787">
        <ele>374.09</ele>
        <time>2016-09-07T09:39:17Z</time>
      </trkpt>
      <trkpt lat="45.9981" lon="1.21788">
        <ele>374.09</ele>
        <time>2016-09-07T09:39:39Z</time>
      </trkpt>
      <trkpt lat="45.99811" lon="1.21789">
        <ele>374.09</ele>
        <time>2016-09-07T09:39:58Z</time>
      </trkpt>
      <trkpt lat="45.99813" lon="1.2179">
        <ele>374.09</ele>
        <time>2016-09-07T09:40:17Z</time>
      </trkpt>
      <trkpt lat="45.99816" lon="1.21788">
        <ele>374.09</ele>
        <time>2016-09-07T09:40:49Z</time>
      </trkpt>
    </trkseg>
  </trk>
</gpx>